[[{"header":{"parameterUnit":"m.s-1","parameterCategory":1,"la1":31.0,"la2":29.5877,"lo1":-88.7671,"lo2":-86.6584,"dy":0.0162,"dx":0.0185,"nx":115,"ny":88,"refTime":"2024-07-14T00:00:00:Z","depth":0,"parameterNumber":2,"parameterNumberName":"U-component_of_WINDS"},"data":[0.0,0.0,0.0,0.0,0.0,0.0,0.0,0.0,0.0,0.0,0.0,0.0,0.0,0.0,0.0,0.0,0.0,0.0,0.0,0.0,0.0,0.0,0.0,0.0,0.0,0.0,0.0,0.0,0.0,0.0,0.0,0.0,0.0,0.0,0.0,0.0,0.0,0.0,0.0,0.0,0.0,0.0,0.0,0.0,0.0,0.0,0.0,0.0,0.0,0.0,0.0,0.0,0.0,0.0,0.0,0.0,0.0,0.0,0.0,0.0,0.0,0.0,0.0,0.0,0.0,0.0,0.0,0.0,0.0,0.0,0.0,0.0,0.0,0.0,0.0,0.0,0.0,0.0,0.0,0.0,0.0,0.0,0.0,0.0,0.0,0.0,0.0,0.0,0.0,0.0,0.0,0.0,0.0,0.0,0.0,0.0,0.0,0.0,0.0,0.0,0.0,0.0,0.0,0.0,0.0,0.0,0.0,0.0,0.0,0.0,0.0,0.0,0.0,0.0,0.0,0.0,0.0,0.0,0.0,0.0,0.0,0.0,0.0,0.0,0.0,0.0,0.0,0.0,0.0,0.0,0.0,0.0,0.0,0.0,0.0,0.0,0.0,0.0,0.0,0.0,0.0,0.0,0.0,0.0,0.0,0.0,0.0,0.0,0.0,0.0,0.0,0.0,0.0,0.0,0.0,0.0,0.0,0.0,0.0,0.0,0.0,0.0,0.0,0.0,0.0,0.0,0.0,0.0,0.0,0.0,0.0,0.0,0.0,0.0,0.0,0.0,0.0,0.0,0.0,0.0,0.0,0.0,0.0,0.0,0.0,0.0,0.0,0.0,0.0,0.0,0.0,0.0,0.0,0.0,0.0,0.0,0.0,0.0,0.0,0.0,0.0,0.0,0.0,0.0,0.0,0.0,0.0,0.0,0.0,0.0,0.0,0.0,0.0,0.0,0.0,0.0,0.0,0.0,0.0,0.0,0.0,0.0,0.0,0.0,0.0,0.0,0.0,0.0,0.0,0.0,0.0,0.0,0.0,0.0,0.0,0.0,0.0,0.0,0.0,0.0,0.0,0.0,0.0,0.0,0.0,0.0,0.0,0.0,0.0,0.0,0.0,0.0,0.0,0.0,0.0,0.0,0.0,0.0,0.0,0.0,0.0,0.0,0.0,0.0,0.0,0.0,0.0,0.0,0.0,0.0,0.0,0.0,0.0,0.0,0.0,0.0,0.0,0.0,0.0,0.0,0.0,0.0,0.0,0.0,0.0,0.0,0.0,0.0,0.0,0.0,0.0,0.0,0.0,0.0,0.0,0.0,0.0,0.0,0.0,0.0,0.0,0.0,0.0,0.0,0.0,0.0,0.0,0.0,0.0,0.0,0.0,0.0,0.0,0.0,0.0,0.0,0.0,0.0,0.0,0.0,0.0,0.0,0.0,0.0,0.0,0.0,0.0,0.0,0.0,0.0,0.0,0.0,0.0,0.0,0.0,0.0,0.0,0.0,0.0,0.0,0.0,0.0,0.0,0.0,0.0,0.0,0.0,0.0,0.0,0.0,0.0,0.0,0.0,0.0,0.0,0.0,0.0,0.0,0.0,0.0,0.0,0.0,0.0,0.0,0.0,0.0,0.0,0.0,0.0,0.0,0.0,0.0,0.0,0.0,0.0,0.0,0.0,0.0,0.0,0.0,0.0,0.0,0.0,0.0,0.0,0.0,0.0,0.0,0.0,0.0,0.0,0.0,0.0,0.0,0.0,0.0,0.0,0.0,0.0,0.0,0.0,0.0,0.0,0.0,0.0,0.0,0.0,0.0,0.0,0.0,0.0,0.0,0.0,0.0,0.0,0.0,0.0,0.0,0.0,0.0,0.0,0.0,0.0,0.0,0.0,0.0,0.0,0.0,0.0,0.0,0.0,0.0,0.0,0.0,0.0,0.0,0.0,0.0,0.0,0.0,0.0,0.0,0.0,0.0,0.0,0.0,0.0,0.0,0.0,0.0,0.0,0.0,0.0,0.0,0.0,0.0,0.0,0.0,0.0,0.0,0.0,0.0,0.0,0.0,0.0,0.0,0.0,0.0,0.0,0.0,0.0,0.0,0.0,0.0,0.0,0.0,0.0,0.0,0.0,0.0,0.0,0.0,0.0,0.0,0.0,0.0,0.0,0.0,0.0,0.0,0.0,0.0,0.0,0.0,0.0,0.0,0.0,0.0,0.0,0.0,0.0,0.0,0.0,0.0,0.0,0.0,0.0,0.0,0.0,0.0,0.0,0.0,0.0,0.0,0.0,0.0,0.0,0.0,0.0,0.0,0.0,0.0,0.0,0.0,0.0,0.0,0.0,0.0,0.0,0.0,0.0,0.0,0.0,0.0,0.0,0.0,0.0,0.0,0.0,0.0,0.0,0.0,0.0,0.0,0.0,0.0,0.0,0.0,0.0,0.0,0.0,0.0,0.0,0.0,0.0,0.0,0.0,0.0,0.0,0.0,0.0,0.0,0.0,0.0,0.0,0.0,0.0,0.0,0.0,0.0,0.0,0.0,0.0,0.0,0.0,0.0,0.0,0.0,0.0,0.0,0.0,0.0,0.0,0.0,0.0,0.0,0.0,0.0,0.0,0.0,0.0,0.0,0.0,0.0,0.0,0.0,0.0,0.0,0.0,0.0,0.0,0.0,0.0,0.0,0.0,0.0,0.0,0.0,0.0,0.0,0.0,0.0,0.0,0.0,0.0,0.0,0.0,0.0,0.0,0.0,0.0,0.0,0.0,0.0,0.0,0.0,0.0,0.0,0.0,0.0,0.0,0.0,0.0,0.0,0.0,0.0,0.0,0.0,0.0,0.0,0.0,0.0,0.0,0.0,0.0,0.0,0.0,0.0,0.0,0.0,0.0,0.0,0.0,0.0,0.0,0.0,0.0,0.0,0.0,0.0,0.0,0.0,0.0,0.0,0.0,0.0,0.0,0.0,0.0,0.0,0.0,0.0,0.0,0.0,0.0,0.0,0.0,0.0,0.0,0.0,0.0,0.0,0.0,0.0,0.0,0.0,0.0,0.0,0.0,0.0,0.0,0.0,0.0,0.0,0.0,0.0,0.0,0.0,0.0,0.0,0.0,0.0,0.0,0.0,0.0,0.0,0.0,0.0,0.0,0.0,0.0,0.0,0.0,0.0,0.0,0.0,0.0,0.0,0.0,0.0,0.0,0.0,0.0,0.0,0.0,0.0,0.0,0.0,0.0,0.0,0.0,0.0,0.0,0.0,0.0,0.0,0.0,0.0,0.0,0.0,0.0,0.0,0.0,0.0,0.0,0.0,0.0,0.0,0.0,0.0,0.0,0.0,0.0,0.0,0.0,0.0,0.0,0.0,0.0,0.0,0.0,0.0,0.0,0.0,0.0,0.0,0.0,0.0,0.0,0.0,0.0,0.0,0.0,0.0,0.0,0.0,0.0,0.0,0.0,0.0,0.0,0.0,0.0,0.0,0.0,0.0,0.0,0.0,0.0,0.0,0.0,0.0,0.0,0.0,0.0,0.0,0.0,0.0,0.0,0.0,0.0,0.0,0.0,0.0,0.0,0.0,0.0,0.0,0.0,0.0,0.0,0.0,0.0,0.0,0.0,0.0,0.0,0.0,0.0,0.0,0.0,0.0,0.0,0.0,0.0,0.0,0.0,0.0,0.0,0.0,0.0,0.0,0.0,0.0,0.0,0.0,0.0,0.0,0.0,0.0,0.0,0.0,0.0,0.0,0.0,0.0,0.0,0.0,0.0,0.0,0.0,0.0,0.0,0.0,0.0,0.0,0.0,0.0,0.0,0.0,0.0,0.0,0.0,0.0,0.0,0.0,0.0,0.0,0.0,0.0,0.0,0.0,0.0,0.0,0.0,0.0,0.0,0.0,0.0,0.0,0.0,0.0,0.0,0.0,0.0,0.0,0.0,0.0,0.0,0.0,0.0,0.0,0.0,0.0,0.0,0.0,0.0,0.0,0.0,0.0,0.0,0.0,0.0,0.0,0.0,0.0,0.0,0.0,0.0,0.0,0.0,0.0,0.0,0.0,0.0,0.0,0.0,0.0,0.0,0.0,0.0,0.0,0.0,0.0,0.0,0.0,0.0,0.0,0.0,0.0,0.0,0.0,0.0,0.0,0.0,0.0,0.0,0.0,0.0,0.0,0.0,0.0,0.0,0.0,0.0,0.0,0.0,0.0,0.0,0.0,0.0,0.0,0.0,0.0,0.0,0.0,0.0,0.0,0.0,0.0,0.0,0.0,0.0,0.0,0.0,0.0,-1.004,0.0,0.0,0.0,0.0,0.0,0.0,0.0,0.0,0.0,0.0,0.0,0.0,0.0,0.0,0.0,0.0,0.0,0.0,0.0,0.0,0.0,0.0,0.0,0.0,0.0,0.0,0.0,0.0,0.0,0.0,0.0,0.0,0.0,0.0,0.0,0.0,0.0,0.0,0.0,0.0,0.0,0.0,0.0,0.0,0.0,0.0,0.0,0.0,0.0,0.0,0.0,0.0,0.0,0.0,0.0,0.0,0.0,0.0,0.0,0.0,0.0,0.0,0.0,0.0,0.0,0.0,0.0,0.0,0.0,0.0,0.0,0.0,0.0,0.0,0.0,0.0,0.0,0.0,0.0,0.0,0.0,0.0,0.0,0.0,0.0,0.0,0.0,0.0,0.0,0.0,0.0,0.0,0.0,0.0,0.0,0.0,0.0,0.0,0.0,0.0,0.0,0.0,0.0,0.0,0.0,0.0,0.0,0.0,0.0,0.0,-1.1837,-1.1956,-1.0783,-1.0086,-1.0007,0.0,0.0,0.0,0.0,0.0,0.0,0.0,0.0,0.0,0.0,0.0,0.0,0.0,0.0,0.0,0.0,0.0,0.0,0.0,0.0,0.0,0.0,0.0,0.0,0.0,0.0,0.0,0.0,0.0,0.0,0.0,0.0,0.0,0.0,0.0,0.0,0.0,0.0,0.0,0.0,0.0,0.0,0.0,0.0,0.0,0.0,0.0,0.0,0.0,0.0,0.0,0.0,0.0,0.0,0.0,0.0,0.0,0.0,0.0,0.0,0.0,0.0,0.0,0.0,0.0,0.0,0.0,0.0,0.0,0.0,0.0,0.0,0.0,0.0,0.0,0.0,0.0,0.0,0.0,0.0,0.0,0.0,0.0,0.0,0.0,0.0,0.0,0.0,0.0,0.0,0.0,0.0,0.0,0.0,0.0,0.0,0.0,0.0,0.0,0.0,0.0,0.0,0.0,0.0,0.0,0.0,0.0,0.0,0.0,0.0,0.0,0.0,-1.129,-1.0709,-1.0495,0.0,0.0,0.0,0.0,0.0,0.0,0.0,0.0,0.0,0.0,0.0,0.0,0.0,0.0,0.0,0.0,0.0,0.0,0.0,0.0,0.0,0.0,0.0,0.0,0.0,0.0,0.0,0.0,0.0,0.0,0.0,0.0,0.0,0.0,0.0,0.0,0.0,0.0,0.0,0.0,0.0,0.0,0.0,0.0,0.0,0.0,0.0,0.0,0.0,0.0,0.0,0.0,0.0,0.0,0.0,0.0,0.0,0.0,0.0,0.0,0.0,0.0,0.0,0.0,0.0,0.0,0.0,0.0,0.0,0.0,0.0,0.0,0.0,0.0,0.0,0.0,0.0,0.0,0.0,0.0,0.0,0.0,0.0,0.0,0.0,0.0,0.0,0.0,0.0,0.0,0.0,0.0,0.0,0.0,0.0,0.0,0.0,0.0,0.0,0.0,0.0,0.0,0.0,0.0,0.0,0.0,0.0,0.0,0.0,0.0,-1.062,-1.1901,-1.2159,0.0,-1.2015,0.0,0.0,0.0,0.0,0.0,0.0,0.0,0.0,0.0,0.0,0.0,0.0,0.0,0.0,0.0,0.0,0.0,0.0,0.0,0.0,0.0,0.0,0.0,0.0,0.0,0.0,0.0,0.0,0.0,0.0,0.0,0.0,0.0,0.0,0.0,0.0,0.0,0.0,0.0,0.0,0.0,0.0,0.0,0.0,0.0,0.0,0.0,0.0,0.0,0.0,0.0,0.0,0.0,0.0,0.0,0.0,0.0,0.0,0.0,0.0,0.0,0.0,0.0,0.0,0.0,0.0,0.0,0.0,0.0,0.0,0.0,0.0,0.0,0.0,0.0,0.0,0.0,0.0,0.0,0.0,0.0,0.0,0.0,0.0,0.0,0.0,0.0,0.0,0.0,0.0,0.0,0.0,0.0,0.0,0.0,0.0,0.0,0.0,0.0,0.0,0.0,0.0,0.0,0.0,0.0,0.0,0.0,0.0,0.0,0.0,0.0,-1.2135,-1.1844,-1.1644,0.0,0.0,0.0,0.0,0.0,0.0,0.0,0.0,0.0,0.0,0.0,0.0,0.0,0.0,0.0,0.0,0.0,0.0,0.0,0.0,0.0,0.0,0.0,0.0,0.0,0.0,0.0,0.0,0.0,0.0,0.0,0.0,0.0,0.0,0.0,0.0,0.0,0.0,0.0,0.0,0.0,0.0,0.0,0.0,0.0,0.0,0.0,0.0,0.0,0.0,0.0,0.0,0.0,0.0,0.0,0.0,0.0,0.0,0.0,0.0,0.0,0.0,0.0,0.0,0.0,0.0,0.0,0.0,0.0,0.0,0.0,0.0,0.0,0.0,0.0,0.0,0.0,0.0,0.0,0.0,0.0,0.0,0.0,0.0,0.0,0.0,0.0,0.0,0.0,0.0,0.0,0.0,0.0,0.0,0.0,0.0,0.0,0.0,0.0,0.0,0.0,0.0,0.0,0.0,0.0,0.0,0.0,0.0,0.0,0.0,-1.1285,0.0,-1.2691,-1.2111,-1.1542,-1.1007,0.0,0.0,0.0,0.0,0.0,0.0,0.0,0.0,0.0,0.0,0.0,0.0,0.0,0.0,0.0,0.0,0.0,0.0,0.0,0.0,0.0,0.0,0.0,0.0,0.0,0.0,0.0,0.0,0.0,0.0,0.0,0.0,0.0,0.0,0.0,0.0,0.0,0.0,0.0,0.0,0.0,0.0,0.0,0.0,0.0,0.0,0.0,0.0,0.0,0.0,0.0,0.0,0.0,0.0,0.0,0.0,0.0,0.0,0.0,0.0,0.0,0.0,0.0,0.0,0.0,0.0,0.0,0.0,0.0,0.0,0.0,0.0,0.0,0.0,0.0,0.0,0.0,0.0,0.0,0.0,0.0,0.0,0.0,0.0,0.0,0.0,0.0,0.0,0.0,0.0,0.0,0.0,0.0,0.0,0.0,0.0,0.0,0.0,0.0,0.0,0.0,0.0,0.0,0.0,0.0,0.0,0.0,0.0,0.0,-1.13,-1.178,-1.3842,-1.3558,-1.255,0.0,0.0,0.0,0.0,0.0,0.0,0.0,0.0,0.0,0.0,0.0,0.0,0.0,0.0,0.0,0.0,0.0,0.0,0.0,0.0,0.0,0.0,0.0,0.0,0.0,0.0,0.0,0.0,0.0,0.0,0.0,0.0,0.0,0.0,0.0,0.0,0.0,0.0,0.0,0.0,0.0,0.0,0.0,0.0,0.0,0.0,0.0,0.0,0.0,0.0,0.0,0.0,0.0,0.0,0.0,0.0,0.0,0.0,0.0,0.0,0.0,0.0,0.0,0.0,0.0,0.0,0.0,0.0,0.0,0.0,0.0,0.0,0.0,0.0,0.0,0.0,0.0,0.0,0.0,0.0,0.0,0.0,0.0,0.0,0.0,0.0,0.0,0.0,0.0,0.0,0.0,0.0,0.0,0.0,0.0,0.0,0.0,0.0,0.0,0.0,0.0,0.0,0.0,0.0,0.0,0.0,0.0,0.0,0.0,-0.8988,-0.9758,-1.1855,-1.5259,-1.2689,-1.1404,0.0,0.0,0.0,0.0,0.0,0.0,0.0,0.0,0.0,0.0,0.0,0.0,0.0,0.0,0.0,0.0,0.0,0.0,0.0,0.0,0.0,0.0,0.0,0.0,0.0,0.0,0.0,0.0,0.0,0.0,0.0,0.0,0.0,0.0,0.0,0.0,0.0,0.0,0.0,0.0,0.0,0.0,0.0,0.0,0.0,0.0,0.0,0.0,0.0,0.0,0.0,0.0,0.0,0.0,0.0,0.0,0.0,0.0,0.0,0.0,0.0,0.0,0.0,0.0,0.0,0.0,0.0,0.0,0.0,0.0,0.0,0.0,0.0,0.0,0.0,0.0,0.0,0.0,0.0,0.0,0.0,0.0,0.0,0.0,0.0,0.0,0.0,0.0,0.0,0.0,0.0,0.0,0.0,0.0,0.0,0.0,0.0,0.0,0.0,0.0,0.0,0.0,0.0,0.0,0.0,0.0,0.0,0.0,0.0,-0.883,0.0,-1.2812,0.0,-1.2348,-1.0848,0.0,0.0,0.0,0.0,0.0,0.0,0.0,0.0,0.0,0.0,0.0,0.0,0.0,0.0,0.0,0.0,0.0,0.0,0.0,0.0,0.0,0.0,0.0,0.0,0.0,0.0,0.0,0.0,0.0,0.0,0.0,0.0,0.0,0.0,0.0,0.0,0.0,0.0,0.0,0.0,0.0,0.0,0.0,0.0,0.0,0.0,0.0,0.0,0.0,0.0,0.0,0.0,0.0,0.0,0.0,0.0,0.0,0.0,0.0,0.0,0.0,0.0,0.0,0.0,0.0,0.0,0.0,0.0,0.0,0.0,0.0,0.0,0.0,0.0,0.0,0.0,0.0,0.0,0.0,0.0,0.0,0.0,0.0,0.0,0.0,0.0,0.0,0.0,0.0,0.0,0.0,0.0,0.0,0.0,0.0,0.0,0.0,0.0,0.0,0.0,0.0,0.0,0.0,0.0,0.0,0.0,0.0,0.0,-0.8897,-1.2305,-1.4083,-1.4479,-1.3527,-1.2793,-1.1072,0.0,0.0,0.0,0.0,0.0,0.0,0.0,0.0,0.0,0.0,0.0,0.0,0.0,0.0,0.0,0.0,0.0,0.0,0.0,0.0,0.0,0.0,0.0,0.0,0.0,0.0,0.0,0.0,0.0,0.0,0.0,0.0,0.0,0.0,0.0,0.0,0.0,0.0,0.0,0.0,0.0,0.0,0.0,0.0,0.0,0.0,0.0,0.0,0.0,0.0,0.0,0.0,0.0,0.0,0.0,0.0,0.0,0.0,0.0,0.0,0.0,0.0,0.0,0.0,0.0,0.0,0.0,0.0,0.0,0.0,0.0,0.0,0.0,0.0,0.0,0.0,0.0,0.0,0.0,0.0,0.0,0.0,0.0,0.0,0.0,0.0,0.0,0.0,0.0,0.0,0.0,0.0,0.0,0.0,0.0,0.0,0.0,0.0,0.0,0.0,0.0,0.0,0.0,0.0,0.0,0.0,0.0,0.0,0.0,-1.1885,-1.2848,-1.4212,-1.5892,-1.2934,-1.1475,0.0,0.0,0.0,0.0,0.0,0.0,0.0,0.0,0.0,0.0,0.0,0.0,0.0,0.0,0.0,0.0,0.0,0.0,0.0,0.0,0.0,0.0,0.0,0.0,0.0,0.0,0.0,0.0,0.0,0.0,0.0,0.0,0.0,0.0,0.0,0.0,0.0,0.0,0.0,0.0,0.0,0.0,0.0,0.0,0.0,0.0,0.0,0.0,0.0,0.0,0.0,0.0,0.0,0.0,0.0,0.0,0.0,0.0,0.0,0.0,0.0,0.0,0.0,0.0,0.0,0.0,0.0,0.0,0.0,0.0,0.0,0.0,0.0,0.0,0.0,0.0,0.0,0.0,0.0,0.0,0.0,0.0,0.0,0.0,0.0,0.0,0.0,0.0,0.0,0.0,0.0,0.0,0.0,0.0,0.0,0.0,0.0,0.0,0.0,0.0,0.0,0.0,0.0,0.0,0.0,0.0,0.0,0.0,0.0,-1.3961,-1.4531,-1.5587,-1.715,-1.4051,-1.2538,-1.2815,0.0,0.0,0.0,0.0,0.0,0.0,0.0,0.0,0.0,0.0,0.0,0.0,0.0,0.0,0.0,0.0,0.0,0.0,0.0,0.0,0.0,0.0,0.0,0.0,0.0,0.0,0.0,0.0,0.0,0.0,0.0,0.0,0.0,0.0,0.0,0.0,0.0,0.0,0.0,0.0,0.0,0.0,0.0,0.0,0.0,0.0,0.0,0.0,0.0,0.0,0.0,0.0,0.0,0.0,0.0,0.0,0.0,0.0,0.0,0.0,0.0,0.0,0.0,0.0,0.0,0.0,0.0,0.0,0.0,0.0,0.0,0.0,0.0,0.0,0.0,0.0,0.0,0.0,0.0,0.0,0.0,0.0,0.0,0.0,0.0,0.0,0.0,0.0,0.0,0.0,0.0,0.0,0.0,0.0,0.0,0.0,0.0,0.0,0.0,0.0,0.0,0.0,0.0,0.0,0.0,0.0,0.0,0.0,-1.797,-1.8608,-1.8391,-1.7312,-1.5969,-1.4208,0.0,0.0,0.0,0.0,0.0,0.0,0.0,0.0,0.0,0.0,0.0,0.0,0.0,0.0,0.0,0.0,0.0,0.0,0.0,0.0,0.0,0.0,0.0,0.0,0.0,0.0,0.0,0.0,0.0,0.0,0.0,0.0,0.0,0.0,0.0,0.0,0.0,0.0,0.0,0.0,0.0,0.0,0.0,0.0,0.0,0.0,0.0,0.0,0.0,0.0,0.0,0.0,0.0,0.0,0.0,0.0,0.0,0.0,0.0,0.0,0.0,0.0,0.0,0.0,0.0,0.0,0.0,0.0,0.0,0.0,0.0,0.0,0.0,0.0,0.0,0.0,0.0,0.0,0.0,0.0,0.0,0.0,0.0,0.0,0.0,0.0,0.0,0.0,0.0,0.0,0.0,0.0,0.0,0.0,0.0,0.0,0.0,0.0,0.0,0.0,0.0,0.0,0.0,0.0,0.0,0.0,0.0,0.0,0.0,-1.9144,-2.0202,-2.0559,-2.0193,-1.7841,-1.5806,0.0,0.0,0.0,0.0,0.0,0.0,0.0,0.0,0.0,0.0,0.0,0.0,0.0,0.0,0.0,0.0,0.0,0.0,0.0,0.0,0.0,0.0,0.0,0.0,0.0,0.0,0.0,0.0,0.0,0.0,0.0,0.0,0.0,0.0,0.0,0.0,0.0,0.0,0.0,0.0,0.0,0.0,0.0,0.0,0.0,0.0,0.0,0.0,0.0,0.0,0.0,0.0,0.0,0.0,0.0,0.0,0.0,0.0,0.0,0.0,0.0,0.0,0.0,0.0,0.0,0.0,0.0,0.0,0.0,0.0,0.0,0.0,0.0,0.0,0.0,0.0,0.0,0.0,0.0,0.0,0.0,0.0,0.0,0.0,0.0,0.0,0.0,0.0,0.0,0.0,0.0,0.0,0.0,0.0,0.0,0.0,0.0,0.0,0.0,0.0,0.0,0.0,0.0,0.0,0.0,0.0,0.0,0.0,-1.8018,-2.0378,-2.1792,-2.2537,-2.2524,-2.0139,-1.7828,0.0,0.0,0.0,0.0,0.0,0.0,0.0,0.0,0.0,0.0,0.0,0.0,0.0,0.0,0.0,0.0,0.0,0.0,0.0,0.0,0.0,0.0,0.0,0.0,0.0,0.0,0.0,0.0,0.0,0.0,0.0,0.0,0.0,0.0,0.0,0.0,0.0,0.0,0.0,0.0,0.0,0.0,0.0,0.0,0.0,0.0,0.0,0.0,0.0,0.0,0.0,0.0,0.0,0.0,0.0,0.0,0.0,0.0,0.0,0.0,0.0,0.0,0.0,0.0,0.0,0.0,0.0,0.0,0.0,0.0,0.0,0.0,0.0,0.0,0.0,0.0,0.0,0.0,0.0,0.0,0.0,0.0,0.0,0.0,0.0,0.0,0.0,0.0,0.0,0.0,0.0,0.0,0.0,0.0,0.0,0.0,0.0,0.0,0.0,0.0,0.0,0.0,0.0,0.0,0.0,0.0,0.0,0.0,-1.9198,-2.1453,-2.3201,-2.4096,-2.4042,-2.228,-1.9754,0.0,0.0,0.0,0.0,0.0,0.0,0.0,0.0,0.0,0.0,0.0,0.0,0.0,0.0,0.0,0.0,0.0,0.0,0.0,0.0,0.0,0.0,0.0,0.0,0.0,0.0,0.0,0.0,0.0,0.0,0.0,0.0,0.0,0.0,0.0,0.0,0.0,0.0,0.0,0.0,0.0,0.0,0.0,0.0,0.0,0.0,0.0,0.0,0.0,0.0,0.0,0.0,0.0,0.0,0.0,0.0,0.0,0.0,0.0,0.0,0.0,0.0,0.0,0.0,0.0,0.0,0.0,0.0,0.0,0.0,0.0,0.0,0.0,0.0,0.0,0.0,0.0,0.0,0.0,0.0,0.0,0.0,0.0,0.0,0.0,0.0,0.0,0.0,0.0,0.0,0.0,0.0,0.0,0.0,0.0,0.0,0.0,0.0,0.0,0.0,0.0,0.0,0.0,0.0,0.0,0.0,0.0,0.0,-2.0229,-2.2088,-2.3405,-2.4096,-2.4082,-2.1887,-1.9691,0.0,0.0,0.0,0.0,0.0,0.0,0.0,0.0,0.0,0.0,0.0,0.0,0.0,0.0,0.0,0.0,0.0,0.0,0.0,0.0,0.0,0.0,0.0,0.0,0.0,0.0,0.0,0.0,0.0,0.0,0.0,0.0,0.0,0.0,0.0,0.0,0.0,0.0,0.0,0.0,0.0,0.0,0.0,0.0,0.0,0.0,0.0,0.0,-1.0082,0.0,0.0,0.0,0.0,0.0,0.0,0.0,0.0,0.0,0.0,0.0,0.0,0.0,0.0,0.0,0.0,0.0,0.0,0.0,0.0,0.0,0.0,0.0,0.0,0.0,0.0,0.0,0.0,0.0,0.0,0.0,0.0,0.0,0.0,0.0,0.0,0.0,0.0,0.0,0.0,0.0,0.0,0.0,0.0,0.0,0.0,0.0,0.0,0.0,0.0,0.0,0.0,0.0,0.0,0.0,0.0,0.0,0.0,0.0,-2.0789,-2.2278,-2.377,-2.438,-2.4055,-2.2307,-2.0406,0.0,0.0,0.0,0.0,0.0,0.0,0.0,0.0,0.0,0.0,0.0,0.0,0.0,0.0,0.0,0.0,0.0,0.0,0.0,0.0,0.0,0.0,0.0,0.0,0.0,0.0,0.0,0.0,0.0,0.0,0.0,0.0,0.0,0.0,0.0,0.0,0.0,0.0,0.0,0.0,0.0,0.0,0.0,0.0,0.0,0.0,0.0,0.0,0.0,0.0,0.0,0.0,0.0,0.0,0.0,0.0,0.0,0.0,0.0,0.0,0.0,0.0,0.0,0.0,0.0,0.0,0.0,0.0,0.0,0.0,0.0,0.0,0.0,0.0,0.0,0.0,0.0,0.0,0.0,0.0,0.0,0.0,0.0,0.0,0.0,0.0,0.0,0.0,0.0,0.0,0.0,0.0,0.0,0.0,0.0,0.0,0.0,0.0,0.0,0.0,0.0,0.0,0.0,0.0,0.0,0.0,0.0,-1.8743,-2.1047,-2.2415,-2.4123,-2.472,-2.4096,-2.3038,-2.1287,-1.8867,0.0,0.0,0.0,0.0,0.0,0.0,0.0,0.0,0.0,0.0,0.0,0.0,0.0,0.0,0.0,0.0,0.0,0.0,0.0,0.0,0.0,0.0,0.0,0.0,0.0,0.0,0.0,0.0,0.0,0.0,0.0,0.0,0.0,0.0,0.0,0.0,0.0,0.0,-0.9131,-1.0702,0.0,0.0,0.0,0.0,0.0,0.0,0.0,0.0,-1.2433,0.0,0.0,0.0,0.0,0.0,0.0,0.0,0.0,0.0,0.0,0.0,0.0,0.0,0.0,0.0,0.0,0.0,0.0,0.0,0.0,0.0,0.0,0.0,0.0,0.0,0.0,0.0,0.0,0.0,0.0,0.0,0.0,0.0,0.0,0.0,0.0,0.0,0.0,0.0,0.0,0.0,0.0,0.0,0.0,0.0,0.0,0.0,0.0,0.0,0.0,0.0,0.0,0.0,0.0,0.0,0.0,-1.7413,-1.9022,-2.0894,-2.2986,-2.434,-2.4706,-2.4109,-2.3418,-2.1722,-1.8901,0.0,0.0,0.0,0.0,0.0,0.0,0.0,0.0,0.0,0.0,0.0,0.0,0.0,0.0,0.0,0.0,0.0,0.0,0.0,0.0,0.0,0.0,0.0,0.0,0.0,0.0,0.0,0.0,0.0,0.0,0.0,0.0,0.0,0.0,0.0,0.0,0.0,0.0,0.0,-1.3152,-1.4354,0.0,0.0,0.0,0.0,0.0,0.0,0.0,0.0,-1.3284,0.0,0.0,0.0,0.0,0.0,0.0,0.0,0.0,0.0,0.0,0.0,0.0,0.0,0.0,0.0,0.0,0.0,0.0,0.0,0.0,0.0,0.0,0.0,0.0,0.0,0.0,0.0,0.0,0.0,0.0,0.0,0.0,0.0,0.0,0.0,0.0,0.0,0.0,0.0,0.0,0.0,0.0,0.0,0.0,0.0,0.0,0.0,0.0,0.0,0.0,0.0,0.0,0.0,0.0,0.0,-1.6878,-1.9347,-2.1426,-2.3161,-2.4394,-2.4571,-2.3649,-2.2754,-2.1043,0.0,0.0,0.0,0.0,0.0,0.0,0.0,0.0,0.0,0.0,0.0,0.0,0.0,0.0,0.0,0.0,0.0,0.0,0.0,0.0,0.0,0.0,0.0,0.0,0.0,0.0,0.0,0.0,0.0,0.0,0.0,0.0,0.0,0.0,0.0,0.0,0.0,0.0,0.0,0.0,-1.3936,-1.4816,-1.5833,0.0,0.0,0.0,0.0,0.0,0.0,-1.4487,-1.4004,0.0,0.0,0.0,0.0,0.0,0.0,0.0,0.0,0.0,0.0,0.0,0.0,0.0,0.0,0.0,0.0,0.0,0.0,0.0,0.0,0.0,0.0,0.0,0.0,0.0,0.0,0.0,0.0,0.0,0.0,0.0,0.0,0.0,0.0,0.0,0.0,0.0,0.0,0.0,0.0,0.0,0.0,0.0,0.0,0.0,0.0,0.0,0.0,0.0,0.0,0.0,0.0,0.0,0.0,0.0,-1.61,-1.9366,-2.1751,-2.3174,-2.4367,-2.4407,-2.3216,-2.2158,-2.0378,0.0,0.0,0.0,0.0,0.0,0.0,0.0,0.0,0.0,0.0,0.0,0.0,0.0,0.0,0.0,0.0,0.0,0.0,0.0,0.0,0.0,0.0,0.0,0.0,0.0,0.0,0.0,0.0,0.0,0.0,0.0,0.0,0.0,0.0,0.0,0.0,0.0,0.0,0.0,0.0,0.0,-1.5314,-1.6707,-1.5384,0.0,0.0,0.0,0.0,-1.5708,-1.5466,0.0,0.0,0.0,0.0,0.0,0.0,0.0,0.0,0.0,0.0,0.0,0.0,0.0,0.0,0.0,0.0,0.0,0.0,0.0,0.0,0.0,0.0,0.0,0.0,0.0,0.0,0.0,0.0,0.0,0.0,0.0,0.0,0.0,0.0,0.0,0.0,0.0,0.0,0.0,0.0,0.0,0.0,0.0,0.0,0.0,0.0,0.0,0.0,0.0,0.0,0.0,0.0,0.0,0.0,0.0,0.0,-1.6032,-1.8615,-2.0952,-2.3134,-2.4394,-2.4435,-2.3242,-2.2537,-2.0595,0.0,0.0,0.0,0.0,0.0,0.0,0.0,0.0,0.0,0.0,0.0,0.0,0.0,0.0,0.0,0.0,0.0,0.0,0.0,0.0,0.0,0.0,0.0,0.0,0.0,0.0,0.0,0.0,0.0,0.0,0.0,0.0,0.0,0.0,0.0,0.0,0.0,0.0,0.0,0.0,0.0,-1.701,-1.6769,-1.6498,-1.6372,0.0,0.0,-1.7017,-1.6707,-1.7578,0.0,0.0,0.0,0.0,0.0,0.0,0.0,0.0,0.0,0.0,0.0,0.0,0.0,0.0,0.0,0.0,0.0,0.0,0.0,0.0,0.0,0.0,0.0,0.0,0.0,0.0,0.0,0.0,0.0,0.0,0.0,0.0,0.0,0.0,0.0,0.0,0.0,0.0,0.0,0.0,0.0,0.0,0.0,0.0,0.0,0.0,0.0,0.0,0.0,0.0,0.0,0.0,0.0,0.0,0.0,-1.3173,-1.6073,-1.877,-2.1141,-2.3134,-2.3716,-2.373,-2.3228,-2.1681,-1.9619,0.0,0.0,0.0,0.0,0.0,0.0,0.0,0.0,0.0,0.0,0.0,0.0,0.0,0.0,0.0,0.0,0.0,0.0,0.0,0.0,0.0,0.0,0.0,0.0,0.0,0.0,0.0,0.0,0.0,0.0,0.0,0.0,0.0,0.0,0.0,0.0,0.0,0.0,0.0,0.0,0.0,0.0,-1.7692,-1.7505,0.0,0.0,0.0,-1.7841,-1.8368,0.0,0.0,0.0,0.0,0.0,0.0,0.0,0.0,0.0,0.0,0.0,0.0,0.0,0.0,0.0,0.0,0.0,0.0,0.0,0.0,0.0,0.0,0.0,0.0,0.0,0.0,0.0,0.0,0.0,0.0,0.0,0.0,0.0,0.0,0.0,0.0,0.0,0.0,0.0,0.0,0.0,0.0,0.0,0.0,0.0,0.0,0.0,0.0,0.0,0.0,0.0,0.0,0.0,0.0,0.0,0.0,0.0,-1.6303,-1.906,-2.1318,-2.2917,-2.3134,-2.3147,-2.2944,-2.0965,0.0,0.0,0.0,0.0,0.0,0.0,0.0,0.0,0.0,0.0,0.0,0.0,0.0,0.0,0.0,0.0,0.0,0.0,0.0,0.0,0.0,0.0,0.0,0.0,0.0,0.0,0.0,-0.7189,0.0,0.0,0.0,0.0,0.0,0.0,0.0,0.0,0.0,0.0,0.0,0.0,0.0,0.0,-1.7424,-1.825,-1.8252,-1.8523,0.0,0.0,-1.8631,-1.9374,-1.8954,-1.8194,0.0,0.0,0.0,0.0,0.0,0.0,0.0,0.0,0.0,0.0,0.0,0.0,0.0,0.0,0.0,0.0,0.0,0.0,0.0,0.0,0.0,0.0,0.0,0.0,0.0,0.0,0.0,0.0,0.0,0.0,0.0,0.0,0.0,0.0,0.0,0.0,0.0,0.0,0.0,0.0,0.0,0.0,0.0,0.0,0.0,0.0,0.0,0.0,0.0,0.0,0.0,0.0,0.0,0.0,0.0,-1.6905,-1.9285,-2.1101,-2.2332,-2.2917,-2.293,-2.2373,-2.1114,-1.9087,0.0,0.0,0.0,0.0,0.0,0.0,0.0,0.0,0.0,0.0,0.0,0.0,0.0,0.0,0.0,0.0,0.0,0.0,0.0,0.0,0.0,0.0,0.0,0.0,0.0,0.0,0.0,0.0,0.0,0.0,0.0,0.0,0.0,0.0,0.0,0.0,0.0,0.0,0.0,0.0,0.0,-1.8166,-1.78,-1.8682,-1.9467,0.0,0.0,-1.9899,-1.9016,-1.97,-1.9569,-1.7366,0.0,0.0,0.0,0.0,0.0,0.0,0.0,0.0,0.0,0.0,0.0,0.0,0.0,0.0,0.0,0.0,0.0,0.0,0.0,0.0,0.0,0.0,0.0,0.0,0.0,0.0,0.0,0.0,0.0,0.0,0.0,0.0,0.0,0.0,0.0,0.0,0.0,0.0,0.0,0.0,0.0,0.0,0.0,0.0,0.0,0.0,0.0,0.0,0.0,0.0,0.0,0.0,0.0,-1.3986,-1.6959,-1.8973,-2.0758,-2.2224,-2.2171,-2.2158,-2.2305,-2.0826,-1.913,0.0,0.0,0.0,0.0,0.0,0.0,0.0,0.0,0.0,0.0,0.0,0.0,0.0,0.0,0.0,0.0,0.0,0.0,0.0,0.0,0.0,0.0,0.0,0.0,0.0,0.0,0.0,0.0,-0.8728,-0.8941,-0.8564,0.0,0.0,0.0,0.0,0.0,0.0,0.0,0.0,0.0,0.0,-1.8712,-1.9274,-1.9791,0.0,0.0,-2.0901,-2.0887,-2.0473,-2.0473,-1.9949,-1.8364,-1.7285,0.0,0.0,0.0,0.0,0.0,0.0,0.0,0.0,0.0,0.0,0.0,0.0,0.0,0.0,0.0,0.0,0.0,0.0,0.0,0.0,0.0,0.0,0.0,0.0,0.0,0.0,0.0,0.0,0.0,0.0,0.0,0.0,0.0,0.0,0.0,0.0,0.0,0.0,0.0,0.0,0.0,0.0,0.0,0.0,0.0,0.0,0.0,0.0,0.0,0.0,0.0,0.0,-1.4081,-1.7231,-1.8859,-2.046,-2.202,-2.1602,-2.1602,-2.1993,-2.069,-1.9307,0.0,0.0,0.0,0.0,0.0,0.0,0.0,0.0,0.0,0.0,0.0,0.0,0.0,0.0,0.0,0.0,0.0,0.0,0.0,0.0,0.0,0.0,0.0,0.0,0.0,0.0,0.0,0.0,-0.9223,-0.9328,-0.8869,0.0,0.0,0.0,0.0,0.0,0.0,0.0,0.0,0.0,0.0,-1.9458,-2.0303,-2.0607,-2.0992,-2.1562,-2.1507,-2.1385,-2.1385,-2.1047,-2.0382,-1.9247,0.0,0.0,0.0,0.0,0.0,0.0,0.0,0.0,0.0,0.0,0.0,0.0,0.0,0.0,0.0,0.0,0.0,0.0,0.0,0.0,0.0,0.0,0.0,0.0,0.0,0.0,0.0,-0.8023,0.0,0.0,-0.7476,0.0,0.0,0.0,0.0,0.0,0.0,0.0,0.0,0.0,0.0,0.0,0.0,0.0,0.0,0.0,0.0,0.0,0.0,0.0,0.0,0.0,0.0,-1.43,-1.7834,-1.9111,-2.0283,-2.1385,-2.1399,-2.1399,-2.1399,-2.0793,-1.9664,-1.7929,0.0,0.0,0.0,0.0,0.0,0.0,0.0,0.0,0.0,0.0,0.0,0.0,0.0,0.0,0.0,0.0,0.0,0.0,0.0,0.0,0.0,0.0,0.0,0.0,0.0,0.0,-0.8873,-0.8866,-0.8845,0.0,0.0,0.0,0.0,0.0,0.0,0.0,0.0,0.0,0.0,-1.8892,-2.0398,-2.0522,-2.1019,-2.1589,-2.221,-2.1792,-2.1426,-2.144,-2.1399,-2.0979,0.0,0.0,0.0,0.0,0.0,0.0,0.0,0.0,0.0,0.0,0.0,0.0,0.0,0.0,0.0,0.0,0.0,0.0,0.0,0.0,0.0,0.0,0.0,0.0,0.0,0.0,0.0,-1.1959,-1.1314,0.0,0.0,0.0,0.0,0.0,0.0,0.0,0.0,0.0,0.0,0.0,-1.794,-1.8594,0.0,0.0,0.0,0.0,0.0,0.0,0.0,0.0,0.0,0.0,0.0,0.0,-1.5277,-1.8364,-1.9646,-2.0613,-2.1358,-2.1385,-2.1385,-2.1385,-2.0816,-1.9488,-1.7386,0.0,0.0,0.0,0.0,0.0,0.0,0.0,0.0,0.0,0.0,0.0,0.0,0.0,0.0,0.0,0.0,0.0,0.0,0.0,0.0,0.0,0.0,0.0,0.0,0.0,-0.8843,0.0,0.0,0.0,0.0,0.0,0.0,0.0,0.0,0.0,0.0,0.0,-1.8298,-1.9187,-2.0332,-2.1226,-2.1629,-2.1884,-2.2224,0.0,0.0,0.0,0.0,0.0,0.0,0.0,0.0,0.0,0.0,0.0,0.0,0.0,0.0,-1.964,-1.6585,-1.5685,-1.552,-1.5923,0.0,0.0,0.0,0.0,0.0,0.0,0.0,0.0,0.0,0.0,0.0,0.0,0.0,0.0,-1.4648,0.0,-1.345,0.0,0.0,0.0,0.0,0.0,0.0,0.0,0.0,-1.8484,-1.9867,-2.0432,-2.1059,-2.1056,0.0,-1.9872,-1.8098,0.0,0.0,0.0,0.0,0.0,0.0,0.0,0.0,-1.6218,-1.8725,-1.9908,-2.0789,-2.1358,-2.1385,-2.1385,-2.1385,-2.0816,-1.9663,-1.7883,-1.6927,-1.5665,0.0,0.0,0.0,0.0,0.0,0.0,0.0,0.0,0.0,0.0,0.0,0.0,0.0,0.0,0.0,0.0,0.0,0.0,0.0,0.0,0.0,0.0,0.0,-0.96,0.0,0.0,0.0,0.0,0.0,0.0,0.0,0.0,0.0,-1.6653,-1.8347,-2.0043,-2.1266,-2.1778,-2.2253,-2.2848,0.0,0.0,0.0,0.0,0.0,0.0,0.0,-2.3485,-2.3282,-2.2754,-2.2293,-2.2063,-2.251,-2.2807,-2.2386,0.0,0.0,-1.9243,-1.8358,-1.8169,-1.8553,-1.873,-1.8851,-1.9081,-1.9079,-1.9024,0.0,0.0,0.0,0.0,0.0,0.0,0.0,0.0,-1.7201,-1.713,0.0,-1.5963,0.0,0.0,0.0,0.0,0.0,-1.717,0.0,0.0,-2.1754,-2.289,-2.2414,-2.2971,-2.293,-2.2414,-2.2903,-2.2226,-2.0319,-1.6512,0.0,0.0,0.0,0.0,0.0,0.0,-1.7095,-1.888,-2.0089,-2.0908,-2.1423,-2.145,-2.1461,-2.142,-2.084,-2.0173,-1.9439,-1.8661,-1.7246,-1.5073,-1.3655,0.0,0.0,0.0,0.0,0.0,0.0,0.0,0.0,0.0,0.0,0.0,0.0,0.0,0.0,0.0,0.0,0.0,0.0,0.0,0.0,-1.0031,0.0,0.0,0.0,0.0,0.0,0.0,0.0,0.0,0.0,0.0,-1.8179,-2.0062,-2.1914,-2.3066,0.0,0.0,0.0,0.0,-2.3716,-2.4868,-2.4584,-2.4597,-2.5724,-2.5873,-2.5656,-2.5141,0.0,0.0,-2.3621,-2.3811,-2.3838,-2.2698,-2.3052,-2.3323,-2.3216,-2.2539,-2.2144,-2.2183,-2.1711,-2.1453,-2.1426,-2.1334,-2.135,-2.1202,0.0,0.0,0.0,0.0,-1.9644,-2.0514,-2.1809,-2.1529,-2.111,-2.0553,-1.9517,0.0,0.0,0.0,0.0,0.0,0.0,-2.0295,-2.1248,-2.2529,-2.3297,-2.3621,-2.4218,-2.4191,-2.3621,-2.3757,-2.312,-2.1765,-2.0595,-1.8539,-1.5752,0.0,0.0,0.0,0.0,-1.9312,-2.0673,-2.2078,-2.2619,-2.2333,-2.2516,-2.2404,-2.1973,-2.1411,-2.0745,-2.0077,-1.9697,-1.8593,-1.6703,-1.5681,0.0,0.0,0.0,0.0,0.0,0.0,0.0,0.0,0.0,0.0,0.0,0.0,0.0,0.0,0.0,0.0,0.0,0.0,0.0,-1.0031,-1.0895,-1.1627,0.0,0.0,0.0,0.0,0.0,0.0,0.0,0.0,0.0,-2.2212,-2.2876,-2.3445,0.0,0.0,-2.5046,-2.4788,-2.4964,-2.5412,-2.6169,-2.6129,0.0,-2.6497,-2.6185,-2.5982,-2.6253,-2.6413,-2.6389,-2.5858,-2.5912,-2.5912,-2.5519,-2.5641,-2.5627,-2.5141,-2.3906,-2.3025,-2.2917,-2.2795,-2.27,-2.27,-2.2686,-2.27,-2.5574,-2.46,-2.186,-2.1369,-2.2419,-2.2788,-2.3744,-2.4956,-2.4587,-2.4516,-2.4589,-2.3129,-2.1965,-2.1024,-2.0027,0.0,0.0,0.0,-2.268,-2.3703,-2.4298,-2.4786,-2.518,-2.5519,-2.5412,-2.4842,-2.4829,-2.4327,-2.3377,-2.3133,-2.183,-1.9488,0.0,0.0,-1.8756,-2.0066,-2.107,-2.1776,-2.2918,-2.3187,-2.2569,-2.247,-2.2311,-2.2044,-2.1471,-2.0954,-2.0564,-2.011,-1.9328,-1.8176,-1.715,-1.5679,0.0,0.0,0.0,0.0,0.0,0.0,0.0,0.0,0.0,0.0,0.0,-0.9598,0.0,0.0,0.0,0.0,-0.9286,-1.0516,-1.2319,-1.3228,0.0,0.0,0.0,0.0,0.0,0.0,0.0,-2.1164,-2.2728,-2.4096,-2.5059,-2.537,-2.5519,-2.5534,-2.5955,-2.6212,-2.609,0.0,-2.6484,-2.7081,-2.7131,-2.7257,-2.7443,-2.7203,-2.7094,-2.7461,-2.7528,-2.7389,-2.7172,-2.7145,-2.7064,-2.686,-2.6793,-2.6671,-2.6321,-2.5329,-2.4448,-2.4014,-2.3906,-2.392,-2.3906,-2.3906,-2.392,-2.9436,-2.958,-2.573,-2.4151,-2.4348,-2.5848,-2.6461,-2.6503,-2.6461,-2.7128,-2.8068,-2.6333,-2.5614,-2.5578,-2.3947,0.0,-2.4243,-2.4782,-2.5366,-2.5982,-2.6565,-2.6793,-2.6793,-2.6779,-2.6495,-2.5955,-2.5968,-2.5656,-2.5059,-2.4517,-2.396,-2.3376,-2.2251,-2.1602,-2.1507,-2.2115,-2.2454,-2.2505,-2.3143,-2.3155,-2.2538,-2.1926,-2.1678,-2.1819,-2.1319,-2.0976,-2.0835,-2.0157,-1.9637,-1.9328,-1.8165,-1.6866,-1.5549,0.0,0.0,0.0,0.0,0.0,0.0,0.0,0.0,0.0,0.0,0.0,0.0,0.0,0.0,0.0,-1.2007,0.0,-1.524,-1.6422,0.0,0.0,0.0,-1.9315,-2.0039,-2.1532,-2.297,-2.4096,0.0,0.0,-2.6793,-2.7375,-2.7773,-2.7786,-2.7267,-2.7149,-2.7637,-2.7271,-2.7131,-2.7705,-2.7773,-2.7963,-2.8383,-2.8465,-2.8438,-2.8465,-2.8587,-2.8343,-2.7895,-2.7786,-2.7542,-2.7104,-2.6942,-2.6928,-2.6874,-2.6779,-2.6495,-2.5358,-2.5141,-2.5154,-2.5154,-2.5154,-2.5127,-3.0296,-3.0045,-2.9558,-2.8742,-2.7732,-2.7219,-2.7252,-2.7642,-2.7216,-2.7188,-2.7393,-2.6532,-2.6196,-2.6332,-2.5926,-2.5873,-2.614,-2.6275,-2.644,-2.6576,-2.6725,-2.6793,-2.6793,-2.6793,-2.6711,-2.6576,-2.6576,-2.6294,-2.5697,-2.5534,-2.5394,-2.5229,-2.4504,-2.3458,-2.2158,-2.316,-2.3809,-2.4061,-2.5041,-2.5234,-2.4583,-2.3741,-2.2881,-2.1994,-2.2019,-2.1495,-2.0344,-2.0474,-2.0043,-1.9003,-1.891,-1.8218,-1.6694,-1.4542,0.0,0.0,0.0,0.0,0.0,0.0,0.0,0.0,0.0,-1.2903,-1.0017,0.0,-1.3893,0.0,-1.3852,-1.5294,-1.7074,-1.7508,0.0,0.0,-2.0826,-2.1559,-2.3526,-2.4109,-2.4639,-2.5385,-2.6538,-2.7325,-2.7488,-2.8017,-2.8383,-2.837,-2.8248,-2.8071,-2.7773,-2.8003,-2.822,-2.8329,-2.8356,-2.8424,-2.8546,-2.8587,-2.8587,-2.8587,-2.8587,-2.8546,-2.841,-2.8383,-2.8329,-2.8193,-2.818,-2.8017,-2.7569,-2.7501,-2.7213,-2.6535,-2.6373,-2.6359,-2.6359,-2.6345,-2.621,-3.1313,-3.1067,-3.1514,-3.1029,-2.9988,-2.9313,-2.9426,-2.9993,-2.9664,-2.9516,-2.947,-2.8267,-2.7631,-2.7498,-2.7485,-2.7516,-2.7596,-2.761,-2.761,-2.761,-2.761,-2.761,-2.7623,-2.761,-2.7474,-2.7186,-2.7186,-2.6874,-2.6335,-2.6307,-2.6185,-2.5896,-2.557,-2.4774,-2.3594,-2.4422,-2.501,-2.5173,-2.5761,-2.5886,-2.5502,-2.4436,-2.3458,-2.2498,-2.2443,-2.1745,-2.0318,-2.0677,-2.0329,-1.9191,-1.9512,-1.9123,-1.7822,-1.6211,-1.4756,0.0,0.0,0.0,0.0,0.0,0.0,0.0,0.0,0.0,0.0,0.0,-1.5942,-1.582,-1.6666,-1.8031,-2.008,-2.0731,-2.1722,-2.3336,-2.3676,-2.4326,-2.5654,-2.605,-2.643,-2.7026,-2.7678,-2.8098,-2.8112,-2.8397,-2.8587,-2.8587,-2.8587,-2.8478,-2.8207,-2.841,-2.8587,-2.8587,-2.8587,-2.8587,-2.8587,-2.8587,-2.8587,-2.8587,-2.8587,-2.8587,-2.8587,-2.8587,-2.8587,-2.8587,-2.8587,-2.8492,-2.8166,-2.8098,-2.7963,-2.7732,-2.7623,-2.7389,-2.6901,-2.6793,-2.6687,-3.2277,-3.2237,-3.2354,-3.2007,-3.139,-3.1405,-3.1707,-3.2123,-3.2266,-3.2295,-3.2257,-3.0435,-2.9269,-2.8709,-2.8806,-2.8733,-2.86,-2.867,-2.8683,-2.8587,-2.8587,-2.8587,-2.8587,-2.8587,-2.8315,-2.7827,-2.7827,-2.7515,-2.6915,-2.6901,-2.665,-2.614,-2.5986,-2.5658,-2.5282,-2.5674,-2.5975,-2.6136,-2.6026,-2.5923,-2.586,-2.4684,-2.3699,-2.3015,-2.2659,-2.1884,-2.0646,-2.0872,-2.0633,-1.9752,-1.999,-1.9821,-1.9041,-1.7754,-1.6773,0.0,-1.4746,0.0,0.0,0.0,0.0,0.0,0.0,0.0,0.0,-1.7163,-1.8133,-1.9152,-1.9885,-2.1138,-2.3256,-2.4435,-2.5181,-2.5358,-2.6264,-2.6928,-2.7023,-2.7515,-2.8017,-2.8532,-2.8587,-2.86,-2.8695,-2.8709,-2.8709,-2.8872,-2.8926,-2.8926,-2.8817,-2.8709,-2.8587,-2.8587,-2.8587,-2.8587,-2.8587,-2.8587,-2.8587,-2.8587,-2.8587,-2.8587,-2.8587,-2.8587,-2.8587,-2.8587,-2.8587,-2.8587,-2.8587,-2.8573,-2.8573,-2.8505,-2.8492,-2.8193,-2.7406,-2.7193,-2.7087,-3.2704,-3.2264,-3.2813,-3.2666,-3.2028,-3.2014,-3.1555,-3.0821,-3.1396,-3.1687,-3.1592,-3.0652,-2.9868,-2.9386,-2.9836,-2.9527,-2.8619,-2.9107,-2.9044,-2.8587,-2.8587,-2.8587,-2.8587,-2.8587,-2.8532,-2.8424,-2.8424,-2.8112,-2.7542,-2.7542,-2.7448,-2.7247,-2.6382,-2.6038,-2.6343,0.0,0.0,0.0,-2.6975,-2.6553,-2.6263,-2.5267,-2.4159,-2.3045,-2.2606,0.0,-2.0989,-2.1127,-2.1081,-2.0743,-2.0471,0.0,0.0,0.0,0.0,0.0,0.0,0.0,0.0,0.0,0.0,0.0,-1.9904,-1.9236,-1.7792,-1.9849,-2.1396,-2.164,-2.2644,-2.3635,-2.4584,-2.5303,-2.6117,-2.7081,-2.7406,-2.7718,-2.8193,-2.8356,-2.8478,-2.8573,-2.8587,-2.879,-2.9211,-2.9339,-2.9496,-2.9916,-3.0066,-3.0066,-3.0025,-2.9224,-2.8641,-2.8587,-2.8614,-2.8587,-2.8587,-2.8587,-2.8587,-2.8587,-2.8587,-2.8587,-2.8587,-2.8587,-2.8587,-2.8587,-2.8587,-2.8587,-2.8587,-2.8587,-2.8587,-2.8587,-2.8587,-2.8532,-2.8302,-2.8456,-2.8536,-3.2503,0.0,-3.2925,-3.2797,0.0,-3.2525,-3.216,-3.1393,-3.243,-3.2914,-3.289,-3.1536,-3.0962,-3.0974,-3.0646,-3.0191,-2.9578,-2.9228,-2.8912,-2.8619,-2.8587,-2.8587,-2.8587,-2.8587,-2.8587,-2.8587,-2.8587,-2.8438,-2.8153,-2.8139,-2.797,-2.7644,-2.707,-2.6619,-2.6323,-2.642,-2.6927,-2.779,-2.7755,-2.7678,-2.7555,-2.6728,-2.5605,-2.4258,-2.4112,0.0,0.0,0.0,0.0,0.0,0.0,0.0,0.0,0.0,0.0,-1.9613,-1.9127,-1.891,-1.9063,-1.9417,-2.0219,-2.1585,-2.2303,-2.2049,-2.0634,-2.1906,-2.3011,-2.3594,-2.4218,-2.5046,-2.6212,-2.6619,-2.7149,-2.8017,-2.8139,-2.8275,-2.8519,-2.8587,-2.8587,-2.8627,-2.8845,-2.9157,-2.9475,-2.9767,-3.0052,-3.0351,-3.0405,-3.0432,-3.0364,-2.9903,-2.9414,-2.9062,-2.875,-2.8587,-2.8587,-2.8587,-2.86,-2.8587,-2.8587,-2.8587,-2.8587,-2.8587,-2.8587,-2.8587,-2.8587,-2.8587,-2.8587,-2.8587,-2.8587,-2.8587,-2.8587,-2.8651,-2.878,-2.8876,-2.8776,-3.2205,-3.2241,-3.2797,-3.2704,-3.2241,-3.2797,-3.2761,-3.2431,0.0,0.0,0.0,-3.2411,-3.1881,-3.2202,-3.1314,-3.0773,-3.0485,-2.9417,-2.8879,-2.875,-2.8641,-2.8587,-2.8587,-2.8587,-2.8587,-2.8587,-2.8587,-2.8587,-2.8587,-2.8587,-2.8343,-2.7881,-2.779,-2.7186,-2.619,-2.6818,-2.7365,-2.7695,-2.8213,-2.8573,-2.8645,-2.7961,-2.6993,-2.5725,-2.568,-2.4798,-2.3035,-2.3493,-2.3101,-2.1612,-2.2132,-2.2102,-2.1296,-2.185,-2.2229,-2.2286,-2.2409,-2.2366,-2.2174,-2.2363,-2.2688,-2.3077,-2.4089,-2.4329,-2.3431,-2.3543,-2.4082,-2.5086,-2.5358,-2.6104,-2.7556,-2.7813,-2.8058,-2.8546,-2.8587,-2.8587,-2.8587,-2.8587,-2.8641,-2.8796,-2.9184,-2.9624,-2.9869,-3.0256,-3.0608,-3.0717,-3.0812,-3.073,-3.069,-3.0513,-3.0133,-2.9699,-2.9333,-2.898,-2.894,-2.8994,-2.8885,-2.8831,-2.8777,-2.8722,-2.8614,-2.8587,-2.8587,-2.8587,-2.8587,-2.8587,-2.8587,-2.8651,-2.8683,-2.8683,-2.8748,-2.8844,-2.9035,-2.894,-2.883,-3.2205,-3.2205,-3.2314,-3.2277,-3.2205,-3.2314,-3.2596,-3.303,-3.2682,-3.2826,-3.3316,-3.2496,-3.1889,-3.1487,-3.1845,-3.141,-3.0446,-3.0219,-2.9845,-2.9352,-2.8817,-2.8587,-2.8587,-2.8587,-2.8587,-2.8587,-2.8587,-2.8587,-2.8587,-2.8619,-2.8532,-2.8442,-2.8246,-2.764,-2.6806,-2.7305,-2.7577,-2.753,-2.7953,-2.8174,-2.8198,-2.7539,-2.7102,-2.6826,-2.5748,-2.4997,-2.4658,-2.4092,-2.3711,-2.3491,-2.3067,-2.2943,-2.315,-2.233,-2.1944,-2.2298,-2.284,-2.3389,-2.3912,-2.4472,-2.536,-2.6541,-2.6892,-2.615,-2.4229,-2.4953,-2.5588,-2.5792,-2.669,-2.7406,-2.7732,-2.8153,-2.8465,-2.8573,-2.8587,-2.8587,-2.86,-2.8614,-2.8804,-2.9285,-2.9448,-2.9977,-3.0771,-3.1083,-3.1355,-3.1762,-3.1734,-3.1884,-3.1667,-3.1042,-3.0446,-3.031,-3.0215,-3.0147,-3.0025,-3.0133,-2.9862,-2.9461,-2.9393,-2.9197,-2.8768,-2.8668,-2.8673,-2.8619,-2.8619,-2.8619,-2.8619,-2.8844,-2.9004,-2.9035,-2.9226,-2.9352,-2.9226,-2.932,-2.954,-3.2205,-3.2205,-3.2205,-3.2205,-3.2205,-3.2596,-3.3136,-3.3754,-3.3485,-3.3506,-3.3699,-3.3066,-3.2821,-3.2875,-3.2455,-3.1969,-3.1405,-3.0378,-2.9786,-2.9461,-2.8872,-2.8587,-2.8587,-2.8587,-2.8587,-2.8619,-2.8931,-2.8944,-2.8651,-2.9103,-2.9184,-2.8899,-2.8865,-2.8753,-2.8553,-2.8485,-2.8441,-2.8354,-2.8308,-2.8398,-2.8622,-2.835,-2.8008,-2.7673,-2.6969,-2.6446,-2.602,-2.5257,-2.48,-2.4764,-2.44,-2.4311,-2.4498,-2.4351,-2.4319,-2.4466,-2.4779,-2.5087,-2.5358,-2.572,-2.6253,-2.6956,-2.7033,-2.6811,-2.6112,-2.6204,-2.6628,-2.7322,-2.7639,-2.7841,-2.8153,-2.847,-2.8587,-2.8587,-2.8587,-2.8587,-2.8627,-2.8899,-2.9203,-2.9529,-3.01,-3.0676,-3.1219,-3.1572,-3.1829,-3.2178,-3.2218,-3.2205,-3.2205,-3.1757,-3.1268,-3.0948,-3.0622,-3.0418,-3.0418,-3.0405,-3.0283,-3.0011,-2.9984,-2.9726,-2.9211,-2.9108,-2.9024,-2.8912,-2.8876,-2.894,-2.9067,-2.9257,-2.9352,-2.9383,-2.9477,-2.9554,-2.9648,-2.9913,-3.0066,-3.2444,-3.2444,-3.261,-3.2682,-3.2717,-3.3227,-3.3802,-3.4279,-3.4279,-3.4312,-3.4211,-3.3699,-3.3754,-3.4153,-3.3186,-3.2749,-3.2492,-3.0934,-3.0062,-2.9884,-2.916,-2.8736,-2.8633,-2.8734,-2.8785,-2.8881,-2.9439,-2.9501,-2.9166,-2.978,-2.9981,-2.9659,-2.9779,-2.9972,-3.0207,-2.9777,-2.9419,-2.9204,-2.8867,-2.8793,-2.9091,-2.9114,-2.8846,-2.8379,-2.8158,-2.7813,-2.7174,-2.6434,-2.593,-2.5802,-2.5694,-2.5614,-2.5601,-2.611,-2.638,-2.6349,-2.6503,-2.6672,-2.675,-2.6881,-2.6966,-2.7063,-2.7255,-2.7594,-2.8145,-2.7707,-2.7725,-2.863,-2.8424,-2.8337,-2.8707,-2.867,-2.8587,-2.8587,-2.8587,-2.8587,-2.8641,-2.9116,-2.9683,-2.9941,-3.0897,-3.1638,-3.1963,-3.2378,-3.2712,-3.2761,-3.2682,-3.2682,-3.2682,-3.2668,-3.2461,-3.2005,-3.1328,-3.0893,-3.0798,-3.0999,-3.1048,-3.0877,-3.1013,-3.0792,-3.027,-2.9876,-2.9564,-2.932,-2.9118,-2.9145,-2.9415,-2.9634,-2.9758,-2.9867,-3.0021,-3.0127,-3.0341,-3.0341,-3.0401,-3.3087,-3.3227,-3.3748,-3.4109,-3.4075,-3.4177,-3.4279,-3.4346,-3.4312,-3.4312,-3.4365,-3.4245,-3.4245,-3.4264,-3.4124,-3.4047,-3.3936,-3.2665,-3.1755,-3.117,-2.9992,-2.9149,-2.8743,-2.9156,-2.9425,-2.9518,-3.0086,-3.0359,-3.0238,-3.0495,-3.0808,-3.113,-3.1216,-3.1087,-3.0925,-3.0852,-3.0398,-2.9562,-2.9534,-2.9363,-2.9138,-2.9114,-2.9082,-2.9019,-2.841,-2.8063,-2.7962,-2.7346,-2.6902,-2.6779,-2.6648,-2.6523,-2.6421,-2.6409,-2.6411,-2.6464,-2.6965,-2.7565,-2.8119,-2.8225,-2.8183,-2.8266,-2.8752,-2.9338,-2.9983,-2.9579,-2.9305,-2.9522,-2.9432,-2.9296,-2.938,-2.8962,-2.8702,-2.8683,-2.8757,-2.8587,-2.8806,-2.9116,-2.9939,-3.1203,-3.1923,-3.2724,-3.3593,-3.3896,-3.4007,-3.3885,-3.3851,-3.3851,-3.3885,-3.3871,-3.3905,-3.3682,-3.2884,-3.2154,-3.2099,-3.2546,-3.2563,-3.226,-3.2654,-3.2416,-3.1603,-3.0891,-3.0335,-3.0002,-2.949,-2.9449,-2.9477,-2.9602,-3.0249,-3.0598,-3.0881,-3.1117,-3.1117,-3.0762,-3.0401,-3.296,-3.2668,-3.3353,-3.4177,-3.4879,-3.496,-3.5204,-3.5608,-3.5608,-3.5608,-3.5608,-3.5593,-3.5124,-3.4312,-3.4312,-3.4312,-3.4235,-3.336,-3.261,-3.1994,-3.1077,-3.034,-2.9806,-2.9964,-3.0117,-3.0178,-3.0852,-3.1014,-3.0733,-3.0955,-3.1448,-3.2059,-3.2102,-3.2185,-3.2291,-3.1971,-3.1566,-3.1171,-3.0371,-2.9879,-2.9714,-2.9343,-2.9114,-2.9082,-2.8814,-2.8649,-2.8525,-2.792,-2.7702,-2.7927,-2.7508,-2.7386,-2.7721,-2.7635,-2.758,-2.7596,-2.7842,-2.8119,-2.8381,-2.8411,-2.8556,-2.8965,-2.9218,-2.9858,-3.0874,-3.0755,-3.0794,-3.1072,-3.0216,-2.9518,-2.9549,-2.9625,-2.9577,-2.9352,-2.9838,-3.0284,-3.0329,-3.1179,-3.208,-3.2629,-3.3159,-3.3671,-3.4153,-3.4312,-3.4312,-3.4312,-3.4312,-3.438,-3.4312,-3.4312,-3.4312,-3.4245,-3.3782,-3.3506,-3.3437,-3.3644,-3.3693,-3.3604,-3.3734,-3.3537,-3.2893,-3.2475,-3.1994,-3.1122,-3.0891,-3.0747,-3.0747,-3.0866,-3.1263,-3.1465,-3.1493,-3.1667,-3.1667,-3.1408,-3.1204,-3.3541,-3.3185,-3.3596,-3.4547,-3.5705,-3.5705,-3.6022,-3.646,-3.6492,-3.6492,-3.6492,-3.6492,-3.5911,-3.4978,-3.4894,-3.4879,-3.4835,-3.4229,-3.3607,-3.2928,-3.2319,-3.1569,-3.0858,-3.1011,-3.0998,-3.097,-3.1637,-3.1807,-3.1435,-3.1664,-3.2185,-3.2711,-3.2792,-3.2958,-3.3219,-3.2797,-3.2465,-3.2212,-3.1248,-3.0599,-3.0204,-2.9674,-2.9304,-2.913,-2.9114,-2.9052,-2.8967,-2.8463,-2.8418,-2.8779,-2.8272,-2.8155,-2.855,-2.8517,-2.842,-2.8411,-2.8411,-2.8411,-2.8411,-2.8581,-2.8889,-2.9341,-2.9704,-3.0335,-3.1182,-3.1401,-3.1723,-3.2136,-3.097,-3.0088,-3.0088,-3.0329,-3.0326,-3.0116,-3.1005,-3.1542,-3.1758,-3.2762,-3.3391,-3.3706,-3.4193,-3.4714,-3.4846,-3.496,-3.5026,-3.4993,-3.496,-3.4894,-3.4912,-3.4993,-3.5011,-3.4912,-3.496,-3.4747,-3.4432,-3.448,-3.4547,-3.4681,-3.4736,-3.4753,-3.4068,-3.3885,-3.3492,-3.2492,-3.2549,-3.2303,-3.1812,-3.1925,-3.2114,-3.2107,-3.2089,-3.2089,-3.2104,-3.1992,-3.1766,-3.5287,-3.5222,-3.5255,-3.5657,-3.6429,-3.6429,-3.6429,-3.6492,-3.6492,-3.6492,-3.6492,-3.6492,-3.646,-3.632,-3.6242,-3.6352,-3.6242,-3.558,-3.4919,-3.4321,-3.3645,-3.2664,-3.1575,-3.2244,-3.2268,-3.1799,-3.2385,-3.2784,-3.2893,-3.2989,-3.3096,-3.324,-3.3214,-3.324,-3.3293,-3.323,-3.2929,-3.2402,-3.2149,-3.1532,-3.0394,-3.0172,-2.9769,-2.9177,-2.9114,-2.9098,-2.9075,-2.9067,-2.8982,-2.8897,-2.8834,-2.8756,-2.8621,-2.8597,-2.8541,-2.842,-2.8451,-2.8427,-2.8543,-2.9052,-2.9427,-2.9612,-3.0587,-3.1316,-3.1501,-3.1594,-3.1858,-3.2342,-3.1794,-3.1349,-3.138,-3.0999,-3.0877,-3.1309,-3.15,-3.1942,-3.2497,-3.3296,-3.3715,-3.4373,-3.5026,-3.5531,-3.6226,-3.6429,-3.6242,-3.6242,-3.6305,-3.6289,-3.6179,-3.6367,-3.6367,-3.6305,-3.6258,-3.6054,-3.478,-3.4945,-3.5335,-3.5432,-3.5689,-3.6054,-3.5478,-3.4857,-3.4292,-3.3826,-3.3647,-3.3306,-3.278,-3.2593,-3.2675,-3.2672,-3.2578,-3.2574,-3.2574,-3.2188,-3.1992,-3.54,-3.54,-3.54,-3.5816,-3.646,-3.6492,-3.6492,-3.6492,-3.6492,-3.6492,-3.6492,-3.6492,-3.6492,-3.6492,-3.6492,-3.6492,-3.646,-3.6226,-3.575,-3.5171,-3.4848,-3.4272,-3.3501,-3.3398,-3.322,-3.3044,-3.3018,-3.3112,-3.3229,-3.3229,-3.324,-3.3266,-3.3293,-3.3293,-3.3293,-3.3293,-3.3151,-3.294,-3.2544,-3.1817,-3.0891,-3.0441,-2.9848,-2.9161,-2.9114,-2.9114,-2.9114,-2.9114,-2.9075,-2.9036,-2.8928,-2.8858,-2.8779,-2.8755,-2.8723,-2.8683,-2.9064,-2.9282,-2.9375,-2.9909,-3.0483,-3.0918,-3.1394,-3.1911,-3.2284,-3.2372,-3.2484,-3.2621,-3.2539,-3.2524,-3.2775,-3.2251,-3.1821,-3.2169,-3.2916,-3.3638,-3.4332,-3.4982,-3.5484,-3.5765,-3.5994,-3.6227,-3.6414,-3.6569,-3.6569,-3.6523,-3.6677,-3.6693,-3.6585,-3.6708,-3.6831,-3.6708,-3.677,-3.6662,-3.6086,-3.5928,-3.6133,-3.6227,-3.643,-3.6461,-3.6089,-3.5981,-3.5566,-3.5094,-3.4836,-3.4422,-3.3923,-3.3095,-3.317,-3.3037,-3.2969,-3.2942,-3.3038,-3.2699,-3.252,-3.5784,-3.5769,-3.5737,-3.6038,-3.646,-3.6492,-3.6492,-3.6492,-3.6492,-3.6492,-3.6492,-3.6492,-3.6492,-3.6492,-3.6492,-3.6492,-3.6492,-3.6492,-3.6245,-3.5876,-3.5875,-3.5535,-3.4946,-3.4612,-3.426,-3.382,-3.3372,-3.3203,-3.3282,-3.3293,-3.3293,-3.3293,-3.3293,-3.3293,-3.3293,-3.3293,-3.3293,-3.3198,-3.2845,-3.2291,-3.1586,-3.1112,-3.0512,-2.9856,-2.9556,-2.9335,-2.913,-2.9114,-2.9114,-2.9091,-2.899,-2.8928,-2.8897,-2.9037,-2.9122,-2.9208,-2.9746,-3.0129,-3.0208,-3.077,-3.1321,-3.1748,-3.207,-3.2429,-3.2866,-3.2912,-3.2912,-3.2912,-3.2912,-3.3178,-3.3599,-3.3249,-3.3062,-3.357,-3.4447,-3.5254,-3.5874,-3.6368,-3.6569,-3.6585,-3.6631,-3.6647,-3.6693,-3.6739,-3.6739,-3.6677,-3.6893,-3.6877,-3.6754,-3.6862,-3.6984,-3.6862,-3.6908,-3.6908,-3.66,-3.6476,-3.6399,-3.6492,-3.6616,-3.6693,-3.6754,-3.6785,-3.6676,-3.6316,-3.5939,-3.5569,-3.4883,-3.3923,-3.3503,-3.3372,-3.324,-3.3145,-3.3214,-3.3266,-3.3011,-3.646,-3.6429,-3.6492,-3.646,-3.6492,-3.6492,-3.6492,-3.6492,-3.6492,-3.6492,-3.6492,-3.6492,-3.6492,-3.6492,-3.6492,-3.6492,-3.6492,-3.6523,-3.6492,-3.643,-3.6554,-3.6275,-3.5716,-3.5749,-3.5109,-3.4007,-3.3529,-3.3309,-3.3293,-3.3293,-3.3293,-3.3293,-3.3293,-3.3293,-3.3293,-3.3293,-3.3293,-3.3277,-3.3214,-3.2898,-3.237,-3.2133,-3.1729,-3.1097,-3.0496,-2.9911,-2.9256,-2.9161,-2.9114,-2.9114,-2.9146,-2.9045,-2.9171,-2.957,-2.9842,-2.9935,-3.0442,-3.0785,-3.0894,-3.1456,-3.1862,-3.2034,-3.2491,-3.2873,-3.292,-3.2939,-3.2924,-3.2951,-3.3018,-3.3267,-3.3873,-3.4032,-3.4413,-3.5673,-3.5786,-3.6082,-3.6719,-3.6953,-3.6969,-3.6969,-3.6938,-3.6969,-3.6969,-3.6969,-3.6969,-3.6938,-3.6999,-3.703,-3.6984,-3.7105,-3.7119,-3.7044,-3.706,-3.709,-3.6969,-3.6847,-3.6662,-3.6569,-3.6723,-3.6816,-3.6877,-3.6907,-3.6998,-3.6731,-3.6509,-3.6137,-3.5518,-3.4561,-3.3783,-3.3546,-3.3451,-3.3356,-3.3293,-3.3293,-3.3293,-3.6492,-3.6492,-3.6492,-3.6492,-3.6492,-3.6492,-3.6492,-3.6492,-3.6492,-3.6492,-3.6492,-3.6492,-3.6492,-3.6492,-3.6492,-3.6492,-3.6492,-3.6569,-3.66,-3.6554,-3.6647,-3.66,-3.6319,-3.5716,-3.4801,-3.3702,-3.3393,-3.3293,-3.3293,-3.3293,-3.3293,-3.3293,-3.3293,-3.3293,-3.3293,-3.3293,-3.3293,-3.3293,-3.3293,-3.2961,-3.2355,-3.2291,-3.1959,-3.1261,-3.0986,-3.074,-3.0519,-2.9619,-2.9146,-2.9161,-2.9595,-3.003,-3.0408,-3.0667,-3.0768,-3.0831,-3.1439,-3.1832,-3.1911,-3.2421,-3.2772,-3.2861,-3.3039,-3.316,-3.3176,-3.3176,-3.315,-3.3239,-3.357,-3.4136,-3.4825,-3.5364,-3.5718,-3.5984,-3.603,-3.6311,-3.6889,-3.6999,-3.6999,-3.6999,-3.6999,-3.6999,-3.703,-3.7044,-3.7105,-3.706,-3.7197,-3.7271,-3.709,-3.7225,-3.7329,-3.718,-3.7255,-3.7255,-3.7135,-3.7075,-3.6938,-3.6846,-3.6907,-3.6952,-3.6983,-3.7059,-3.715,-3.7084,-3.6922,-3.654,-3.5919,-3.5189,-3.432,-3.3814,-3.3735,-3.3577,-3.3372,-3.3356,-3.3451,-3.6492,-3.6492,-3.6492,-3.6492,-3.6492,-3.6492,-3.6492,-3.6492,-3.6492,-3.6492,-3.6492,-3.6492,-3.6492,-3.6492,-3.6492,-3.6492,-3.6523,-3.6647,-3.6662,-3.6631,-3.6816,-3.6892,-3.6735,-3.5723,-3.4872,-3.4087,-3.3546,-3.3309,-3.3293,-3.3293,-3.3293,-3.3293,-3.3293,-3.3293,-3.3293,-3.3293,-3.3293,-3.3293,-3.3293,-3.3087,-3.2782,-3.2671,-3.244,-3.2029,-3.1744,-3.1618,-3.1539,-3.0472,-2.9872,-2.9951,-3.0354,-3.078,-3.1167,-3.1403,-3.1602,-3.1729,-3.2244,-3.2671,-3.2718,-3.2998,-3.3293,-3.3293,-3.3293,-3.3309,-3.3293,-3.3293,-3.3293,-3.3388,-3.3878,-3.4604,-3.53,-3.5966,-3.6384,-3.6582,-3.6599,-3.6772,-3.7118,-3.7181,-3.7181,-3.7211,-3.7197,-3.7197,-3.7211,-3.7225,-3.727,-3.7241,-3.7377,-3.7496,-3.7271,-3.7361,-3.7375,-3.7329,-3.73,-3.73,-3.7329,-3.727,-3.721,-3.718,-3.715,-3.7134,-3.7134,-3.724,-3.7329,-3.7156,-3.6979,-3.6632,-3.6058,-3.5426,-3.4683,-3.4399,-3.413,-3.3972,-3.3862,-3.3767,-3.3751,-3.6492,-3.6492,-3.6492,-3.6492,-3.6492,-3.6492,-3.6492,-3.6492,-3.6492,-3.6492,-3.6492,-3.6492,-3.6492,-3.6492,-3.6523,-3.6554,-3.6554,-3.6693,-3.6769,-3.6831,-3.7043,-3.7163,-3.6878,-3.5988,-3.5379,-3.4905,-3.3941,-3.3403,-3.3309,-3.3293,-3.3293,-3.3293,-3.3293,-3.3293,-3.3293,-3.3293,-3.3293,-3.3293,-3.3293,-3.3277,-3.323,-3.3245,-3.323,-3.3151,-3.2655,-3.2339,-3.2228,-3.1681,-3.1261,-3.1255,-3.1239,-3.1334,-3.1492,-3.2007,-3.2355,-3.237,-3.2945,-3.3166,-3.3261,-3.3261,-3.3293,-3.3293,-3.3293,-3.3293,-3.3293,-3.3293,-3.3293,-3.3356,-3.3988,-3.4683,-3.5363,-3.6137,-3.6756,-3.7352,-3.7324,-3.7387,-3.7464,-3.748,-3.745,-3.745,-3.751,-3.751,-3.745,-3.748,-3.7464,-3.748,-3.748,-3.748,-3.748,-3.748,-3.751,-3.7435,-3.7359,-3.7359,-3.7405,-3.7359,-3.73,-3.7329,-3.7345,-3.73,-3.7284,-3.7359,-3.7435,-3.7245,-3.7056,-3.6677,-3.6342,-3.5821,-3.5347,-3.5015,-3.4762,-3.4541,-3.4383,-3.4273,-3.4036,-3.6492,-3.6492,-3.6492,-3.6492,-3.6492,-3.6492,-3.6492,-3.6492,-3.6492,-3.6523,-3.6492,-3.6492,-3.6523,-3.6523,-3.66,-3.6631,-3.6723,-3.6922,-3.7074,-3.7104,-3.73,-3.7089,-3.6711,-3.6314,-3.5616,-3.4731,-3.4257,-3.3809,-3.334,-3.3309,-3.3309,-3.3293,-3.3293,-3.3293,-3.3293,-3.3293,-3.3293,-3.3293,-3.3293,-3.3293,-3.3293,-3.3293,-3.3293,-3.3277,-3.3119,-3.3008,-3.3024,-3.2866,-3.2487,-3.2054,-3.2007,-3.225,-3.2629,-3.2882,-3.2961,-3.3008,-3.3151,-3.3293,-3.3293,-3.3293,-3.3293,-3.3293,-3.3293,-3.3293,-3.3293,-3.3293,-3.3293,-3.3514,-3.4336,-3.5157,-3.5537,-3.6469,-3.7212,-3.7447,-3.751,-3.751,-3.751,-3.751,-3.751,-3.751,-3.751,-3.751,-3.751,-3.751,-3.751,-3.751,-3.751,-3.751,-3.751,-3.751,-3.751,-3.751,-3.7464,-3.7464,-3.7464,-3.7435,-3.7435,-3.748,-3.748,-3.7435,-3.7435,-3.7464,-3.748,-3.7447,-3.7338,-3.7038,-3.6911,-3.6611,-3.6169,-3.5647,-3.5505,-3.5315,-3.4968,-3.479,-3.4462,-3.6492,-3.6492,-3.6492,-3.6492,-3.6492,-3.6492,-3.6492,-3.6523,-3.6554,-3.6569,-3.6585,-3.6693,-3.6724,-3.6708,-3.68,-3.6816,-3.6862,-3.7089,-3.7194,-3.7224,-3.7405,-3.7259,-3.688,-3.6611,-3.5951,-3.5221,-3.4573,-3.4099,-3.3719,-3.3451,-3.3309,-3.3293,-3.3293,-3.3293,-3.3293,-3.3293,-3.3293,-3.3293,-3.3293,-3.3293,-3.3293,-3.3293,-3.3293,-3.3293,-3.3293,-3.3293,-3.3293,-3.3293,-3.3087,-3.2797,-3.275,-3.2924,-3.323,-3.3293,-3.3293,-3.3293,-3.3293,-3.3293,-3.3293,-3.3293,-3.3293,-3.3293,-3.3293,-3.3293,-3.3293,-3.3293,-3.3293,-3.3419,-3.4604,-3.5252,-3.5616,-3.6643,-3.7399,-3.751,-3.751,-3.751,-3.751,-3.751,-3.751,-3.751,-3.751,-3.751,-3.751,-3.751,-3.751,-3.751,-3.751,-3.751,-3.751,-3.751,-3.751,-3.751,-3.751,-3.751,-3.748,-3.748,-3.748,-3.751,-3.751,-3.751,-3.751,-3.751,-3.751,-3.751,-3.751,-3.7462,-3.7288,-3.7085,-3.6738,-3.6358,-3.6248,-3.5963,-3.5596,-3.5363,-3.5031,-3.6492,-3.6492,-3.6492,-3.6492,-3.6492,-3.6507,-3.6523,-3.6554,-3.6677,-3.6723,-3.6754,-3.6908,-3.6938,-3.6999,-3.6999,-3.7014,-3.703,-3.718,-3.7224,-3.73,-3.7405,-3.7431,-3.7352,-3.688,-3.6472,-3.6045,-3.4999,-3.4446,-3.4067,-3.3593,-3.3324,-3.3293,-3.3293,-3.3293,-3.3293,-3.3293,-3.3293,-3.3293,-3.3293,-3.3293,-3.3293,-3.3293,-3.3293,-3.3293,-3.3293,-3.3293,-3.3293,-3.3293,-3.3261,-3.3293,-3.3293,-3.3261,-3.3293,-3.3293,-3.3293,-3.3293,-3.3293,-3.3293,-3.3293,-3.3293,-3.3293,-3.3293,-3.3293,-3.3293,-3.3293,-3.3293,-3.3356,-3.3514,-3.462,-3.5394,-3.5976,-3.6877,-3.7383,-3.751,-3.751,-3.751,-3.751,-3.751,-3.751,-3.751,-3.751,-3.751,-3.751,-3.751,-3.751,-3.751,-3.751,-3.751,-3.751,-3.751,-3.751,-3.751,-3.751,-3.751,-3.751,-3.751,-3.751,-3.751,-3.751,-3.751,-3.751,-3.751,-3.751,-3.751,-3.751,-3.751,-3.7462,-3.7243,-3.7054,-3.699,-3.6846,-3.6466,-3.6074,-3.6011,-3.5789,-3.6492,-3.6492,-3.6492,-3.6492,-3.6523,-3.6616,-3.6662,-3.6662,-3.6862,-3.6938,-3.6938,-3.6984,-3.6999,-3.7015,-3.7135,-3.715,-3.7195,-3.7329,-3.7435,-3.7435,-3.748,-3.751,-3.7494,-3.7273,-3.6943,-3.6361,-3.56,-3.4873,-3.4304,-3.3719,-3.3293,-3.3293,-3.3293,-3.3293,-3.3293,-3.3293,-3.3293,-3.3293,-3.3293,-3.3293,-3.3293,-3.3293,-3.3293,-3.3293,-3.3293,-3.3293,-3.3293,-3.3293,-3.3293,-3.3293,-3.3293,-3.3293,-3.3293,-3.3293,-3.3293,-3.3293,-3.3293,-3.3293,-3.3293,-3.3293,-3.3293,-3.3293,-3.3293,-3.3293,-3.3293,-3.334,-3.3577,-3.4036,-3.4873,-3.5853,-3.6782,-3.7273,-3.7494,-3.751,-3.751,-3.751,-3.751,-3.751,-3.751,-3.751,-3.751,-3.751,-3.751,-3.751,-3.751,-3.751,-3.751,-3.751,-3.751,-3.751,-3.751,-3.751,-3.751,-3.751,-3.751,-3.751,-3.751,-3.751,-3.751,-3.751,-3.751,-3.751,-3.751,-3.751,-3.751,-3.751,-3.751,-3.7494,-3.732,-3.7352,-3.7352,-3.7067,-3.6814,-3.669,-3.6532,-3.6492,-3.6492,-3.6492,-3.6554,-3.6616,-3.6662,-3.6754,-3.6862,-3.7044,-3.7105,-3.7105,-3.7181,-3.7241,-3.7241,-3.73,-3.7345,-3.7375,-3.7435,-3.751,-3.751,-3.751,-3.751,-3.751,-3.751,-3.7243,-3.6769,-3.5837,-3.5173,-3.4652,-3.3846,-3.3293,-3.3293,-3.3293,-3.3293,-3.3293,-3.3293,-3.3293,-3.3293,-3.3293,-3.3293,-3.3293,-3.3293,-3.3293,-3.3293,-3.3293,-3.3293,-3.3293,-3.3293,-3.3293,-3.3293,-3.3293,-3.3293,-3.3293,-3.3293,-3.3293,-3.3293,-3.3293,-3.3293,-3.3293,-3.3293,-3.3293,-3.3293,-3.3293,-3.3293,-3.3419,-3.3561,-3.3909,-3.4415,-3.5236,-3.6327,-3.7352,-3.751,-3.751,-3.751,-3.751,-3.751,-3.751,-3.751,-3.751,-3.751,-3.751,-3.751,-3.751,-3.751,-3.751,-3.751,-3.751,-3.751,-3.751,-3.751,-3.751,-3.751,-3.751,-3.751,-3.751,-3.751,-3.751,-3.751,-3.751,-3.751,-3.751,-3.751,-3.751,-3.751,-3.751,-3.751,-3.751,-3.751,-3.751,-3.7462,-3.7447,-3.7494,-3.7431,-3.7133,-3.7038,-3.6492,-3.6492,-3.6492,-3.6585,-3.6693,-3.6723,-3.6846,-3.7014,-3.718,-3.7254,-3.7254,-3.7435,-3.745,-3.751,-3.748,-3.751,-3.751,-3.748,-3.751,-3.751,-3.751,-3.751,-3.751,-3.751,-3.7478,-3.7352,-3.6058,-3.5394,-3.4984,-3.4083,-3.334,-3.3293,-3.3293,-3.3293,-3.3293,-3.3293,-3.3293,-3.3293,-3.3293,-3.3293,-3.3293,-3.3293,-3.3293,-3.3293,-3.3293,-3.3293,-3.3293,-3.3293,-3.3293,-3.3293,-3.3293,-3.3293,-3.3293,-3.3293,-3.3293,-3.3293,-3.3293,-3.3293,-3.3293,-3.3293,-3.3293,-3.3293,-3.3293,-3.3293,-3.3419,-3.3719,-3.413,-3.4873,-3.571,-3.6801,-3.7431,-3.751,-3.751,-3.751,-3.751,-3.751,-3.751,-3.751,-3.751,-3.751,-3.751,-3.751,-3.751,-3.751,-3.751,-3.751,-3.751,-3.751,-3.751,-3.751,-3.751,-3.751,-3.751,-3.751,-3.751,-3.751,-3.751,-3.751,-3.751,-3.751,-3.751,-3.751,-3.751,-3.751,-3.751,-3.751,-3.751,-3.751,-3.751,-3.751,-3.751,-3.751,-3.751,-3.751,-3.7399,-3.6492,-3.6492,-3.6492,-3.6585,-3.6723,-3.6862,-3.7014,-3.7164,-3.7329,-3.7435,-3.7435,-3.748,-3.751,-3.751,-3.751,-3.751,-3.751,-3.751,-3.751,-3.751,-3.751,-3.751,-3.751,-3.751,-3.7494,-3.713,-3.6134,-3.541,-3.5063,-3.4067,-3.3356,-3.3293,-3.3293,-3.3293,-3.3293,-3.3293,-3.3293,-3.3293,-3.3293,-3.3293,-3.3293,-3.3293,-3.3293,-3.3293,-3.3293,-3.3293,-3.3293,-3.3293,-3.3293,-3.3293,-3.3293,-3.3293,-3.3293,-3.3293,-3.3293,-3.3293,-3.3293,-3.3293,-3.3293,-3.3293,-3.3293,-3.3293,-3.3293,-3.3293,-3.334,-3.3514,-3.4178,-3.5284,-3.6342,-3.7368,-3.7478,-3.751,-3.751,-3.751,-3.751,-3.751,-3.751,-3.751,-3.751,-3.751,-3.751,-3.751,-3.751,-3.751,-3.751,-3.751,-3.751,-3.751,-3.751,-3.751,-3.751,-3.751,-3.751,-3.751,-3.751,-3.751,-3.751,-3.751,-3.751,-3.751,-3.751,-3.751,-3.751,-3.751,-3.751,-3.751,-3.751,-3.751,-3.751,-3.751,-3.751,-3.751,-3.7336,-3.718,-3.7196,-3.6492,-3.6492,-3.6492,-3.6569,-3.6723,-3.6892,-3.7075,-3.7224,-3.7405,-3.751,-3.751,-3.751,-3.751,-3.751,-3.751,-3.751,-3.751,-3.751,-3.751,-3.751,-3.751,-3.751,-3.751,-3.751,-3.7227,-3.6769,-3.59,-3.5363,-3.5236,-3.3972,-3.3372,-3.3293,-3.3293,-3.3293,-3.3293,-3.3293,-3.3293,-3.3293,-3.3293,-3.3293,-3.3293,-3.3293,-3.3293,-3.3293,-3.3293,-3.3293,-3.3293,-3.3293,-3.3293,-3.3293,-3.3293,-3.3293,-3.3293,-3.3293,-3.3293,-3.3293,-3.3293,-3.3293,-3.3293,-3.3293,-3.3293,-3.3293,-3.3293,-3.3293,-3.3403,-3.3719,-3.4431,-3.571,-3.6735,-3.751,-3.751,-3.751,-3.751,-3.751,-3.751,-3.751,-3.751,-3.751,-3.751,-3.751,-3.751,-3.751,-3.751,-3.751,-3.751,-3.751,-3.751,-3.751,-3.751,-3.751,-3.751,-3.751,-3.751,-3.751,-3.751,-3.751,-3.751,-3.751,-3.751,-3.751,-3.751,-3.751,-3.751,-3.751,-3.751,-3.751,-3.751,-3.751,-3.751,-3.7494,-3.7447,-3.7322,-3.7038,-3.6896,-3.6817,-3.6492,-3.6492,-3.6523,-3.6647,-3.6785,-3.6953,-3.7135,-3.727,-3.7405,-3.751,-3.751,-3.751,-3.751,-3.751,-3.751,-3.751,-3.751,-3.751,-3.751,-3.751,-3.751,-3.751,-3.7494,-3.7259,-3.6959,-3.644,-3.5489,-3.5189,-3.4857,-3.3878,-3.3403,-3.3293,-3.3293,-3.3293,-3.3293,-3.3293,-3.3293,-3.3293,-3.3293,-3.3293,-3.3293,-3.3293,-3.3293,-3.3293,-3.3293,-3.3293,-3.3293,-3.3293,-3.3293,-3.3293,-3.3293,-3.3293,-3.3293,-3.3293,-3.3293,-3.3293,-3.3293,-3.3293,-3.3293,-3.3293,-3.3293,-3.3293,-3.3293,-3.3293,-3.3546,-3.4083,-3.5047,-3.6248,-3.7054,-3.7494,-3.751,-3.751,-3.751,-3.751,-3.751,-3.751,-3.751,-3.751,-3.751,-3.751,-3.751,-3.751,-3.751,-3.751,-3.751,-3.751,-3.751,-3.751,-3.751,-3.751,-3.751,-3.751,-3.751,-3.751,-3.751,-3.751,-3.751,-3.751,-3.751,-3.751,-3.751,-3.751,-3.751,-3.751,-3.751,-3.751,-3.751,-3.751,-3.751,-3.7478,-3.7354,-3.7133,-3.6801,-3.6374,-3.6121,-3.6492,-3.6507,-3.6631,-3.68,-3.6969,-3.7119,-3.727,-3.7435,-3.748,-3.751,-3.751,-3.751,-3.751,-3.751,-3.751,-3.751,-3.751,-3.751,-3.751,-3.751,-3.751,-3.751,-3.7399,-3.6801,-3.6658,-3.6203,-3.5157,-3.4537,-3.4336,-3.3704,-3.3324,-3.3293,-3.3293,-3.3293,-3.3293,-3.3293,-3.3293,-3.3293,-3.3293,-3.3293,-3.3293,-3.3293,-3.3293,-3.3293,-3.3293,-3.3293,-3.3293,-3.3293,-3.3293,-3.3293,-3.3293,-3.3293,-3.3293,-3.3293,-3.3293,-3.3293,-3.3293,-3.3293,-3.3293,-3.3293,-3.3293,-3.3293,-3.3293,-3.3293,-3.3704,-3.4573,-3.56,-3.6282,-3.7069,-3.7478,-3.751,-3.751,-3.751,-3.751,-3.751,-3.751,-3.751,-3.751,-3.751,-3.751,-3.751,-3.751,-3.751,-3.751,-3.751,-3.751,-3.751,-3.751,-3.751,-3.751,-3.751,-3.751,-3.751,-3.751,-3.751,-3.751,-3.751,-3.751,-3.751,-3.751,-3.751,-3.751,-3.751,-3.751,-3.751,-3.751,-3.751,-3.751,-3.751,-3.7383,-3.7164,-3.6848,-3.6487,-3.6042,-3.5442,-3.6785,-3.6785,-3.6831,-3.6908,-3.6999,-3.7134,-3.7254,-3.7329,-3.7464,-3.751,-3.751,-3.751,-3.751,-3.751,-3.751,-3.751,-3.751,-3.751,-3.751,-3.751,-3.751,-3.751,-3.7352,-3.6801,-3.6408,-3.614,-3.5458,-3.4747,-3.4273,-3.3704,-3.3293,-3.3293,-3.3293,-3.3293,-3.3293,-3.3293,-3.3293,-3.3293,-3.3293,-3.3293,-3.3293,-3.3293,-3.3293,-3.3293,-3.3293,-3.3293,-3.3293,-3.3293,-3.3293,-3.3293,-3.3293,-3.3293,-3.3293,-3.3293,-3.3293,-3.3293,-3.3293,-3.3293,-3.3293,-3.3293,-3.3293,-3.3309,-3.334,-3.3467,-3.4004,-3.5094,-3.6026,-3.6361,-3.7069,-3.7462,-3.751,-3.751,-3.751,-3.751,-3.751,-3.751,-3.751,-3.751,-3.751,-3.751,-3.751,-3.751,-3.751,-3.751,-3.751,-3.751,-3.751,-3.751,-3.751,-3.751,-3.751,-3.751,-3.751,-3.751,-3.751,-3.751,-3.751,-3.751,-3.751,-3.751,-3.751,-3.751,-3.751,-3.751,-3.751,-3.751,-3.751,-3.7494,-3.7494,-3.7212,-3.6911,-3.6437,-3.5932,-3.5236,-3.4668,-3.7121,-3.7121,-3.7075,-3.7044,-3.706,-3.721,-3.73,-3.73,-3.7435,-3.751,-3.751,-3.751,-3.751,-3.751,-3.751,-3.751,-3.751,-3.751,-3.751,-3.751,-3.751,-3.751,-3.7288,-3.6801,-3.6393,-3.6393,-3.5663,-3.511,-3.4573,-3.3972,-3.353,-3.3309,-3.3293,-3.3293,-3.3293,-3.3293,-3.3293,-3.3293,-3.3293,-3.3293,-3.3293,-3.3293,-3.3293,-3.3293,-3.3293,-3.3293,-3.3293,-3.3293,-3.3293,-3.3293,-3.3293,-3.3293,-3.3293,-3.3293,-3.3293,-3.3293,-3.3293,-3.3293,-3.3293,-3.3293,-3.3293,-3.3356,-3.3625,-3.4004,-3.4905,-3.5916,-3.6595,-3.6738,-3.7133,-3.7462,-3.751,-3.751,-3.751,-3.751,-3.751,-3.751,-3.751,-3.751,-3.751,-3.751,-3.751,-3.751,-3.751,-3.751,-3.751,-3.751,-3.751,-3.751,-3.751,-3.751,-3.751,-3.751,-3.751,-3.751,-3.751,-3.751,-3.751,-3.751,-3.751,-3.751,-3.751,-3.751,-3.751,-3.751,-3.751,-3.751,-3.751,-3.7494,-3.7431,-3.6943,-3.6453,-3.5837,-3.5236,-3.4541,-3.4067,-3.748,-3.745,-3.727,-3.7194,-3.7194,-3.7405,-3.748,-3.748,-3.748,-3.751,-3.751,-3.751,-3.751,-3.751,-3.751,-3.751,-3.751,-3.751,-3.751,-3.751,-3.751,-3.751,-3.7273,-3.6848,-3.6424,-3.6377,-3.5884,-3.5505,-3.5157,-3.4589,-3.3941,-3.3388,-3.3356,-3.3309,-3.3319,-3.3372,-3.344,-3.3424,-3.3424,-3.3346,-3.3319,-3.3293,-3.3293,-3.3293,-3.3293,-3.3293,-3.3293,-3.3293,-3.3293,-3.3293,-3.3293,-3.3293,-3.3293,-3.3293,-3.3293,-3.3293,-3.3293,-3.334,-3.3435,-3.3356,-3.3324,-3.3482,-3.3941,-3.4747,-3.5774,-3.6156,-3.6722,-3.7196,-3.7431,-3.7478,-3.751,-3.751,-3.751,-3.751,-3.751,-3.751,-3.751,-3.751,-3.751,-3.751,-3.751,-3.751,-3.751,-3.751,-3.751,-3.751,-3.751,-3.751,-3.751,-3.751,-3.751,-3.751,-3.751,-3.751,-3.751,-3.751,-3.751,-3.751,-3.751,-3.751,-3.751,-3.751,-3.751,-3.751,-3.751,-3.751,-3.751,-3.7494,-3.7273,-3.6579,-3.5979,-3.5394,-3.4715,-3.4004,-3.3672,-3.751,-3.751,-3.7405,-3.7405,-3.7405,-3.7464,-3.751,-3.751,-3.751,-3.751,-3.751,-3.751,-3.751,-3.751,-3.751,-3.751,-3.751,-3.751,-3.751,-3.751,-3.751,-3.751,-3.7257,-3.6943,-3.6582,-3.6801,-3.6374,-3.5998,-3.5919,-3.5292,-3.4589,-3.4036,-3.3636,-3.3324,-3.3346,-3.3633,-3.3771,-3.3771,-3.3745,-3.3668,-3.3319,-3.3293,-3.3293,-3.3293,-3.3293,-3.3293,-3.3293,-3.3293,-3.3293,-3.3293,-3.3293,-3.3293,-3.3293,-3.3293,-3.3293,-3.3293,-3.3293,-3.3467,-3.3704,-3.3577,-3.3467,-3.402,-3.4589,-3.5394,-3.6408,-3.6769,-3.7101,-3.7431,-3.751,-3.751,-3.751,-3.751,-3.751,-3.751,-3.751,-3.751,-3.751,-3.751,-3.751,-3.751,-3.751,-3.751,-3.751,-3.751,-3.751,-3.751,-3.751,-3.751,-3.751,-3.751,-3.751,-3.751,-3.751,-3.751,-3.751,-3.751,-3.751,-3.751,-3.751,-3.751,-3.751,-3.751,-3.751,-3.751,-3.751,-3.751,-3.751,-3.751,-3.7241,-3.6753,-3.5932,-3.5015,-3.4288,-3.353,-3.3388,-3.751,-3.751,-3.751,-3.751,-3.751,-3.751,-3.751,-3.751,-3.751,-3.751,-3.751,-3.751,-3.751,-3.751,-3.751,-3.751,-3.751,-3.751,-3.751,-3.751,-3.751,-3.751,-3.7336,-3.7133,-3.7022,-3.7291,-3.7114,-3.6767,-3.6988,-3.6087,-3.5577,-3.5011,-3.421,-3.3851,-3.3694,-3.4009,-3.4308,-3.4308,-3.4259,-3.4184,-3.3806,-3.3806,-3.3806,-3.3832,-3.3841,-3.3857,-3.3806,-3.3745,-3.3607,-3.3529,-3.345,-3.3293,-3.3293,-3.3293,-3.3293,-3.3293,-3.3356,-3.3561,-3.3783,-3.4146,-3.4194,-3.4984,-3.5363,-3.6042,-3.6674,-3.7196,-3.7431,-3.7478,-3.751,-3.751,-3.751,-3.751,-3.751,-3.751,-3.751,-3.751,-3.751,-3.751,-3.751,-3.751,-3.751,-3.751,-3.7539,-3.7539,-3.7583,-3.7569,-3.751,-3.751,-3.751,-3.751,-3.751,-3.751,-3.751,-3.751,-3.751,-3.7539,-3.7553,-3.751,-3.751,-3.751,-3.751,-3.751,-3.751,-3.751,-3.751,-3.751,-3.751,-3.751,-3.7352,-3.7085,-3.5979,-3.4731,-3.402,-3.3372,-3.3356,-3.7447,-3.751,-3.7462,-3.7462,-3.7447,-3.751,-3.751,-3.751,-3.751,-3.751,-3.751,-3.751,-3.751,-3.751,-3.751,-3.751,-3.751,-3.751,-3.751,-3.751,-3.751,-3.751,-3.7494,-3.7415,-3.7379,-3.7462,-3.7454,-3.7633,-3.8023,-3.6734,-3.6395,-3.6105,-3.5194,-3.4537,-3.4201,-3.4545,-3.4769,-3.4769,-3.4785,-3.4738,-3.4593,-3.4529,-3.4521,-3.4521,-3.4504,-3.4472,-3.4399,-3.4209,-3.4084,-3.4034,-3.3617,-3.3477,-3.3424,-3.3319,-3.3293,-3.3293,-3.3293,-3.3372,-3.3482,-3.4636,-3.5473,-3.5868,-3.5963,-3.6532,-3.718,-3.751,-3.751,-3.751,-3.751,-3.751,-3.751,-3.751,-3.751,-3.751,-3.751,-3.751,-3.751,-3.751,-3.751,-3.751,-3.751,-3.751,-3.7539,-3.7599,-3.7671,-3.7642,-3.7539,-3.7539,-3.7612,-3.7685,-3.7743,-3.796,-3.7988,-3.7815,-3.7844,-3.7626,-3.7583,-3.7524,-3.751,-3.751,-3.751,-3.751,-3.751,-3.751,-3.751,-3.751,-3.751,-3.751,-3.7227,-3.6832,-3.5568,-3.4446,-3.3735,-3.3293,-3.3293,-3.6105,-3.6121,-3.6579,-3.6785,-3.6848,-3.7291,-3.751,-3.751,-3.751,-3.751,-3.751,-3.751,-3.751,-3.751,-3.7462,-3.7447,-3.7447,-3.751,-3.751,-3.7478,-3.7524,-3.751,-3.7539,-3.7626,-3.7727,-3.7956,-3.8039,-3.7943,-3.8017,-3.6999,-3.6452,-3.6108,-3.5753,-3.5321,-3.5161,-3.5299,-3.5322,-3.5345,-3.5299,-3.5184,-3.4864,-3.484,-3.488,-3.488,-3.4904,-3.4937,-3.4887,-3.4666,-3.4586,-3.4496,-3.4068,-3.3848,-3.3745,-3.3617,-3.3319,-3.3335,-3.3324,-3.3799,-3.4668,-3.5865,-3.6295,-3.62,-3.6295,-3.6785,-3.7354,-3.7494,-3.751,-3.751,-3.751,-3.751,-3.751,-3.751,-3.751,-3.751,-3.751,-3.751,-3.751,-3.751,-3.751,-3.751,-3.751,-3.7844,-3.7972,-3.8144,-3.823,-3.8132,-3.8046,-3.8001,-3.8042,-3.8157,-3.8242,-3.8618,-3.8728,-3.8423,-3.8197,-3.7985,-3.7756,-3.7655,-3.7583,-3.751,-3.751,-3.751,-3.751,-3.751,-3.751,-3.751,-3.751,-3.7431,-3.7054,-3.6421,-3.5473,-3.4747,-3.4225,-3.3704,-3.3293,-3.5394,-3.5442,-3.5884,-3.6045,-3.6232,-3.7069,-3.751,-3.751,-3.751,-3.751,-3.751,-3.751,-3.7306,-3.718,-3.7117,-3.6909,-3.6846,-3.7022,-3.7101,-3.7207,-3.7663,-3.7754,-3.7828,-3.7972,-3.8339,-3.8481,-3.8313,-3.8186,-3.8302,-3.7311,-3.663,-3.6177,-3.5892,-3.5822,-3.5832,-3.5832,-3.5854,-3.5854,-3.5793,-3.5705,-3.5571,-3.5582,-3.5683,-3.5582,-3.5599,-3.5694,-3.5406,-3.5207,-3.5091,-3.4968,-3.4666,-3.4341,-3.4193,-3.3908,-3.3591,-3.3581,-3.372,-3.4042,-3.4668,-3.5802,-3.5928,-3.5612,-3.6248,-3.6943,-3.7385,-3.7494,-3.751,-3.751,-3.751,-3.751,-3.751,-3.751,-3.751,-3.7494,-3.7553,-3.7553,-3.7815,-3.7844,-3.7988,-3.7931,-3.8075,-3.8339,-3.8518,-3.8756,-3.8963,-3.8772,-3.8595,-3.859,-3.8574,-3.8629,-3.8767,-3.9092,-3.9242,-3.893,-3.8629,-3.8351,-3.81,-3.7828,-3.7743,-3.77,-3.751,-3.751,-3.751,-3.751,-3.751,-3.751,-3.751,-3.7368,-3.7178,-3.669,-3.5932,-3.5284,-3.4762,-3.4178,-3.3593,-3.5315,-3.5331,-3.5347,-3.5347,-3.5584,-3.6793,-3.7395,-3.7431,-3.7399,-3.7383,-3.7417,-3.7336,-3.6911,-3.644,-3.6361,-3.6134,-3.5871,-3.6254,-3.6578,-3.6928,-3.7705,-3.8056,-3.8458,-3.8783,-3.8859,-3.8778,-3.8579,-3.8353,-3.8601,-3.7307,-3.6469,-3.6328,-3.6182,-3.6178,-3.6178,-3.6178,-3.6178,-3.6156,-3.6135,-3.6195,-3.6293,-3.6818,-3.6683,-3.661,-3.6803,-3.6769,-3.6442,-3.6036,-3.5847,-3.5594,-3.5188,-3.4927,-3.469,-3.4366,-3.4209,-3.4161,-3.4276,-3.4356,-3.4415,-3.5632,-3.5832,-3.5955,-3.6637,-3.7241,-3.7494,-3.751,-3.751,-3.751,-3.751,-3.751,-3.751,-3.7524,-3.7524,-3.7583,-3.7626,-3.7857,-3.8254,-3.8435,-3.8618,-3.8756,-3.8974,-3.9189,-3.9216,-3.9375,-3.9636,-3.9584,-3.9497,-3.947,-3.9428,-3.9199,-3.9332,-3.9506,-3.9584,-3.9401,-3.9119,-3.8914,-3.8657,-3.8423,-3.8173,-3.8046,-3.7801,-3.7714,-3.7844,-3.7873,-3.7612,-3.7539,-3.751,-3.7539,-3.7522,-3.6938,-3.6295,-3.59,-3.5394,-3.4589,-3.4051,-3.3893,-3.3957,-3.4399,-3.4604,-3.4813,-3.597,-3.6586,-3.6656,-3.6248,-3.6232,-3.6677,-3.62,-3.6033,-3.5695,-3.5679,-3.5757,-3.5886,-3.6205,-3.6864,-3.7373,-3.7789,-3.8372,-3.8797,-3.9023,-3.9094,-3.8941,-3.8697,-3.8253,-3.7769,-3.6786,-3.6392,-3.631,-3.6284,-3.6284,-3.6284,-3.6284,-3.6284,-3.6284,-3.6284,-3.6594,-3.6995,-3.7426,-3.7323,-3.7443,-3.787,-3.7749,-3.7167,-3.6952,-3.6825,-3.6703,-3.587,-3.5424,-3.5345,-3.4904,-3.4626,-3.4758,-3.5456,-3.6175,-3.6065,-3.64,-3.6619,-3.6385,-3.6768,-3.6988,-3.7275,-3.7537,-3.7537,-3.7583,-3.7642,-3.7655,-3.7772,-3.7815,-3.7886,-3.803,-3.8116,-3.8367,-3.8723,-3.8984,-3.9146,-3.9401,-3.961,-3.9791,-3.9817,-4.0087,-4.0303,-4.0353,-4.0353,-4.0279,-4.0179,-3.9961,-3.9868,-4.0037,-4.0112,-3.9986,-3.9825,-3.9629,-3.9332,-3.9055,-3.8783,-3.8618,-3.8657,-3.8574,-3.8435,-3.8282,-3.8157,-3.7815,-3.751,-3.7583,-3.7786,-3.7331,-3.6738,-3.6406,-3.5947,-3.5126,-3.4683,-3.3633,-3.368,-3.4021,-3.4328,-3.461,-3.5282,-3.5805,-3.6061,-3.5838,-3.6034,-3.6456,-3.6014,-3.563,-3.5658,-3.5636,-3.5606,-3.554,-3.5892,-3.6406,-3.6799,-3.7727,-3.8103,-3.8538,-3.8875,-3.886,-3.8748,-3.8451,-3.7969,-3.7361,-3.6749,-3.6301,-3.6301,-3.6284,-3.6284,-3.6284,-3.6284,-3.6284,-3.6284,-3.6404,-3.6801,-3.7288,-3.7771,-3.7927,-3.8082,-3.8646,-3.8444,-3.7702,-3.7581,-3.7409,-3.7215,-3.6271,-3.6188,-3.5963,-3.5413,-3.4927,-3.5079,-3.5687,-3.5968,-3.5869,-3.6293,-3.664,-3.677,-3.6697,-3.7143,-3.7354,-3.7604,-3.7732,-3.7815,-3.7873,-3.7931,-3.8059,-3.8201,-3.8439,-3.8645,-3.8767,-3.893,-3.9199,-3.948,-3.9688,-3.991,-4.0112,-4.0286,-4.0483,-4.0758,-4.0871,-4.0752,-4.0728,-4.0728,-4.0655,-4.0524,-4.0476,-4.0566,-4.0638,-4.0662,-4.0458,-4.0228,-3.9935,-3.9629,-3.9351,-3.9272,-3.943,-3.9325,-3.9032,-3.887,-3.875,-3.8435,-3.8157,-3.8042,-3.8051,-3.7646,-3.7242,-3.6825,-3.6353,-3.5663,-3.5426,-3.4151,-3.4151,-3.4151,-3.4481,-3.4833,-3.4963,-3.5345,-3.5901,-3.5985,-3.6316,-3.6607,-3.6206,-3.5759,-3.5588,-3.5555,-3.5382,-3.5429,-3.5693,-3.6139,-3.6081,-3.7266,-3.7929,-3.8207,-3.834,-3.8517,-3.8298,-3.7952,-3.7593,-3.7228,-3.668,-3.6284,-3.6284,-3.6284,-3.6284,-3.6284,-3.6284,-3.6301,-3.6318,-3.6559,-3.6973,-3.765,-3.8203,-3.8646,-3.8801,-3.9146,-3.9255,-3.8129,-3.7542,-3.7232,-3.7025,-3.6887,-3.6982,-3.6538,-3.612,-3.5638,-3.5482,-3.6021,-3.6104,-3.6047,-3.6196,-3.6182,-3.6373,-3.6539,-3.703,-3.7302,-3.7943,-3.8222,-3.8327,-3.8411,-3.8523,-3.8645,-3.8745,-3.8892,-3.9119,-3.9289,-3.9568,-3.9919,-4.0112,-4.0212,-4.0402,-4.0517,-4.0645,-4.0686,-4.0894,-4.0894,-4.0894,-4.0959,-4.1,-4.0982,-4.0918,-4.0942,-4.0965,-4.0965,-4.0971,-4.0901,-4.0659,-4.0497,-4.0235,-3.9969,-3.9969,-4.0144,-3.9927,-3.9604,-3.9439,-3.9272,-3.9176,-3.8962,-3.8843,-3.8652,-3.8265,-3.7838,-3.731,-3.6781,-3.6298,-3.615,-3.4642,-3.4642,-3.4617,-3.4927,-3.5391,-3.5413,-3.5718,-3.6171,-3.5834,-3.5911,-3.5984,-3.5498,-3.5184,-3.5286,-3.53,-3.5242,-3.5536,-3.5683,-3.6265,-3.6707,-3.7415,-3.7649,-3.8185,-3.8195,-3.8203,-3.7875,-3.7495,-3.7146,-3.6732,-3.6404,-3.6284,-3.6284,-3.6305,-3.6322,-3.6322,-3.6322,-3.6377,-3.6477,-3.693,-3.7495,-3.8284,-3.8513,-3.8784,-3.9405,-3.9957,-3.9922,-3.9077,-3.8474,-3.8323,-3.8151,-3.7633,-3.7422,-3.721,-3.7072,-3.6658,-3.6258,-3.6502,-3.6559,-3.6542,-3.636,-3.6346,-3.6316,-3.6499,-3.6705,-3.7239,-3.8208,-3.8805,-3.8914,-3.9028,-3.9109,-3.9242,-3.9339,-3.9418,-3.9636,-3.9825,-4.0212,-4.0614,-4.0662,-4.071,-4.0782,-4.0871,-4.0894,-4.0894,-4.0894,-4.0894,-4.0935,-4.1006,-4.107,-4.1099,-4.1082,-4.1134,-4.1134,-4.1117,-4.1117,-4.1094,-4.1071,-4.0873,-4.0937,-4.0802,-4.0825,-4.0849,-4.0577,-4.0292,-4.0011,-3.9808,-3.9792,-3.9749,-3.9638,-3.9387,-3.8939,-3.8608,-3.8175,-3.7813,-3.7388,-3.7198,-3.5144,-3.5144,-3.5144,-3.5442,-3.5854,-3.5902,-3.6071,-3.6216,-3.6011,-3.5948,-3.5975,-3.5501,-3.526,-3.5397,-3.5464,-3.5509,-3.5859,-3.5898,-3.6246,-3.6788,-3.7081,-3.7124,-3.7456,-3.768,-3.7318,-3.7008,-3.6978,-3.6684,-3.6335,-3.6284,-3.6284,-3.6305,-3.6343,-3.6381,-3.6402,-3.644,-3.663,-3.6899,-3.7409,-3.8152,-3.895,-3.9152,-3.9497,-4.0198,-4.0457,-4.0302,-3.9439,-3.8698,-3.8215,-3.7749,-3.706,-3.7284,-3.7163,-3.7021,-3.6711,-3.6483,-3.6603,-3.6939,-3.6892,-3.6757,-3.6524,-3.6424,-3.6758,-3.7117,-3.7445,-3.8368,-3.9319,-3.9471,-3.9534,-3.962,-4.002,-4.0187,-4.0229,-4.0377,-4.0427,-4.0614,-4.0776,-4.0799,-4.0823,-4.0847,-4.0894,-4.0894,-4.0894,-4.0894,-4.0912,-4.1023,-4.107,-4.1169,-4.1198,-4.1244,-4.1295,-4.13,-4.1277,-4.1277,-4.1272,-4.1295,-4.1255,-4.134,-4.1448,-4.1363,-4.1214,-4.1146,-4.0966,-4.0707,-4.0546,-4.057,-4.0521,-4.0351,-4.0036,-3.9595,-3.9344,-3.9073,-3.8768,-3.8463,-3.8232,-3.5683,-3.57,-3.57,-3.5902,-3.6241,-3.6284,-3.6284,-3.6284,-3.6284,-3.6262,-3.6247,-3.5866,-3.5985,-3.6156,-3.6301,-3.6284,-3.6262,-3.6178,-3.6349,-3.6349,-3.6387,-3.6577,-3.6559,-3.6439,-3.6473,-3.649,-3.6439,-3.6422,-3.6301,-3.6284,-3.6322,-3.6343,-3.6423,-3.6502,-3.6541,-3.6773,-3.705,-3.7494,-3.8049,-3.8742,-3.9294,-3.9756,-4.0152,-4.0567,-4.0791,-4.017,-3.9301,-3.8456,-3.7818,-3.7508,-3.7111,-3.718,-3.7215,-3.706,-3.6646,-3.6456,-3.6353,-3.6456,-3.6383,-3.6396,-3.6324,-3.6465,-3.7081,-3.7473,-3.7723,-3.8459,-3.9399,-3.9876,-3.9949,-4.022,-4.0621,-4.0782,-4.0823,-4.0847,-4.0864,-4.0888,-4.0888,-4.0918,-4.0935,-4.0935,-4.0942,-4.0942,-4.0942,-4.0942,-4.1006,-4.1093,-4.1163,-4.1261,-4.1335,-4.138,-4.1448,-4.1431,-4.1408,-4.1408,-4.1426,-4.1408,-4.1431,-4.1475,-4.1538,-4.1582,-4.1542,-4.1413,-4.1368,-4.1453,-4.1323,-4.1163,-4.1053,-4.0896,-4.057,-4.0277,-4.0111,-3.9902,-3.9691,-3.9404,-3.9209,-3.6156,-3.6174,-3.6156,-3.622,-3.6284,-3.6284,-3.6284,-3.6284,-3.6284,-3.6284,-3.6262,-3.6241,-3.6241,-3.6284,-3.6284,-3.6284,-3.6284,-3.6284,-3.6284,-3.6301,-3.6284,-3.6284,-3.6284,-3.6284,-3.6284,-3.6284,-3.6284,-3.6284,-3.6305,-3.6322,-3.636,-3.6461,-3.6482,-3.6575,-3.6662,-3.7012,-3.7592,-3.8109,-3.8894,-3.9636,-3.9763,-4.0106,-4.0291,-4.0607,-4.0877,-4.0705,-4.0239,-3.9198,-3.8974,-3.8784,-3.8272,-3.7737,-3.7413,-3.7137,-3.6809,-3.6467,-3.6343,-3.6343,-3.6364,-3.6364,-3.6364,-3.6381,-3.6847,-3.7072,-3.7534,-3.8289,-3.9158,-3.9881,-4.0113,-4.0577,-4.0894,-4.0871,-4.0871,-4.0894,-4.0894,-4.0918,-4.0942,-4.0982,-4.1047,-4.1076,-4.1088,-4.1088,-4.1094,-4.1111,-4.1134,-4.1221,-4.1284,-4.1358,-4.1403,-4.1493,-4.156,-4.1538,-4.1515,-4.156,-4.156,-4.1538,-4.156,-4.1582,-4.1604,-4.1604,-4.1604,-4.1604,-4.1604,-4.1604,-4.1604,-4.1453,-4.1386,-4.1277,-4.1277,-4.103,-4.089,-4.0731,-4.0518,-4.0305,-4.008]},{"header":{"parameterUnit":"m.s-1","parameterCategory":1,"la1":31.0,"la2":29.5877,"lo1":-88.7671,"lo2":-86.6584,"dy":0.0162,"dx":0.0185,"nx":115,"ny":88,"refTime":"2024-07-14T00:00:00:Z","depth":0,"parameterNumber":3,"parameterNumberName":"V-component_of_WINDS"},"data":[0.0,0.0,0.0,0.0,0.0,0.0,0.0,0.0,0.0,0.0,0.0,0.0,0.0,0.0,0.0,0.0,0.0,0.0,0.0,0.0,0.0,0.0,0.0,0.0,0.0,0.0,0.0,0.0,0.0,0.0,0.0,0.0,0.0,0.0,0.0,0.0,0.0,0.0,0.0,0.0,0.0,0.0,0.0,0.0,0.0,0.0,0.0,0.0,0.0,0.0,0.0,0.0,0.0,0.0,0.0,0.0,0.0,0.0,0.0,0.0,0.0,0.0,0.0,0.0,0.0,0.0,0.0,0.0,0.0,0.0,0.0,0.0,0.0,0.0,0.0,0.0,0.0,0.0,0.0,0.0,0.0,0.0,0.0,0.0,0.0,0.0,0.0,0.0,0.0,0.0,0.0,0.0,0.0,0.0,0.0,0.0,0.0,0.0,0.0,0.0,0.0,0.0,0.0,0.0,0.0,0.0,0.0,0.0,0.0,0.0,0.0,0.0,0.0,0.0,0.0,0.0,0.0,0.0,0.0,0.0,0.0,0.0,0.0,0.0,0.0,0.0,0.0,0.0,0.0,0.0,0.0,0.0,0.0,0.0,0.0,0.0,0.0,0.0,0.0,0.0,0.0,0.0,0.0,0.0,0.0,0.0,0.0,0.0,0.0,0.0,0.0,0.0,0.0,0.0,0.0,0.0,0.0,0.0,0.0,0.0,0.0,0.0,0.0,0.0,0.0,0.0,0.0,0.0,0.0,0.0,0.0,0.0,0.0,0.0,0.0,0.0,0.0,0.0,0.0,0.0,0.0,0.0,0.0,0.0,0.0,0.0,0.0,0.0,0.0,0.0,0.0,0.0,0.0,0.0,0.0,0.0,0.0,0.0,0.0,0.0,0.0,0.0,0.0,0.0,0.0,0.0,0.0,0.0,0.0,0.0,0.0,0.0,0.0,0.0,0.0,0.0,0.0,0.0,0.0,0.0,0.0,0.0,0.0,0.0,0.0,0.0,0.0,0.0,0.0,0.0,0.0,0.0,0.0,0.0,0.0,0.0,0.0,0.0,0.0,0.0,0.0,0.0,0.0,0.0,0.0,0.0,0.0,0.0,0.0,0.0,0.0,0.0,0.0,0.0,0.0,0.0,0.0,0.0,0.0,0.0,0.0,0.0,0.0,0.0,0.0,0.0,0.0,0.0,0.0,0.0,0.0,0.0,0.0,0.0,0.0,0.0,0.0,0.0,0.0,0.0,0.0,0.0,0.0,0.0,0.0,0.0,0.0,0.0,0.0,0.0,0.0,0.0,0.0,0.0,0.0,0.0,0.0,0.0,0.0,0.0,0.0,0.0,0.0,0.0,0.0,0.0,0.0,0.0,0.0,0.0,0.0,0.0,0.0,0.0,0.0,0.0,0.0,0.0,0.0,0.0,0.0,0.0,0.0,0.0,0.0,0.0,0.0,0.0,0.0,0.0,0.0,0.0,0.0,0.0,0.0,0.0,0.0,0.0,0.0,0.0,0.0,0.0,0.0,0.0,0.0,0.0,0.0,0.0,0.0,0.0,0.0,0.0,0.0,0.0,0.0,0.0,0.0,0.0,0.0,0.0,0.0,0.0,0.0,0.0,0.0,0.0,0.0,0.0,0.0,0.0,0.0,0.0,0.0,0.0,0.0,0.0,0.0,0.0,0.0,0.0,0.0,0.0,0.0,0.0,0.0,0.0,0.0,0.0,0.0,0.0,0.0,0.0,0.0,0.0,0.0,0.0,0.0,0.0,0.0,0.0,0.0,0.0,0.0,0.0,0.0,0.0,0.0,0.0,0.0,0.0,0.0,0.0,0.0,0.0,0.0,0.0,0.0,0.0,0.0,0.0,0.0,0.0,0.0,0.0,0.0,0.0,0.0,0.0,0.0,0.0,0.0,0.0,0.0,0.0,0.0,0.0,0.0,0.0,0.0,0.0,0.0,0.0,0.0,0.0,0.0,0.0,0.0,0.0,0.0,0.0,0.0,0.0,0.0,0.0,0.0,0.0,0.0,0.0,0.0,0.0,0.0,0.0,0.0,0.0,0.0,0.0,0.0,0.0,0.0,0.0,0.0,0.0,0.0,0.0,0.0,0.0,0.0,0.0,0.0,0.0,0.0,0.0,0.0,0.0,0.0,0.0,0.0,0.0,0.0,0.0,0.0,0.0,0.0,0.0,0.0,0.0,0.0,0.0,0.0,0.0,0.0,0.0,0.0,0.0,0.0,0.0,0.0,0.0,0.0,0.0,0.0,0.0,0.0,0.0,0.0,0.0,0.0,0.0,0.0,0.0,0.0,0.0,0.0,0.0,0.0,0.0,0.0,0.0,0.0,0.0,0.0,0.0,0.0,0.0,0.0,0.0,0.0,0.0,0.0,0.0,0.0,0.0,0.0,0.0,0.0,0.0,0.0,0.0,0.0,0.0,0.0,0.0,0.0,0.0,0.0,0.0,0.0,0.0,0.0,0.0,0.0,0.0,0.0,0.0,0.0,0.0,0.0,0.0,0.0,0.0,0.0,0.0,0.0,0.0,0.0,0.0,0.0,0.0,0.0,0.0,0.0,0.0,0.0,0.0,0.0,0.0,0.0,0.0,0.0,0.0,0.0,0.0,0.0,0.0,0.0,0.0,0.0,0.0,0.0,0.0,0.0,0.0,0.0,0.0,0.0,0.0,0.0,0.0,0.0,0.0,0.0,0.0,0.0,0.0,0.0,0.0,0.0,0.0,0.0,0.0,0.0,0.0,0.0,0.0,0.0,0.0,0.0,0.0,0.0,0.0,0.0,0.0,0.0,0.0,0.0,0.0,0.0,0.0,0.0,0.0,0.0,0.0,0.0,0.0,0.0,0.0,0.0,0.0,0.0,0.0,0.0,0.0,0.0,0.0,0.0,0.0,0.0,0.0,0.0,0.0,0.0,0.0,0.0,0.0,0.0,0.0,0.0,0.0,0.0,0.0,0.0,0.0,0.0,0.0,0.0,0.0,0.0,0.0,0.0,0.0,0.0,0.0,0.0,0.0,0.0,0.0,0.0,0.0,0.0,0.0,0.0,0.0,0.0,0.0,0.0,0.0,0.0,0.0,0.0,0.0,0.0,0.0,0.0,0.0,0.0,0.0,0.0,0.0,0.0,0.0,0.0,0.0,0.0,0.0,0.0,0.0,0.0,0.0,0.0,0.0,0.0,0.0,0.0,0.0,0.0,0.0,0.0,0.0,0.0,0.0,0.0,0.0,0.0,0.0,0.0,0.0,0.0,0.0,0.0,0.0,0.0,0.0,0.0,0.0,0.0,0.0,0.0,0.0,0.0,0.0,0.0,0.0,0.0,0.0,0.0,0.0,0.0,0.0,0.0,0.0,0.0,0.0,0.0,0.0,0.0,0.0,0.0,0.0,0.0,0.0,0.0,0.0,0.0,0.0,0.0,0.0,0.0,0.0,0.0,0.0,0.0,0.0,0.0,0.0,0.0,0.0,0.0,0.0,0.0,0.0,0.0,0.0,0.0,0.0,0.0,0.0,0.0,0.0,0.0,0.0,0.0,0.0,0.0,0.0,0.0,0.0,0.0,0.0,0.0,0.0,0.0,0.0,0.0,0.0,0.0,0.0,0.0,0.0,0.0,0.0,0.0,0.0,0.0,0.0,0.0,0.0,0.0,0.0,0.0,0.0,0.0,0.0,0.0,0.0,0.0,0.0,0.0,0.0,0.0,0.0,0.0,0.0,0.0,0.0,0.0,0.0,0.0,0.0,0.0,0.0,0.0,0.0,0.0,0.0,0.0,0.0,0.0,0.0,0.0,0.0,0.0,0.0,0.0,0.0,0.0,0.0,0.0,0.0,0.0,0.0,0.0,0.0,0.0,0.0,0.0,0.0,0.0,0.0,0.0,0.0,0.0,0.0,0.0,0.0,0.0,0.0,0.0,0.0,0.0,0.0,0.0,0.0,0.0,0.0,0.0,0.0,0.0,0.0,0.0,0.0,0.0,0.0,0.0,0.0,0.0,0.0,0.0,0.0,0.0,0.0,0.0,0.0,0.0,0.0,0.0,0.0,0.0,0.0,0.0,0.0,0.0,0.0,0.0,0.0,0.0,0.0,0.0,0.0,0.0,0.0,0.0,0.0,0.0,0.0,0.0,0.0,0.0,0.0,0.0,0.0,0.0,0.0,0.0,0.0,0.0,0.0,0.0,0.0,0.0,0.0,0.0,0.0,0.0,0.0,0.0,0.0,0.0,0.0,0.0,0.0,0.0,0.0,0.0,0.0,0.0,0.0,-0.8022,0.0,0.0,0.0,0.0,0.0,0.0,0.0,0.0,0.0,0.0,0.0,0.0,0.0,0.0,0.0,0.0,0.0,0.0,0.0,0.0,0.0,0.0,0.0,0.0,0.0,0.0,0.0,0.0,0.0,0.0,0.0,0.0,0.0,0.0,0.0,0.0,0.0,0.0,0.0,0.0,0.0,0.0,0.0,0.0,0.0,0.0,0.0,0.0,0.0,0.0,0.0,0.0,0.0,0.0,0.0,0.0,0.0,0.0,0.0,0.0,0.0,0.0,0.0,0.0,0.0,0.0,0.0,0.0,0.0,0.0,0.0,0.0,0.0,0.0,0.0,0.0,0.0,0.0,0.0,0.0,0.0,0.0,0.0,0.0,0.0,0.0,0.0,0.0,0.0,0.0,0.0,0.0,0.0,0.0,0.0,0.0,0.0,0.0,0.0,0.0,0.0,0.0,0.0,0.0,0.0,0.0,0.0,0.0,0.0,0.0,-0.9867,-0.966,-0.85,-0.7933,-0.8032,0.0,0.0,0.0,0.0,0.0,0.0,0.0,0.0,0.0,0.0,0.0,0.0,0.0,0.0,0.0,0.0,0.0,0.0,0.0,0.0,0.0,0.0,0.0,0.0,0.0,0.0,0.0,0.0,0.0,0.0,0.0,0.0,0.0,0.0,0.0,0.0,0.0,0.0,0.0,0.0,0.0,0.0,0.0,0.0,0.0,0.0,0.0,0.0,0.0,0.0,0.0,0.0,0.0,0.0,0.0,0.0,0.0,0.0,0.0,0.0,0.0,0.0,0.0,0.0,0.0,0.0,0.0,0.0,0.0,0.0,0.0,0.0,0.0,0.0,0.0,0.0,0.0,0.0,0.0,0.0,0.0,0.0,0.0,0.0,0.0,0.0,0.0,0.0,0.0,0.0,0.0,0.0,0.0,0.0,0.0,0.0,0.0,0.0,0.0,0.0,0.0,0.0,0.0,0.0,0.0,0.0,0.0,0.0,0.0,0.0,0.0,0.0,-0.8961,-0.8405,-0.8329,0.0,0.0,0.0,0.0,0.0,0.0,0.0,0.0,0.0,0.0,0.0,0.0,0.0,0.0,0.0,0.0,0.0,0.0,0.0,0.0,0.0,0.0,0.0,0.0,0.0,0.0,0.0,0.0,0.0,0.0,0.0,0.0,0.0,0.0,0.0,0.0,0.0,0.0,0.0,0.0,0.0,0.0,0.0,0.0,0.0,0.0,0.0,0.0,0.0,0.0,0.0,0.0,0.0,0.0,0.0,0.0,0.0,0.0,0.0,0.0,0.0,0.0,0.0,0.0,0.0,0.0,0.0,0.0,0.0,0.0,0.0,0.0,0.0,0.0,0.0,0.0,0.0,0.0,0.0,0.0,0.0,0.0,0.0,0.0,0.0,0.0,0.0,0.0,0.0,0.0,0.0,0.0,0.0,0.0,0.0,0.0,0.0,0.0,0.0,0.0,0.0,0.0,0.0,0.0,0.0,0.0,0.0,0.0,0.0,0.0,-1.062,-1.1518,-1.1044,0.0,-0.9366,0.0,0.0,0.0,0.0,0.0,0.0,0.0,0.0,0.0,0.0,0.0,0.0,0.0,0.0,0.0,0.0,0.0,0.0,0.0,0.0,0.0,0.0,0.0,0.0,0.0,0.0,0.0,0.0,0.0,0.0,0.0,0.0,0.0,0.0,0.0,0.0,0.0,0.0,0.0,0.0,0.0,0.0,0.0,0.0,0.0,0.0,0.0,0.0,0.0,0.0,0.0,0.0,0.0,0.0,0.0,0.0,0.0,0.0,0.0,0.0,0.0,0.0,0.0,0.0,0.0,0.0,0.0,0.0,0.0,0.0,0.0,0.0,0.0,0.0,0.0,0.0,0.0,0.0,0.0,0.0,0.0,0.0,0.0,0.0,0.0,0.0,0.0,0.0,0.0,0.0,0.0,0.0,0.0,0.0,0.0,0.0,0.0,0.0,0.0,0.0,0.0,0.0,0.0,0.0,0.0,0.0,0.0,0.0,0.0,0.0,0.0,-1.1415,-1.1069,-1.0623,0.0,0.0,0.0,0.0,0.0,0.0,0.0,0.0,0.0,0.0,0.0,0.0,0.0,0.0,0.0,0.0,0.0,0.0,0.0,0.0,0.0,0.0,0.0,0.0,0.0,0.0,0.0,0.0,0.0,0.0,0.0,0.0,0.0,0.0,0.0,0.0,0.0,0.0,0.0,0.0,0.0,0.0,0.0,0.0,0.0,0.0,0.0,0.0,0.0,0.0,0.0,0.0,0.0,0.0,0.0,0.0,0.0,0.0,0.0,0.0,0.0,0.0,0.0,0.0,0.0,0.0,0.0,0.0,0.0,0.0,0.0,0.0,0.0,0.0,0.0,0.0,0.0,0.0,0.0,0.0,0.0,0.0,0.0,0.0,0.0,0.0,0.0,0.0,0.0,0.0,0.0,0.0,0.0,0.0,0.0,0.0,0.0,0.0,0.0,0.0,0.0,0.0,0.0,0.0,0.0,0.0,0.0,0.0,0.0,0.0,-1.0779,0.0,-1.1706,-1.1269,-1.0763,-1.0219,0.0,0.0,0.0,0.0,0.0,0.0,0.0,0.0,0.0,0.0,0.0,0.0,0.0,0.0,0.0,0.0,0.0,0.0,0.0,0.0,0.0,0.0,0.0,0.0,0.0,0.0,0.0,0.0,0.0,0.0,0.0,0.0,0.0,0.0,0.0,0.0,0.0,0.0,0.0,0.0,0.0,0.0,0.0,0.0,0.0,0.0,0.0,0.0,0.0,0.0,0.0,0.0,0.0,0.0,0.0,0.0,0.0,0.0,0.0,0.0,0.0,0.0,0.0,0.0,0.0,0.0,0.0,0.0,0.0,0.0,0.0,0.0,0.0,0.0,0.0,0.0,0.0,0.0,0.0,0.0,0.0,0.0,0.0,0.0,0.0,0.0,0.0,0.0,0.0,0.0,0.0,0.0,0.0,0.0,0.0,0.0,0.0,0.0,0.0,0.0,0.0,0.0,0.0,0.0,0.0,0.0,0.0,0.0,0.0,-1.1651,-1.1754,-1.3078,-1.2234,-1.0957,0.0,0.0,0.0,0.0,0.0,0.0,0.0,0.0,0.0,0.0,0.0,0.0,0.0,0.0,0.0,0.0,0.0,0.0,0.0,0.0,0.0,0.0,0.0,0.0,0.0,0.0,0.0,0.0,0.0,0.0,0.0,0.0,0.0,0.0,0.0,0.0,0.0,0.0,0.0,0.0,0.0,0.0,0.0,0.0,0.0,0.0,0.0,0.0,0.0,0.0,0.0,0.0,0.0,0.0,0.0,0.0,0.0,0.0,0.0,0.0,0.0,0.0,0.0,0.0,0.0,0.0,0.0,0.0,0.0,0.0,0.0,0.0,0.0,0.0,0.0,0.0,0.0,0.0,0.0,0.0,0.0,0.0,0.0,0.0,0.0,0.0,0.0,0.0,0.0,0.0,0.0,0.0,0.0,0.0,0.0,0.0,0.0,0.0,0.0,0.0,0.0,0.0,0.0,0.0,0.0,0.0,0.0,0.0,0.0,-0.9349,-1.0126,-1.2037,-1.4929,-1.2334,-1.0965,0.0,0.0,0.0,0.0,0.0,0.0,0.0,0.0,0.0,0.0,0.0,0.0,0.0,0.0,0.0,0.0,0.0,0.0,0.0,0.0,0.0,0.0,0.0,0.0,0.0,0.0,0.0,0.0,0.0,0.0,0.0,0.0,0.0,0.0,0.0,0.0,0.0,0.0,0.0,0.0,0.0,0.0,0.0,0.0,0.0,0.0,0.0,0.0,0.0,0.0,0.0,0.0,0.0,0.0,0.0,0.0,0.0,0.0,0.0,0.0,0.0,0.0,0.0,0.0,0.0,0.0,0.0,0.0,0.0,0.0,0.0,0.0,0.0,0.0,0.0,0.0,0.0,0.0,0.0,0.0,0.0,0.0,0.0,0.0,0.0,0.0,0.0,0.0,0.0,0.0,0.0,0.0,0.0,0.0,0.0,0.0,0.0,0.0,0.0,0.0,0.0,0.0,0.0,0.0,0.0,0.0,0.0,0.0,0.0,-0.9203,0.0,-1.3123,0.0,-1.2675,-1.1136,0.0,0.0,0.0,0.0,0.0,0.0,0.0,0.0,0.0,0.0,0.0,0.0,0.0,0.0,0.0,0.0,0.0,0.0,0.0,0.0,0.0,0.0,0.0,0.0,0.0,0.0,0.0,0.0,0.0,0.0,0.0,0.0,0.0,0.0,0.0,0.0,0.0,0.0,0.0,0.0,0.0,0.0,0.0,0.0,0.0,0.0,0.0,0.0,0.0,0.0,0.0,0.0,0.0,0.0,0.0,0.0,0.0,0.0,0.0,0.0,0.0,0.0,0.0,0.0,0.0,0.0,0.0,0.0,0.0,0.0,0.0,0.0,0.0,0.0,0.0,0.0,0.0,0.0,0.0,0.0,0.0,0.0,0.0,0.0,0.0,0.0,0.0,0.0,0.0,0.0,0.0,0.0,0.0,0.0,0.0,0.0,0.0,0.0,0.0,0.0,0.0,0.0,0.0,0.0,0.0,0.0,0.0,0.0,-0.9274,-1.2798,-1.4583,-1.4961,-1.4007,-1.3277,-1.1491,0.0,0.0,0.0,0.0,0.0,0.0,0.0,0.0,0.0,0.0,0.0,0.0,0.0,0.0,0.0,0.0,0.0,0.0,0.0,0.0,0.0,0.0,0.0,0.0,0.0,0.0,0.0,0.0,0.0,0.0,0.0,0.0,0.0,0.0,0.0,0.0,0.0,0.0,0.0,0.0,0.0,0.0,0.0,0.0,0.0,0.0,0.0,0.0,0.0,0.0,0.0,0.0,0.0,0.0,0.0,0.0,0.0,0.0,0.0,0.0,0.0,0.0,0.0,0.0,0.0,0.0,0.0,0.0,0.0,0.0,0.0,0.0,0.0,0.0,0.0,0.0,0.0,0.0,0.0,0.0,0.0,0.0,0.0,0.0,0.0,0.0,0.0,0.0,0.0,0.0,0.0,0.0,0.0,0.0,0.0,0.0,0.0,0.0,0.0,0.0,0.0,0.0,0.0,0.0,0.0,0.0,0.0,0.0,0.0,-1.2307,-1.3305,-1.4621,-1.6066,-1.3277,-1.178,0.0,0.0,0.0,0.0,0.0,0.0,0.0,0.0,0.0,0.0,0.0,0.0,0.0,0.0,0.0,0.0,0.0,0.0,0.0,0.0,0.0,0.0,0.0,0.0,0.0,0.0,0.0,0.0,0.0,0.0,0.0,0.0,0.0,0.0,0.0,0.0,0.0,0.0,0.0,0.0,0.0,0.0,0.0,0.0,0.0,0.0,0.0,0.0,0.0,0.0,0.0,0.0,0.0,0.0,0.0,0.0,0.0,0.0,0.0,0.0,0.0,0.0,0.0,0.0,0.0,0.0,0.0,0.0,0.0,0.0,0.0,0.0,0.0,0.0,0.0,0.0,0.0,0.0,0.0,0.0,0.0,0.0,0.0,0.0,0.0,0.0,0.0,0.0,0.0,0.0,0.0,0.0,0.0,0.0,0.0,0.0,0.0,0.0,0.0,0.0,0.0,0.0,0.0,0.0,0.0,0.0,0.0,0.0,0.0,-1.4457,-1.5047,-1.6036,-1.7376,-1.4424,-1.2871,-1.2928,0.0,0.0,0.0,0.0,0.0,0.0,0.0,0.0,0.0,0.0,0.0,0.0,0.0,0.0,0.0,0.0,0.0,0.0,0.0,0.0,0.0,0.0,0.0,0.0,0.0,0.0,0.0,0.0,0.0,0.0,0.0,0.0,0.0,0.0,0.0,0.0,0.0,0.0,0.0,0.0,0.0,0.0,0.0,0.0,0.0,0.0,0.0,0.0,0.0,0.0,0.0,0.0,0.0,0.0,0.0,0.0,0.0,0.0,0.0,0.0,0.0,0.0,0.0,0.0,0.0,0.0,0.0,0.0,0.0,0.0,0.0,0.0,0.0,0.0,0.0,0.0,0.0,0.0,0.0,0.0,0.0,0.0,0.0,0.0,0.0,0.0,0.0,0.0,0.0,0.0,0.0,0.0,0.0,0.0,0.0,0.0,0.0,0.0,0.0,0.0,0.0,0.0,0.0,0.0,0.0,0.0,0.0,0.0,-1.8568,-1.9228,-1.9003,-1.7927,-1.6536,-1.468,0.0,0.0,0.0,0.0,0.0,0.0,0.0,0.0,0.0,0.0,0.0,0.0,0.0,0.0,0.0,0.0,0.0,0.0,0.0,0.0,0.0,0.0,0.0,0.0,0.0,0.0,0.0,0.0,0.0,0.0,0.0,0.0,0.0,0.0,0.0,0.0,0.0,0.0,0.0,0.0,0.0,0.0,0.0,0.0,0.0,0.0,0.0,0.0,0.0,0.0,0.0,0.0,0.0,0.0,0.0,0.0,0.0,0.0,0.0,0.0,0.0,0.0,0.0,0.0,0.0,0.0,0.0,0.0,0.0,0.0,0.0,0.0,0.0,0.0,0.0,0.0,0.0,0.0,0.0,0.0,0.0,0.0,0.0,0.0,0.0,0.0,0.0,0.0,0.0,0.0,0.0,0.0,0.0,0.0,0.0,0.0,0.0,0.0,0.0,0.0,0.0,0.0,0.0,0.0,0.0,0.0,0.0,0.0,0.0,-1.9824,-2.092,-2.1336,-2.0956,-1.8475,-1.6368,0.0,0.0,0.0,0.0,0.0,0.0,0.0,0.0,0.0,0.0,0.0,0.0,0.0,0.0,0.0,0.0,0.0,0.0,0.0,0.0,0.0,0.0,0.0,0.0,0.0,0.0,0.0,0.0,0.0,0.0,0.0,0.0,0.0,0.0,0.0,0.0,0.0,0.0,0.0,0.0,0.0,0.0,0.0,0.0,0.0,0.0,0.0,0.0,0.0,0.0,0.0,0.0,0.0,0.0,0.0,0.0,0.0,0.0,0.0,0.0,0.0,0.0,0.0,0.0,0.0,0.0,0.0,0.0,0.0,0.0,0.0,0.0,0.0,0.0,0.0,0.0,0.0,0.0,0.0,0.0,0.0,0.0,0.0,0.0,0.0,0.0,0.0,0.0,0.0,0.0,0.0,0.0,0.0,0.0,0.0,0.0,0.0,0.0,0.0,0.0,0.0,0.0,0.0,0.0,0.0,0.0,0.0,0.0,-1.8658,-2.1102,-2.2615,-2.3389,-2.3375,-2.09,-1.8461,0.0,0.0,0.0,0.0,0.0,0.0,0.0,0.0,0.0,0.0,0.0,0.0,0.0,0.0,0.0,0.0,0.0,0.0,0.0,0.0,0.0,0.0,0.0,0.0,0.0,0.0,0.0,0.0,0.0,0.0,0.0,0.0,0.0,0.0,0.0,0.0,0.0,0.0,0.0,0.0,0.0,0.0,0.0,0.0,0.0,0.0,0.0,0.0,0.0,0.0,0.0,0.0,0.0,0.0,0.0,0.0,0.0,0.0,0.0,0.0,0.0,0.0,0.0,0.0,0.0,0.0,0.0,0.0,0.0,0.0,0.0,0.0,0.0,0.0,0.0,0.0,0.0,0.0,0.0,0.0,0.0,0.0,0.0,0.0,0.0,0.0,0.0,0.0,0.0,0.0,0.0,0.0,0.0,0.0,0.0,0.0,0.0,0.0,0.0,0.0,0.0,0.0,0.0,0.0,0.0,0.0,0.0,0.0,-1.988,-2.2264,-2.4078,-2.5006,-2.495,-2.3122,-2.0456,0.0,0.0,0.0,0.0,0.0,0.0,0.0,0.0,0.0,0.0,0.0,0.0,0.0,0.0,0.0,0.0,0.0,0.0,0.0,0.0,0.0,0.0,0.0,0.0,0.0,0.0,0.0,0.0,0.0,0.0,0.0,0.0,0.0,0.0,0.0,0.0,0.0,0.0,0.0,0.0,0.0,0.0,0.0,0.0,0.0,0.0,0.0,0.0,0.0,0.0,0.0,0.0,0.0,0.0,0.0,0.0,0.0,0.0,0.0,0.0,0.0,0.0,0.0,0.0,0.0,0.0,0.0,0.0,0.0,0.0,0.0,0.0,0.0,0.0,0.0,0.0,0.0,0.0,0.0,0.0,0.0,0.0,0.0,0.0,0.0,0.0,0.0,0.0,0.0,0.0,0.0,0.0,0.0,0.0,0.0,0.0,0.0,0.0,0.0,0.0,0.0,0.0,0.0,0.0,0.0,0.0,0.0,0.0,-2.0948,-2.2873,-2.4289,-2.5006,-2.4992,-2.2714,-2.0436,0.0,0.0,0.0,0.0,0.0,0.0,0.0,0.0,0.0,0.0,0.0,0.0,0.0,0.0,0.0,0.0,0.0,0.0,0.0,0.0,0.0,0.0,0.0,0.0,0.0,0.0,0.0,0.0,0.0,0.0,0.0,0.0,0.0,0.0,0.0,0.0,0.0,0.0,0.0,0.0,0.0,0.0,0.0,0.0,0.0,0.0,0.0,0.0,-1.1988,0.0,0.0,0.0,0.0,0.0,0.0,0.0,0.0,0.0,0.0,0.0,0.0,0.0,0.0,0.0,0.0,0.0,0.0,0.0,0.0,0.0,0.0,0.0,0.0,0.0,0.0,0.0,0.0,0.0,0.0,0.0,0.0,0.0,0.0,0.0,0.0,0.0,0.0,0.0,0.0,0.0,0.0,0.0,0.0,0.0,0.0,0.0,0.0,0.0,0.0,0.0,0.0,0.0,0.0,0.0,0.0,0.0,0.0,0.0,-2.1575,-2.3069,-2.4615,-2.5302,-2.4964,-2.315,-2.1131,0.0,0.0,0.0,0.0,0.0,0.0,0.0,0.0,0.0,0.0,0.0,0.0,0.0,0.0,0.0,0.0,0.0,0.0,0.0,0.0,0.0,0.0,0.0,0.0,0.0,0.0,0.0,0.0,0.0,0.0,0.0,0.0,0.0,0.0,0.0,0.0,0.0,0.0,0.0,0.0,0.0,0.0,0.0,0.0,0.0,0.0,0.0,0.0,0.0,0.0,0.0,0.0,0.0,0.0,0.0,0.0,0.0,0.0,0.0,0.0,0.0,0.0,0.0,0.0,0.0,0.0,0.0,0.0,0.0,0.0,0.0,0.0,0.0,0.0,0.0,0.0,0.0,0.0,0.0,0.0,0.0,0.0,0.0,0.0,0.0,0.0,0.0,0.0,0.0,0.0,0.0,0.0,0.0,0.0,0.0,0.0,0.0,0.0,0.0,0.0,0.0,0.0,0.0,0.0,0.0,0.0,0.0,-1.9451,-2.1842,-2.3262,-2.498,-2.5598,-2.5006,-2.3856,-2.2044,-1.9494,0.0,0.0,0.0,0.0,0.0,0.0,0.0,0.0,0.0,0.0,0.0,0.0,0.0,0.0,0.0,0.0,0.0,0.0,0.0,0.0,0.0,0.0,0.0,0.0,0.0,0.0,0.0,0.0,0.0,0.0,0.0,0.0,0.0,0.0,0.0,0.0,0.0,0.0,-1.0097,-1.1731,0.0,0.0,0.0,0.0,0.0,0.0,0.0,0.0,-1.3509,0.0,0.0,0.0,0.0,0.0,0.0,0.0,0.0,0.0,0.0,0.0,0.0,0.0,0.0,0.0,0.0,0.0,0.0,0.0,0.0,0.0,0.0,0.0,0.0,0.0,0.0,0.0,0.0,0.0,0.0,0.0,0.0,0.0,0.0,0.0,0.0,0.0,0.0,0.0,0.0,0.0,0.0,0.0,0.0,0.0,0.0,0.0,0.0,0.0,0.0,0.0,0.0,0.0,0.0,0.0,0.0,-1.7993,-1.9698,-2.1636,-2.3906,-2.5205,-2.5639,-2.5021,-2.4303,-2.2493,-1.9488,0.0,0.0,0.0,0.0,0.0,0.0,0.0,0.0,0.0,0.0,0.0,0.0,0.0,0.0,0.0,0.0,0.0,0.0,0.0,0.0,0.0,0.0,0.0,0.0,0.0,0.0,0.0,0.0,0.0,0.0,0.0,0.0,0.0,0.0,0.0,0.0,0.0,0.0,0.0,-1.4227,-1.5563,0.0,0.0,0.0,0.0,0.0,0.0,0.0,0.0,-1.4371,0.0,0.0,0.0,0.0,0.0,0.0,0.0,0.0,0.0,0.0,0.0,0.0,0.0,0.0,0.0,0.0,0.0,0.0,0.0,0.0,0.0,0.0,0.0,0.0,0.0,0.0,0.0,0.0,0.0,0.0,0.0,0.0,0.0,0.0,0.0,0.0,0.0,0.0,0.0,0.0,0.0,0.0,0.0,0.0,0.0,0.0,0.0,0.0,0.0,0.0,0.0,0.0,0.0,0.0,0.0,-1.7478,-2.0035,-2.2236,-2.4036,-2.5261,-2.5444,-2.4542,-2.3614,-2.1791,0.0,0.0,0.0,0.0,0.0,0.0,0.0,0.0,0.0,0.0,0.0,0.0,0.0,0.0,0.0,0.0,0.0,0.0,0.0,0.0,0.0,0.0,0.0,0.0,0.0,0.0,0.0,0.0,0.0,0.0,0.0,0.0,0.0,0.0,0.0,0.0,0.0,0.0,0.0,0.0,-1.4912,-1.5854,-1.6721,0.0,0.0,0.0,0.0,0.0,0.0,-1.5332,-1.4821,0.0,0.0,0.0,0.0,0.0,0.0,0.0,0.0,0.0,0.0,0.0,0.0,0.0,0.0,0.0,0.0,0.0,0.0,0.0,0.0,0.0,0.0,0.0,0.0,0.0,0.0,0.0,0.0,0.0,0.0,0.0,0.0,0.0,0.0,0.0,0.0,0.0,0.0,0.0,0.0,0.0,0.0,0.0,0.0,0.0,0.0,0.0,0.0,0.0,0.0,0.0,0.0,0.0,0.0,0.0,-1.6708,-2.0098,-2.2573,-2.405,-2.5288,-2.533,-2.4146,-2.2995,-2.1102,0.0,0.0,0.0,0.0,0.0,0.0,0.0,0.0,0.0,0.0,0.0,0.0,0.0,0.0,0.0,0.0,0.0,0.0,0.0,0.0,0.0,0.0,0.0,0.0,0.0,0.0,0.0,0.0,0.0,0.0,0.0,0.0,0.0,0.0,0.0,0.0,0.0,0.0,0.0,0.0,0.0,-1.6244,-1.7452,-1.6606,0.0,0.0,0.0,0.0,-1.7104,-1.6369,0.0,0.0,0.0,0.0,0.0,0.0,0.0,0.0,0.0,0.0,0.0,0.0,0.0,0.0,0.0,0.0,0.0,0.0,0.0,0.0,0.0,0.0,0.0,0.0,0.0,0.0,0.0,0.0,0.0,0.0,0.0,0.0,0.0,0.0,0.0,0.0,0.0,0.0,0.0,0.0,0.0,0.0,0.0,0.0,0.0,0.0,0.0,0.0,0.0,0.0,0.0,0.0,0.0,0.0,0.0,0.0,-1.6638,-1.9276,-2.1744,-2.4008,-2.5261,-2.5303,-2.412,-2.3389,-2.1327,0.0,0.0,0.0,0.0,0.0,0.0,0.0,0.0,0.0,0.0,0.0,0.0,0.0,0.0,0.0,0.0,0.0,0.0,0.0,0.0,0.0,0.0,0.0,0.0,0.0,0.0,0.0,0.0,0.0,0.0,0.0,0.0,0.0,0.0,0.0,0.0,0.0,0.0,0.0,0.0,0.0,-1.8241,-1.7904,-1.773,-1.7634,0.0,0.0,-1.8208,-1.7722,-1.8322,0.0,0.0,0.0,0.0,0.0,0.0,0.0,0.0,0.0,0.0,0.0,0.0,0.0,0.0,0.0,0.0,0.0,0.0,0.0,0.0,0.0,0.0,0.0,0.0,0.0,0.0,0.0,0.0,0.0,0.0,0.0,0.0,0.0,0.0,0.0,0.0,0.0,0.0,0.0,0.0,0.0,0.0,0.0,0.0,0.0,0.0,0.0,0.0,0.0,0.0,0.0,0.0,0.0,0.0,0.0,-1.3671,-1.668,-1.9479,-2.194,-2.4008,-2.4613,-2.4627,-2.4106,-2.2451,-2.0316,0.0,0.0,0.0,0.0,0.0,0.0,0.0,0.0,0.0,0.0,0.0,0.0,0.0,0.0,0.0,0.0,0.0,0.0,0.0,0.0,0.0,0.0,0.0,0.0,0.0,0.0,0.0,0.0,0.0,0.0,0.0,0.0,0.0,0.0,0.0,0.0,0.0,0.0,0.0,0.0,0.0,0.0,-1.8807,-1.8527,0.0,0.0,0.0,-1.88,-1.9188,0.0,0.0,0.0,0.0,0.0,0.0,0.0,0.0,0.0,0.0,0.0,0.0,0.0,0.0,0.0,0.0,0.0,0.0,0.0,0.0,0.0,0.0,0.0,0.0,0.0,0.0,0.0,0.0,0.0,0.0,0.0,0.0,0.0,0.0,0.0,0.0,0.0,0.0,0.0,0.0,0.0,0.0,0.0,0.0,0.0,0.0,0.0,0.0,0.0,0.0,0.0,0.0,0.0,0.0,0.0,0.0,0.0,-1.6919,-1.9823,-2.2123,-2.3783,-2.4008,-2.4022,-2.3811,-2.1758,0.0,0.0,0.0,0.0,0.0,0.0,0.0,0.0,0.0,0.0,0.0,0.0,0.0,0.0,0.0,0.0,0.0,0.0,0.0,0.0,0.0,0.0,0.0,0.0,0.0,0.0,0.0,-0.7743,0.0,0.0,0.0,0.0,0.0,0.0,0.0,0.0,0.0,0.0,0.0,0.0,0.0,0.0,-1.8522,-1.9273,-1.9191,-1.9391,0.0,0.0,-1.9504,-2.0063,-1.9627,-1.884,0.0,0.0,0.0,0.0,0.0,0.0,0.0,0.0,0.0,0.0,0.0,0.0,0.0,0.0,0.0,0.0,0.0,0.0,0.0,0.0,0.0,0.0,0.0,0.0,0.0,0.0,0.0,0.0,0.0,0.0,0.0,0.0,0.0,0.0,0.0,0.0,0.0,0.0,0.0,0.0,0.0,0.0,0.0,0.0,0.0,0.0,0.0,0.0,0.0,0.0,0.0,0.0,0.0,0.0,0.0,-1.7506,-2.0014,-2.1898,-2.3126,-2.3783,-2.3797,-2.3168,-2.1912,-1.9852,0.0,0.0,0.0,0.0,0.0,0.0,0.0,0.0,0.0,0.0,0.0,0.0,0.0,0.0,0.0,0.0,0.0,0.0,0.0,0.0,0.0,0.0,0.0,0.0,0.0,0.0,0.0,0.0,0.0,0.0,0.0,0.0,0.0,0.0,0.0,0.0,0.0,0.0,0.0,0.0,0.0,-1.9353,-1.8758,-1.9644,-2.038,0.0,0.0,-2.0832,-1.9649,-2.04,-2.0309,-1.7983,0.0,0.0,0.0,0.0,0.0,0.0,0.0,0.0,0.0,0.0,0.0,0.0,0.0,0.0,0.0,0.0,0.0,0.0,0.0,0.0,0.0,0.0,0.0,0.0,0.0,0.0,0.0,0.0,0.0,0.0,0.0,0.0,0.0,0.0,0.0,0.0,0.0,0.0,0.0,0.0,0.0,0.0,0.0,0.0,0.0,0.0,0.0,0.0,0.0,0.0,0.0,0.0,0.0,-1.4514,-1.7562,-1.969,-2.1496,-2.3013,-2.3009,-2.2995,-2.3097,-2.1566,-1.981,0.0,0.0,0.0,0.0,0.0,0.0,0.0,0.0,0.0,0.0,0.0,0.0,0.0,0.0,0.0,0.0,0.0,0.0,0.0,0.0,0.0,0.0,0.0,0.0,0.0,0.0,0.0,0.0,-0.9138,-0.934,-0.9025,0.0,0.0,0.0,0.0,0.0,0.0,0.0,0.0,0.0,0.0,-1.9804,-2.0267,-2.0719,0.0,0.0,-2.1738,-2.1724,-2.1201,-2.1201,-2.0703,-1.8975,-1.7899,0.0,0.0,0.0,0.0,0.0,0.0,0.0,0.0,0.0,0.0,0.0,0.0,0.0,0.0,0.0,0.0,0.0,0.0,0.0,0.0,0.0,0.0,0.0,0.0,0.0,0.0,0.0,0.0,0.0,0.0,0.0,0.0,0.0,0.0,0.0,0.0,0.0,0.0,0.0,0.0,0.0,0.0,0.0,0.0,0.0,0.0,0.0,0.0,0.0,0.0,0.0,0.0,-1.4613,-1.7843,-1.9529,-2.1187,-2.2802,-2.2419,-2.2419,-2.2774,-2.1426,-1.9993,0.0,0.0,0.0,0.0,0.0,0.0,0.0,0.0,0.0,0.0,0.0,0.0,0.0,0.0,0.0,0.0,0.0,0.0,0.0,0.0,0.0,0.0,0.0,0.0,0.0,0.0,0.0,0.0,-0.9719,-0.9808,-0.9408,0.0,0.0,0.0,0.0,0.0,0.0,0.0,0.0,0.0,0.0,-2.0415,-2.1256,-2.1479,-2.1786,-2.2376,-2.232,-2.2194,-2.2194,-2.1842,-2.1153,-1.9887,0.0,0.0,0.0,0.0,0.0,0.0,0.0,0.0,0.0,0.0,0.0,0.0,0.0,0.0,0.0,0.0,0.0,0.0,0.0,0.0,0.0,0.0,0.0,0.0,0.0,0.0,0.0,-0.8272,0.0,0.0,-0.7188,0.0,0.0,0.0,0.0,0.0,0.0,0.0,0.0,0.0,0.0,0.0,0.0,0.0,0.0,0.0,0.0,0.0,0.0,0.0,0.0,0.0,0.0,-1.4808,-1.8428,-1.9747,-2.1004,-2.2194,-2.2208,-2.2208,-2.2208,-2.1626,-2.0407,-1.8526,0.0,0.0,0.0,0.0,0.0,0.0,0.0,0.0,0.0,0.0,0.0,0.0,0.0,0.0,0.0,0.0,0.0,0.0,0.0,0.0,0.0,0.0,0.0,0.0,0.0,0.0,-0.9269,-0.9384,-0.9485,0.0,0.0,0.0,0.0,0.0,0.0,0.0,0.0,0.0,0.0,-1.9822,-2.1355,-2.1344,-2.1814,-2.2405,-2.2999,-2.2615,-2.2236,-2.225,-2.2208,-2.1772,0.0,0.0,0.0,0.0,0.0,0.0,0.0,0.0,0.0,0.0,0.0,0.0,0.0,0.0,0.0,0.0,0.0,0.0,0.0,0.0,0.0,0.0,0.0,0.0,0.0,0.0,0.0,-1.1933,-1.0974,0.0,0.0,0.0,0.0,0.0,0.0,0.0,0.0,0.0,0.0,0.0,-1.9029,-1.9594,0.0,0.0,0.0,0.0,0.0,0.0,0.0,0.0,0.0,0.0,0.0,0.0,-1.582,-1.8975,-2.0344,-2.1392,-2.2165,-2.2194,-2.2194,-2.2194,-2.1603,-2.0225,-1.7964,0.0,0.0,0.0,0.0,0.0,0.0,0.0,0.0,0.0,0.0,0.0,0.0,0.0,0.0,0.0,0.0,0.0,0.0,0.0,0.0,0.0,0.0,0.0,0.0,0.0,-0.9217,0.0,0.0,0.0,0.0,0.0,0.0,0.0,0.0,0.0,0.0,0.0,-1.9282,-1.9999,-2.1147,-2.2076,-2.2447,-2.2662,-2.3013,0.0,0.0,0.0,0.0,0.0,0.0,0.0,0.0,0.0,0.0,0.0,0.0,0.0,0.0,-2.0969,-1.8339,-1.7231,-1.6826,-1.7225,0.0,0.0,0.0,0.0,0.0,0.0,0.0,0.0,0.0,0.0,0.0,0.0,0.0,0.0,-1.5069,0.0,-1.3837,0.0,0.0,0.0,0.0,0.0,0.0,0.0,0.0,-1.9563,-2.0889,-2.1484,-2.2047,-2.1995,0.0,-2.0804,-1.8906,0.0,0.0,0.0,0.0,0.0,0.0,0.0,0.0,-1.6758,-1.9305,-2.0661,-2.1575,-2.2165,-2.2194,-2.2194,-2.2194,-2.1603,-2.0273,-1.8079,-1.6964,-1.563,0.0,0.0,0.0,0.0,0.0,0.0,0.0,0.0,0.0,0.0,0.0,0.0,0.0,0.0,0.0,0.0,0.0,0.0,0.0,0.0,0.0,0.0,0.0,-1.0007,0.0,0.0,0.0,0.0,0.0,0.0,0.0,0.0,0.0,-1.7396,-1.9208,-2.0937,-2.2118,-2.2601,-2.3094,-2.3659,0.0,0.0,0.0,0.0,0.0,0.0,0.0,-2.432,-2.4109,-2.3614,-2.3136,-2.2897,-2.3361,-2.3617,-2.3182,0.0,0.0,-2.0726,-1.9601,-1.9188,-1.9551,-1.9867,-1.9995,-1.9803,-2.0371,-2.0715,0.0,0.0,0.0,0.0,0.0,0.0,0.0,0.0,-1.902,-1.89,0.0,-1.7612,0.0,0.0,0.0,0.0,0.0,-1.8332,0.0,0.0,-2.2625,-2.3755,-2.321,-2.3839,-2.3797,-2.321,-2.3769,-2.3066,-2.1133,-1.7098,0.0,0.0,0.0,0.0,0.0,0.0,-1.7702,-1.9508,-2.0757,-2.165,-2.2184,-2.2212,-2.2175,-2.2133,-2.158,-2.0484,-1.8895,-1.8378,-1.6948,-1.4335,-1.3245,0.0,0.0,0.0,0.0,0.0,0.0,0.0,0.0,0.0,0.0,0.0,0.0,0.0,0.0,0.0,0.0,0.0,0.0,0.0,0.0,-1.0433,0.0,0.0,0.0,0.0,0.0,0.0,0.0,0.0,0.0,0.0,-1.899,-2.0865,-2.2742,-2.3938,0.0,0.0,0.0,0.0,-2.4613,-2.5808,-2.5458,-2.5527,-2.6638,-2.6793,-2.6568,-2.6034,0.0,0.0,-2.4514,-2.4711,-2.4739,-2.3505,-2.3923,-2.4205,-2.4146,-2.3442,-2.2981,-2.2971,-2.2531,-2.2264,-2.2236,-2.2189,-2.2254,-2.3037,0.0,0.0,0.0,0.0,-2.1391,-2.229,-2.3032,-2.2786,-2.2294,-2.1611,-2.0522,0.0,0.0,0.0,0.0,0.0,0.0,-2.148,-2.2244,-2.3586,-2.4284,-2.446,-2.5078,-2.505,-2.446,-2.4655,-2.3994,-2.2587,-2.1327,-1.924,-1.6312,0.0,0.0,0.0,0.0,-2.0042,-2.1361,-2.2418,-2.2817,-2.2578,-2.2369,-2.2065,-2.164,-2.1041,-2.0298,-1.9388,-1.857,-1.7605,-1.6414,-1.4914,0.0,0.0,0.0,0.0,0.0,0.0,0.0,0.0,0.0,0.0,0.0,0.0,0.0,0.0,0.0,0.0,0.0,0.0,0.0,-1.0433,-1.1282,-1.204,0.0,0.0,0.0,0.0,0.0,0.0,0.0,0.0,0.0,-2.3051,-2.3741,-2.4331,0.0,0.0,-2.5936,-2.5669,-2.5851,-2.6315,-2.7158,-2.7116,0.0,-2.7439,-2.7116,-2.6905,-2.7186,-2.7411,-2.7326,-2.6835,-2.6891,-2.6891,-2.6483,-2.661,-2.6596,-2.6034,-2.481,-2.3895,-2.3783,-2.3656,-2.3558,-2.3558,-2.3544,-2.3558,-2.7186,-2.5088,-2.3493,-2.3016,-2.3368,-2.3961,-2.4695,-2.5451,-2.5074,-2.4677,-2.4216,-2.3795,-2.3045,-2.2107,-2.1383,0.0,0.0,0.0,-2.3847,-2.4707,-2.5327,-2.5779,-2.6132,-2.6483,-2.6315,-2.5725,-2.5711,-2.5191,-2.4207,-2.3955,-2.2606,-2.0225,0.0,0.0,-1.9465,-2.0779,-2.1819,-2.255,-2.3373,-2.3492,-2.2867,-2.247,-2.2021,-2.1568,-2.1008,-2.0279,-1.9387,-1.8671,-1.7906,-1.7136,-1.5715,-1.443,0.0,0.0,0.0,0.0,0.0,0.0,0.0,0.0,0.0,0.0,0.0,-0.9982,0.0,0.0,0.0,0.0,-0.9658,-1.0914,-1.2757,-1.3698,0.0,0.0,0.0,0.0,0.0,0.0,0.0,-2.2108,-2.3639,-2.4952,-2.595,-2.6328,-2.6483,-2.6441,-2.6877,-2.7144,-2.7017,0.0,-2.7425,-2.8043,-2.8157,-2.8226,-2.848,-2.8169,-2.8057,-2.8436,-2.8507,-2.8424,-2.8199,-2.8171,-2.8087,-2.7876,-2.7805,-2.7679,-2.7256,-2.6286,-2.5372,-2.4922,-2.481,-2.4824,-2.481,-2.481,-2.4824,-3.0682,-2.997,-2.7173,-2.5842,-2.5657,-2.6189,-2.6461,-2.6503,-2.6461,-2.6369,-2.6289,-2.6972,-2.6582,-2.5411,-2.4906,0.0,-2.5325,-2.5945,-2.644,-2.6905,-2.7509,-2.7805,-2.7805,-2.7791,-2.7496,-2.6877,-2.6891,-2.6568,-2.595,-2.5388,-2.4812,-2.4154,-2.3041,-2.2419,-2.232,-2.2901,-2.3252,-2.3203,-2.3809,-2.3769,-2.3035,-2.2458,-2.1963,-2.1629,-2.1134,-2.0256,-1.9008,-1.8592,-1.7916,-1.6913,-1.593,-1.4922,-1.3787,0.0,0.0,0.0,0.0,0.0,0.0,0.0,0.0,0.0,0.0,0.0,0.0,0.0,0.0,0.0,-1.2461,0.0,-1.5747,-1.6968,0.0,0.0,0.0,-1.9957,-2.0751,-2.2297,-2.3786,-2.5006,0.0,0.0,-2.7805,-2.841,-2.8759,-2.8774,-2.8298,-2.8113,-2.8619,-2.824,-2.8157,-2.8689,-2.8759,-2.8956,-2.9392,-2.9476,-2.9448,-2.9476,-2.9602,-2.935,-2.8886,-2.8774,-2.8521,-2.8129,-2.796,-2.7946,-2.789,-2.7791,-2.7496,-2.6259,-2.6034,-2.6048,-2.6048,-2.6048,-2.602,-3.0964,-3.1181,-2.9882,-2.8931,-2.8282,-2.8371,-2.8717,-2.9128,-2.8617,-2.8401,-2.8366,-2.8081,-2.7726,-2.7327,-2.7202,-2.7145,-2.7187,-2.7328,-2.744,-2.758,-2.7735,-2.7805,-2.7805,-2.7805,-2.7721,-2.758,-2.758,-2.7228,-2.661,-2.6441,-2.5841,-2.4847,-2.4936,-2.4292,-2.2995,-2.3983,-2.4441,-2.4166,-2.4341,-2.3686,-2.2232,-2.185,-2.1198,-2.0287,-1.9913,-1.9269,-1.8358,-1.7798,-1.7461,-1.7337,-1.6767,-1.6047,-1.523,-1.3502,0.0,0.0,0.0,0.0,0.0,0.0,0.0,0.0,0.0,-1.3361,-1.0419,0.0,-1.4387,0.0,-1.4345,-1.5803,-1.7642,-1.8091,0.0,0.0,-2.1566,-2.2325,-2.4362,-2.4966,-2.5514,-2.6287,-2.7481,-2.8296,-2.8464,-2.9012,-2.9392,-2.9378,-2.9251,-2.9069,-2.8759,-2.8998,-2.9223,-2.9336,-2.9364,-2.9434,-2.956,-2.9602,-2.9602,-2.9602,-2.9602,-2.956,-2.942,-2.9392,-2.9336,-2.9195,-2.9181,-2.9012,-2.8549,-2.8478,-2.8241,-2.7538,-2.7369,-2.7355,-2.7355,-2.7341,-2.72,-3.2073,-3.2312,-3.1241,-3.0759,-3.0583,-2.9959,-2.9683,-2.9668,-2.9278,-2.8816,-2.8273,-2.8329,-2.8489,-2.8725,-2.8711,-2.8681,-2.8577,-2.8591,-2.8591,-2.8591,-2.8591,-2.8591,-2.8605,-2.8591,-2.845,-2.8213,-2.8213,-2.789,-2.727,-2.7242,-2.6762,-2.5839,-2.6134,-2.5655,-2.4432,-2.4798,-2.4901,-2.4737,-2.4181,-2.3411,-2.2463,-2.181,-2.1029,-2.0169,-1.9552,-1.8778,-1.7858,-1.735,-1.7096,-1.7128,-1.6701,-1.6224,-1.5698,-1.4248,-1.2855,0.0,0.0,0.0,0.0,0.0,0.0,0.0,0.0,0.0,0.0,0.0,-1.6508,-1.6382,-1.7221,-1.8672,-2.0793,-2.1468,-2.2493,-2.4165,-2.457,-2.5246,-2.6624,-2.6975,-2.7369,-2.7987,-2.8661,-2.9097,-2.9111,-2.9406,-2.9602,-2.9602,-2.9602,-2.949,-2.9209,-2.942,-2.9602,-2.9602,-2.9602,-2.9602,-2.9602,-2.9602,-2.9602,-2.9602,-2.9602,-2.9602,-2.9602,-2.9602,-2.9602,-2.9602,-2.9602,-2.9504,-2.9167,-2.9097,-2.8956,-2.8717,-2.8605,-2.8424,-2.7918,-2.7805,-2.7636,-3.3206,-3.3164,-3.1864,-3.1798,-3.2434,-3.1268,-3.0287,-2.95,-2.9372,-2.8698,-2.7672,-2.8505,-2.9205,-2.9729,-2.9635,-2.9624,-2.9617,-2.9495,-2.9509,-2.9602,-2.9602,-2.9602,-2.9602,-2.9602,-2.9321,-2.8816,-2.8816,-2.8493,-2.7932,-2.7918,-2.7536,-2.6833,-2.6792,-2.6512,-2.5896,-2.5285,-2.492,-2.4694,-2.3693,-2.3137,-2.3031,-2.2031,-2.1199,-2.0587,-1.9482,-1.8404,-1.7478,-1.7053,-1.6821,-1.6721,-1.6405,-1.6086,-1.5836,-1.4603,-1.3643,0.0,-1.2264,0.0,0.0,0.0,0.0,0.0,0.0,0.0,0.0,-1.7773,-1.8736,-1.9789,-2.0547,-2.1889,-2.4134,-2.5358,-2.6076,-2.6259,-2.7257,-2.7946,-2.8044,-2.8493,-2.9012,-2.9546,-2.9602,-2.9617,-2.9715,-2.9729,-2.9729,-2.9897,-2.9954,-2.9954,-2.9841,-2.9729,-2.9602,-2.9602,-2.9602,-2.9602,-2.9602,-2.9602,-2.9602,-2.9602,-2.9602,-2.9602,-2.9602,-2.9602,-2.9602,-2.9602,-2.9602,-2.9602,-2.9602,-2.9588,-2.9588,-2.9518,-2.9504,-2.9195,-2.838,-2.8098,-2.7928,-3.2704,-3.3192,-3.2316,-3.2382,-3.3094,-3.2863,-3.211,-3.1023,-3.0385,-2.9939,-2.9784,-3.0585,-3.0727,-3.0297,-2.9771,-2.9527,-2.9571,-2.898,-2.9044,-2.9602,-2.9602,-2.9602,-2.9602,-2.9602,-2.9546,-2.9434,-2.9434,-2.9111,-2.8521,-2.8521,-2.7931,-2.6834,-2.6788,-2.6496,-2.5887,0.0,0.0,0.0,-2.3449,-2.3338,-2.263,-2.2257,-2.1563,-2.0524,-1.8635,0.0,-1.7034,-1.6768,-1.6731,-1.6872,-1.714,0.0,0.0,0.0,0.0,0.0,0.0,0.0,0.0,0.0,0.0,0.0,-1.7883,-1.7977,-1.8224,-2.0555,-2.2156,-2.2409,-2.3449,-2.4528,-2.5458,-2.6202,-2.7045,-2.8043,-2.838,-2.8703,-2.9195,-2.9364,-2.949,-2.9588,-2.9602,-2.9813,-3.0249,-3.0315,-3.0544,-3.0979,-3.1134,-3.1134,-3.1092,-3.0263,-2.9659,-2.9602,-2.9631,-2.9602,-2.9602,-2.9602,-2.9602,-2.9602,-2.9602,-2.9602,-2.9602,-2.9602,-2.9602,-2.9602,-2.9602,-2.9602,-2.9602,-2.9602,-2.9602,-2.9602,-2.9602,-2.9546,-2.9307,-2.9021,-2.8723,-3.2931,0.0,-3.2426,-3.2583,0.0,-3.2881,-3.2583,-3.2296,-3.1113,-3.0226,-2.9614,-3.0521,-3.0493,-2.9781,-2.953,-2.9411,-2.9449,-2.9164,-2.923,-2.9571,-2.9602,-2.9602,-2.9602,-2.9602,-2.9602,-2.9602,-2.9602,-2.9448,-2.9153,-2.9139,-2.8649,-2.7765,-2.7727,-2.7266,-2.6323,-2.4962,-2.3771,-2.2756,-2.2829,-2.2614,-2.2115,-2.174,-2.1107,-2.0131,-1.8881,0.0,0.0,0.0,0.0,0.0,0.0,0.0,0.0,0.0,0.0,-1.5566,-1.5454,-1.5657,-1.6174,-1.699,-1.8205,-1.9866,-2.1073,-2.1339,-2.041,-2.2341,-2.3828,-2.4432,-2.5078,-2.5936,-2.7144,-2.7565,-2.8113,-2.9012,-2.9139,-2.9279,-2.9532,-2.9602,-2.9602,-2.9645,-2.9869,-3.0193,-3.0455,-3.0825,-3.112,-3.1429,-3.1485,-3.1513,-3.1443,-3.0965,-3.0459,-3.0094,-2.9771,-2.9602,-2.9602,-2.9602,-2.9617,-2.9602,-2.9602,-2.9602,-2.9602,-2.9602,-2.9602,-2.9602,-2.9602,-2.9602,-2.9602,-2.9602,-2.9602,-2.9602,-2.9602,-2.954,-2.9415,-2.932,-2.9282,-3.3276,-3.3241,-3.2583,-3.2704,-3.3241,-3.2583,-3.2618,-3.3002,0.0,0.0,0.0,-3.0423,-3.0387,-2.9702,-2.9651,-2.9652,-2.9697,-2.961,-2.9645,-2.9771,-2.9659,-2.9602,-2.9602,-2.9602,-2.9602,-2.9602,-2.9602,-2.9602,-2.9602,-2.9602,-2.935,-2.8872,-2.8715,-2.7968,-2.6593,-2.4736,-2.3475,-2.2932,-2.2292,-2.1925,-2.1831,-2.131,-2.0712,-2.0053,-1.9308,-1.8433,-1.7398,-1.7503,-1.7408,-1.7037,-1.7291,-1.7424,-1.7399,-1.7459,-1.7484,-1.7412,-1.7508,-1.7751,-1.8238,-1.9227,-2.025,-2.1332,-2.3415,-2.4118,-2.2775,-2.3854,-2.4992,-2.5978,-2.6259,-2.7031,-2.8535,-2.8802,-2.9055,-2.956,-2.9602,-2.9602,-2.9602,-2.9602,-2.9659,-2.9754,-3.0221,-3.061,-3.0862,-3.1331,-3.1696,-3.1808,-3.1907,-3.1822,-3.178,-3.1597,-3.1204,-3.0755,-3.0375,-3.001,-2.9968,-3.0024,-2.9912,-2.9855,-2.9799,-2.9743,-2.9631,-2.9602,-2.9602,-2.9602,-2.9602,-2.9602,-2.9602,-2.954,-2.9509,-2.9509,-2.9446,-2.9352,-2.9162,-2.9257,-2.9338,-3.3276,-3.3276,-3.3171,-3.3206,-3.3276,-3.3171,-3.281,-3.2318,-3.2753,-3.247,-3.1684,-3.2496,-3.2521,-3.1902,-3.1294,-3.1069,-3.1118,-3.0022,-2.9845,-3.0329,-2.9841,-2.9602,-2.9602,-2.9602,-2.9602,-2.9602,-2.9602,-2.9602,-2.9602,-2.9571,-2.9546,-2.9389,-2.868,-2.752,-2.6056,-2.513,-2.4185,-2.31,-2.2586,-2.231,-2.2279,-2.1759,-2.1461,-2.1243,-1.9315,-1.8162,-1.7997,-1.7746,-1.7505,-1.7343,-1.8062,-1.825,-1.7763,-1.7922,-1.781,-1.746,-1.7845,-1.8315,-1.8851,-1.9466,-2.0263,-2.1349,-2.2615,-2.3701,-2.4549,-2.5727,-2.6497,-2.6708,-2.7578,-2.838,-2.8717,-2.9153,-2.9476,-2.9588,-2.9602,-2.9602,-2.9617,-2.9631,-2.9827,-3.0259,-3.0427,-3.0975,-3.1864,-3.2188,-3.2469,-3.289,-3.2862,-3.3016,-3.2792,-3.2145,-3.1527,-3.1387,-3.1288,-3.1218,-3.1092,-3.1204,-3.0923,-3.0441,-3.0371,-3.0235,-2.9726,-2.9687,-2.9627,-2.9571,-2.9571,-2.9571,-2.9571,-2.9352,-2.9194,-2.9162,-2.8972,-2.8844,-2.8972,-2.8876,-2.8651,-3.3276,-3.3276,-3.3276,-3.3276,-3.3276,-3.281,-3.2209,-3.1476,-3.1846,-3.1796,-3.1563,-3.2282,-3.2253,-3.1608,-3.1341,-3.128,-3.1268,-3.0444,-3.0179,-3.0441,-2.9897,-2.9602,-2.9602,-2.9602,-2.9602,-2.9571,-2.9184,-2.9198,-2.954,-2.904,-2.8931,-2.9216,-2.8057,-2.693,-2.5936,-2.4599,-2.3654,-2.3115,-2.2517,-2.2087,-2.1765,-2.1509,-2.1249,-2.0948,-1.9865,-1.9258,-1.9079,-1.8732,-1.8561,-1.8576,-1.902,-1.9165,-1.8926,-1.924,-1.9344,-1.9158,-1.936,-1.96,-1.9856,-2.0688,-2.1642,-2.272,-2.3293,-2.393,-2.4833,-2.575,-2.657,-2.7203,-2.8126,-2.883,-2.9153,-2.9417,-2.9602,-2.9602,-2.9602,-2.9602,-2.9645,-2.9926,-3.0175,-3.0512,-3.1101,-3.1766,-3.2328,-3.2693,-3.296,-3.3248,-3.329,-3.3276,-3.3276,-3.2813,-3.2308,-3.2047,-3.171,-3.1499,-3.1499,-3.1485,-3.1359,-3.1078,-3.105,-3.0783,-3.0249,-3.0076,-2.9859,-2.9422,-2.932,-2.9257,-2.9131,-2.894,-2.8844,-2.8812,-2.8716,-2.8665,-2.8568,-2.8262,-2.8099,-3.3016,-3.3016,-3.2824,-3.2753,-3.2717,-3.2087,-3.1452,-3.0932,-3.0932,-3.0895,-3.1007,-3.1563,-3.1476,-3.0955,-3.1082,-3.1146,-3.1105,-3.0799,-3.0592,-3.0411,-2.9999,-2.9757,-2.9585,-2.9432,-2.9355,-2.9261,-2.8615,-2.8551,-2.8976,-2.826,-2.8019,-2.833,-2.7287,-2.6401,-2.5742,-2.4275,-2.3349,-2.3023,-2.2503,-2.1895,-2.1233,-2.1201,-2.1006,-2.0618,-2.0458,-2.03,-2.0016,-1.9605,-1.9495,-1.9665,-1.9805,-1.9877,-1.9957,-2.0353,-2.061,-2.0586,-2.0706,-2.0839,-2.0993,-2.1768,-2.2678,-2.3526,-2.3692,-2.3987,-2.4574,-2.5501,-2.6425,-2.7287,-2.8116,-2.8836,-2.9213,-2.9495,-2.9602,-2.9602,-2.9602,-2.9602,-2.9659,-3.015,-3.0471,-3.0601,-3.1441,-3.2055,-3.2173,-3.2449,-3.264,-3.2618,-3.2753,-3.2753,-3.2753,-3.2739,-3.2532,-3.2215,-3.1949,-3.1991,-3.1893,-3.1752,-3.1595,-3.1489,-3.1217,-3.0859,-3.0469,-3.0336,-3.015,-2.9513,-2.9245,-2.9081,-2.878,-2.8554,-2.8425,-2.8281,-2.8118,-2.8033,-2.7802,-2.7802,-2.7736,-3.2232,-3.2087,-3.1539,-3.1119,-3.1156,-3.1044,-3.0932,-3.0857,-3.0895,-3.0895,-3.0807,-3.097,-3.097,-3.0919,-3.0928,-3.0926,-3.0961,-3.1065,-3.08,-3.0365,-3.0387,-3.0119,-2.9505,-2.8903,-2.8602,-2.8505,-2.7934,-2.7637,-2.7769,-2.7458,-2.7077,-2.6705,-2.6485,-2.597,-2.5154,-2.4872,-2.4126,-2.2786,-2.2662,-2.2177,-2.1267,-2.1201,-2.1178,-2.1132,-2.0641,-2.0389,-2.0362,-1.9913,-1.9726,-1.986,-2.0035,-2.0169,-2.0366,-2.0541,-2.0634,-2.0629,-2.1067,-2.1536,-2.1969,-2.2151,-2.2267,-2.2383,-2.287,-2.3388,-2.3957,-2.5543,-2.6561,-2.6816,-2.7747,-2.8538,-2.862,-2.9153,-2.9463,-2.9509,-2.9519,-2.9602,-2.9635,-3.015,-3.0466,-3.0331,-3.0963,-3.1258,-3.1189,-3.1265,-3.123,-3.1392,-3.1429,-3.1429,-3.1392,-3.1378,-3.1341,-3.1409,-3.2104,-3.2863,-3.2807,-3.2475,-3.179,-3.1289,-3.065,-3.0361,-3.0254,-2.9896,-2.9487,-2.9548,-2.9426,-2.894,-2.8716,-2.8587,-2.7901,-2.743,-2.7142,-2.693,-2.693,-2.7335,-2.7736,-3.239,-3.2739,-3.1928,-3.1044,-3.0253,-3.019,-2.9935,-2.9484,-2.9484,-2.9484,-2.9484,-2.9471,-2.9999,-3.0895,-3.0895,-3.0895,-3.0893,-3.0636,-3.021,-2.964,-2.9362,-2.8918,-2.8346,-2.8065,-2.7901,-2.7835,-2.7056,-2.69,-2.7191,-2.6909,-2.633,-2.5615,-2.5592,-2.5203,-2.4555,-2.4201,-2.3733,-2.3118,-2.2525,-2.2008,-2.1638,-2.1319,-2.1201,-2.1178,-2.0983,-2.0911,-2.0915,-2.0518,-2.0452,-2.0902,-2.0776,-2.0872,-2.1271,-2.1446,-2.1548,-2.156,-2.1753,-2.1969,-2.2173,-2.2197,-2.2361,-2.263,-2.2879,-2.3328,-2.4121,-2.496,-2.5498,-2.5958,-2.7446,-2.8505,-2.8473,-2.8422,-2.85,-2.8844,-2.8877,-2.8864,-2.8844,-2.9652,-3.0177,-3.0161,-3.0652,-3.099,-3.0955,-3.0895,-3.0895,-3.0895,-3.0895,-3.082,-3.0895,-3.0895,-3.0895,-3.097,-3.1502,-3.1796,-3.1869,-3.1649,-3.1282,-3.1063,-3.0777,-3.0529,-3.0075,-2.9954,-2.964,-2.9085,-2.8618,-2.8052,-2.7323,-2.7129,-2.6701,-2.6402,-2.6368,-2.622,-2.622,-2.653,-2.6769,-3.1759,-3.2187,-3.1673,-3.0632,-2.9367,-2.9367,-2.904,-2.855,-2.851,-2.851,-2.851,-2.851,-2.9145,-3.0139,-3.0266,-3.0253,-3.0215,-3.0018,-2.9602,-2.9132,-2.8846,-2.8425,-2.7785,-2.7437,-2.7245,-2.6981,-2.6195,-2.5988,-2.6377,-2.6102,-2.5487,-2.4874,-2.4767,-2.4611,-2.419,-2.3774,-2.3533,-2.335,-2.2651,-2.2181,-2.1894,-2.156,-2.1339,-2.1213,-2.1201,-2.1253,-2.1336,-2.0966,-2.1028,-2.1588,-2.1353,-2.141,-2.1858,-2.203,-2.2154,-2.2197,-2.2197,-2.2197,-2.2197,-2.233,-2.257,-2.2975,-2.3207,-2.3701,-2.4362,-2.481,-2.5064,-2.5391,-2.6921,-2.7874,-2.7874,-2.767,-2.7789,-2.8331,-2.8349,-2.8338,-2.8595,-2.9435,-2.9933,-2.9755,-3.0119,-3.0443,-3.0291,-3.019,-3.0114,-3.0152,-3.019,-3.0266,-3.0215,-3.0152,-3.0101,-3.0215,-3.019,-3.0405,-3.0732,-3.0707,-3.0632,-3.0481,-3.0329,-3.0011,-2.9877,-2.9848,-2.9762,-2.9064,-2.817,-2.7528,-2.711,-2.6552,-2.5889,-2.5711,-2.5639,-2.5639,-2.5652,-2.5791,-2.607,-2.9807,-2.9884,-2.9845,-2.9394,-2.859,-2.859,-2.859,-2.851,-2.851,-2.851,-2.851,-2.851,-2.855,-2.8697,-2.8764,-2.8657,-2.8764,-2.9395,-2.9365,-2.8862,-2.9441,-2.9282,-2.8243,-2.7357,-2.6659,-2.6213,-2.5359,-2.4873,-2.473,-2.4634,-2.449,-2.4261,-2.4298,-2.4261,-2.4189,-2.4143,-2.3925,-2.3488,-2.3304,-2.2857,-2.2032,-2.1871,-2.1629,-2.1247,-2.1201,-2.119,-2.1221,-2.1167,-2.125,-2.1431,-2.1385,-2.1522,-2.1862,-2.1894,-2.1999,-2.2154,-2.2178,-2.2209,-2.225,-2.2647,-2.2991,-2.3135,-2.379,-2.4412,-2.4556,-2.5414,-2.574,-2.5382,-2.6035,-2.6539,-2.6624,-2.7007,-2.7559,-2.8129,-2.8239,-2.8447,-2.8941,-2.9393,-2.9567,-2.9164,-2.939,-2.9485,-2.8816,-2.859,-2.8764,-2.8764,-2.8685,-2.8736,-2.8843,-2.8605,-2.8605,-2.8685,-2.8712,-2.8937,-3.0367,-3.0177,-2.9781,-2.9665,-2.9355,-2.8937,-2.9181,-2.9378,-2.9289,-2.9082,-2.8359,-2.7701,-2.7203,-2.657,-2.5875,-2.5469,-2.5111,-2.5052,-2.5052,-2.5546,-2.5791,-2.9704,-2.9704,-2.9704,-2.9263,-2.855,-2.851,-2.851,-2.851,-2.851,-2.851,-2.851,-2.851,-2.851,-2.851,-2.851,-2.851,-2.855,-2.8816,-2.8629,-2.8165,-2.8409,-2.8126,-2.7372,-2.6566,-2.613,-2.5817,-2.5051,-2.4502,-2.4309,-2.4309,-2.4261,-2.4225,-2.4189,-2.4189,-2.4189,-2.4189,-2.4085,-2.3877,-2.3591,-2.3063,-2.2444,-2.2066,-2.1686,-2.1236,-2.1201,-2.1201,-2.1201,-2.1201,-2.1221,-2.1242,-2.1356,-2.1451,-2.1588,-2.1718,-2.1792,-2.191,-2.2151,-2.2317,-2.2388,-2.2847,-2.3285,-2.3617,-2.3927,-2.4376,-2.4661,-2.5122,-2.5265,-2.5087,-2.5194,-2.5468,-2.578,-2.6,-2.6524,-2.7354,-2.7498,-2.7667,-2.8176,-2.8709,-2.8927,-2.8704,-2.8824,-2.8752,-2.8578,-2.8379,-2.8379,-2.8471,-2.8271,-2.8283,-2.8391,-2.8231,-2.807,-2.8231,-2.8151,-2.8259,-2.8897,-2.9094,-2.887,-2.8752,-2.8526,-2.8486,-2.8642,-2.8685,-2.8609,-2.8292,-2.7834,-2.7319,-2.6563,-2.5625,-2.5109,-2.4895,-2.4563,-2.4599,-2.4503,-2.4921,-2.5123,-2.9302,-2.9289,-2.9328,-2.8988,-2.855,-2.851,-2.851,-2.851,-2.851,-2.851,-2.851,-2.851,-2.851,-2.851,-2.851,-2.851,-2.851,-2.851,-2.8318,-2.7966,-2.7903,-2.7577,-2.6997,-2.6439,-2.5934,-2.5543,-2.4807,-2.4345,-2.4236,-2.4189,-2.4189,-2.4189,-2.4189,-2.4189,-2.4189,-2.4189,-2.4189,-2.412,-2.3808,-2.3407,-2.2949,-2.2604,-2.2168,-2.1742,-2.1523,-2.1362,-2.1213,-2.1201,-2.1201,-2.1233,-2.1305,-2.1356,-2.1431,-2.1733,-2.1945,-2.196,-2.2415,-2.2653,-2.2711,-2.3134,-2.3602,-2.3978,-2.4167,-2.4437,-2.4766,-2.4801,-2.4801,-2.4801,-2.4801,-2.5001,-2.5318,-2.5456,-2.5889,-2.6883,-2.7034,-2.7174,-2.7714,-2.8096,-2.8315,-2.8327,-2.8299,-2.8311,-2.8283,-2.8191,-2.8191,-2.8271,-2.8054,-2.8042,-2.8203,-2.803,-2.7869,-2.803,-2.8002,-2.8002,-2.8339,-2.8498,-2.8566,-2.8447,-2.8287,-2.8219,-2.8139,-2.8099,-2.7952,-2.7553,-2.7082,-2.65,-2.5753,-2.4816,-2.4397,-2.4246,-2.4261,-2.4358,-2.4298,-2.4225,-2.4539,-2.855,-2.859,-2.851,-2.855,-2.851,-2.851,-2.851,-2.851,-2.851,-2.851,-2.851,-2.851,-2.851,-2.851,-2.851,-2.851,-2.851,-2.8471,-2.8447,-2.8398,-2.8239,-2.7897,-2.7406,-2.6878,-2.6039,-2.5164,-2.4528,-2.42,-2.4189,-2.4189,-2.4189,-2.4189,-2.4189,-2.4189,-2.4189,-2.4189,-2.4189,-2.4177,-2.4131,-2.3902,-2.3465,-2.3293,-2.3052,-2.2593,-2.2157,-2.1732,-2.1305,-2.1236,-2.1201,-2.1201,-2.1224,-2.1296,-2.1586,-2.2031,-2.2385,-2.2456,-2.2887,-2.3146,-2.3228,-2.365,-2.3956,-2.4085,-2.4484,-2.4659,-2.4694,-2.4765,-2.4754,-2.4718,-2.4824,-2.5012,-2.5409,-2.5587,-2.5991,-2.6882,-2.7089,-2.7313,-2.7733,-2.7909,-2.7921,-2.7921,-2.7962,-2.7921,-2.7921,-2.7921,-2.7921,-2.7962,-2.7881,-2.7841,-2.7933,-2.7708,-2.7655,-2.7788,-2.78,-2.776,-2.7921,-2.8082,-2.8259,-2.8379,-2.8179,-2.8059,-2.7978,-2.7938,-2.7817,-2.749,-2.72,-2.6618,-2.6043,-2.5168,-2.4545,-2.4372,-2.4303,-2.4235,-2.4189,-2.4189,-2.4189,-2.851,-2.851,-2.851,-2.851,-2.851,-2.851,-2.851,-2.851,-2.851,-2.851,-2.851,-2.851,-2.851,-2.851,-2.851,-2.851,-2.851,-2.8379,-2.8339,-2.8431,-2.8311,-2.8084,-2.7743,-2.6792,-2.5634,-2.4655,-2.4317,-2.4189,-2.4189,-2.4189,-2.4189,-2.4189,-2.4189,-2.4189,-2.4189,-2.4189,-2.4189,-2.4189,-2.4189,-2.3948,-2.3453,-2.3407,-2.3167,-2.2765,-2.2513,-2.2385,-2.2224,-2.1569,-2.1224,-2.1236,-2.1502,-2.1868,-2.2245,-2.2486,-2.2612,-2.2658,-2.3052,-2.3341,-2.3398,-2.3826,-2.414,-2.415,-2.4337,-2.437,-2.4381,-2.4381,-2.4418,-2.4428,-2.4671,-2.5087,-2.5535,-2.5989,-2.643,-2.7054,-2.7089,-2.7301,-2.7735,-2.7881,-2.7881,-2.7881,-2.7881,-2.7881,-2.7841,-2.7788,-2.7708,-2.78,-2.765,-2.7516,-2.776,-2.7545,-2.7371,-2.7574,-2.7505,-2.7505,-2.7667,-2.7748,-2.7898,-2.8018,-2.7938,-2.7846,-2.7805,-2.7736,-2.7615,-2.7441,-2.7134,-2.6731,-2.6157,-2.5566,-2.4935,-2.4568,-2.451,-2.4395,-2.4246,-2.4235,-2.4303,-2.851,-2.851,-2.851,-2.851,-2.851,-2.851,-2.851,-2.851,-2.851,-2.851,-2.851,-2.851,-2.851,-2.851,-2.851,-2.851,-2.8471,-2.8311,-2.8259,-2.8299,-2.8059,-2.7926,-2.7745,-2.6555,-2.5569,-2.4823,-2.4372,-2.42,-2.4189,-2.4189,-2.4189,-2.4189,-2.4189,-2.4189,-2.4189,-2.4189,-2.4189,-2.4189,-2.4189,-2.4039,-2.3763,-2.3682,-2.3569,-2.327,-2.3064,-2.2972,-2.2914,-2.219,-2.1753,-2.1811,-2.2053,-2.2363,-2.2696,-2.2868,-2.296,-2.3052,-2.3373,-2.3682,-2.3717,-2.403,-2.4189,-2.4189,-2.4189,-2.42,-2.4189,-2.4189,-2.4189,-2.4258,-2.4613,-2.5142,-2.5647,-2.6191,-2.6678,-2.7069,-2.7144,-2.7272,-2.7592,-2.7638,-2.7638,-2.7598,-2.765,-2.765,-2.7598,-2.7545,-2.7452,-2.7557,-2.7406,-2.7242,-2.7516,-2.7394,-2.7342,-2.7371,-2.7412,-2.7412,-2.7371,-2.7452,-2.7534,-2.7574,-2.7615,-2.7603,-2.7603,-2.7493,-2.7371,-2.7244,-2.699,-2.6737,-2.6198,-2.5739,-2.5199,-2.4992,-2.4797,-2.4682,-2.4602,-2.4533,-2.4522,-2.851,-2.851,-2.851,-2.851,-2.851,-2.851,-2.851,-2.851,-2.851,-2.851,-2.851,-2.851,-2.851,-2.851,-2.8471,-2.8431,-2.8431,-2.8219,-2.8087,-2.8007,-2.7725,-2.7499,-2.7226,-2.6327,-2.5704,-2.536,-2.4659,-2.4269,-2.42,-2.4189,-2.4189,-2.4189,-2.4189,-2.4189,-2.4189,-2.4189,-2.4189,-2.4189,-2.4189,-2.4177,-2.4143,-2.4154,-2.4143,-2.4085,-2.3671,-2.3442,-2.3361,-2.3018,-2.2765,-2.2708,-2.2696,-2.2765,-2.288,-2.3201,-2.3453,-2.3465,-2.3936,-2.4097,-2.4166,-2.4166,-2.4189,-2.4189,-2.4189,-2.4189,-2.4189,-2.4189,-2.4189,-2.4235,-2.4694,-2.5199,-2.5693,-2.6255,-2.6766,-2.7075,-2.718,-2.7226,-2.7219,-2.7231,-2.7272,-2.7272,-2.719,-2.719,-2.7272,-2.7231,-2.7219,-2.7231,-2.7231,-2.7231,-2.7231,-2.7231,-2.719,-2.726,-2.733,-2.733,-2.7301,-2.733,-2.7412,-2.7371,-2.7383,-2.7412,-2.74,-2.733,-2.726,-2.7122,-2.6984,-2.6708,-2.6404,-2.6026,-2.5681,-2.544,-2.5256,-2.5096,-2.4981,-2.49,-2.4728,-2.851,-2.851,-2.851,-2.851,-2.851,-2.851,-2.851,-2.851,-2.851,-2.8471,-2.851,-2.851,-2.8471,-2.8471,-2.8339,-2.8299,-2.8179,-2.7886,-2.7684,-2.7644,-2.7412,-2.7071,-2.6794,-2.6444,-2.5876,-2.5233,-2.4889,-2.4508,-2.4223,-2.42,-2.42,-2.4189,-2.4189,-2.4189,-2.4189,-2.4189,-2.4189,-2.4189,-2.4189,-2.4189,-2.4189,-2.4189,-2.4189,-2.4177,-2.4062,-2.3982,-2.3994,-2.3879,-2.3603,-2.3235,-2.3201,-2.3431,-2.3707,-2.389,-2.3948,-2.3982,-2.4085,-2.4189,-2.4189,-2.4189,-2.4189,-2.4189,-2.4189,-2.4189,-2.4189,-2.4189,-2.4189,-2.4349,-2.4946,-2.5543,-2.5819,-2.6496,-2.7036,-2.7144,-2.719,-2.719,-2.719,-2.719,-2.719,-2.719,-2.719,-2.719,-2.719,-2.719,-2.719,-2.719,-2.719,-2.719,-2.719,-2.719,-2.719,-2.719,-2.7219,-2.7219,-2.7219,-2.726,-2.726,-2.7231,-2.7231,-2.726,-2.726,-2.7219,-2.7231,-2.7144,-2.7128,-2.6909,-2.6818,-2.66,-2.6278,-2.5899,-2.5796,-2.5658,-2.5406,-2.5218,-2.5038,-2.851,-2.851,-2.851,-2.851,-2.851,-2.851,-2.851,-2.8471,-2.8431,-2.8379,-2.8391,-2.8283,-2.8243,-2.8231,-2.8111,-2.8059,-2.803,-2.7696,-2.7522,-2.7482,-2.7301,-2.707,-2.6795,-2.66,-2.618,-2.5589,-2.5119,-2.4774,-2.4499,-2.4303,-2.42,-2.4189,-2.4189,-2.4189,-2.4189,-2.4189,-2.4189,-2.4189,-2.4189,-2.4189,-2.4189,-2.4189,-2.4189,-2.4189,-2.4189,-2.4189,-2.4189,-2.4189,-2.4039,-2.3774,-2.374,-2.3866,-2.4143,-2.4189,-2.4189,-2.4189,-2.4189,-2.4189,-2.4189,-2.4189,-2.4189,-2.4189,-2.4189,-2.4189,-2.4189,-2.4189,-2.4189,-2.4281,-2.5142,-2.5612,-2.5876,-2.6622,-2.711,-2.719,-2.719,-2.719,-2.719,-2.719,-2.719,-2.719,-2.719,-2.719,-2.719,-2.719,-2.719,-2.719,-2.719,-2.719,-2.719,-2.719,-2.719,-2.719,-2.719,-2.719,-2.7231,-2.7231,-2.7231,-2.719,-2.719,-2.719,-2.719,-2.719,-2.719,-2.719,-2.719,-2.7156,-2.703,-2.6944,-2.6691,-2.6416,-2.6335,-2.6129,-2.5803,-2.5693,-2.5451,-2.851,-2.851,-2.851,-2.851,-2.851,-2.8459,-2.8471,-2.8431,-2.8271,-2.8179,-2.8139,-2.8002,-2.7962,-2.7881,-2.7881,-2.7829,-2.7841,-2.7574,-2.7482,-2.7412,-2.7301,-2.7133,-2.7075,-2.6795,-2.6559,-2.6249,-2.5429,-2.5027,-2.4751,-2.4407,-2.4212,-2.4189,-2.4189,-2.4189,-2.4189,-2.4189,-2.4189,-2.4189,-2.4189,-2.4189,-2.4189,-2.4189,-2.4189,-2.4189,-2.4189,-2.4189,-2.4189,-2.4189,-2.4166,-2.4189,-2.4189,-2.4166,-2.4189,-2.4189,-2.4189,-2.4189,-2.4189,-2.4189,-2.4189,-2.4189,-2.4189,-2.4189,-2.4189,-2.4189,-2.4189,-2.4189,-2.4235,-2.4349,-2.5153,-2.5716,-2.6078,-2.6732,-2.7098,-2.719,-2.719,-2.719,-2.719,-2.719,-2.719,-2.719,-2.719,-2.719,-2.719,-2.719,-2.719,-2.719,-2.719,-2.719,-2.719,-2.719,-2.719,-2.719,-2.719,-2.719,-2.719,-2.719,-2.719,-2.719,-2.719,-2.719,-2.719,-2.719,-2.719,-2.719,-2.719,-2.719,-2.7156,-2.7059,-2.6921,-2.6875,-2.6709,-2.6433,-2.6209,-2.6163,-2.6003,-2.851,-2.851,-2.851,-2.851,-2.8471,-2.8351,-2.8259,-2.8259,-2.803,-2.7962,-2.7962,-2.7933,-2.7881,-2.7893,-2.7667,-2.7615,-2.7586,-2.7371,-2.726,-2.726,-2.7231,-2.719,-2.7179,-2.7018,-2.6841,-2.6478,-2.5865,-2.5337,-2.4923,-2.4499,-2.4189,-2.4189,-2.4189,-2.4189,-2.4189,-2.4189,-2.4189,-2.4189,-2.4189,-2.4189,-2.4189,-2.4189,-2.4189,-2.4189,-2.4189,-2.4189,-2.4189,-2.4189,-2.4189,-2.4189,-2.4189,-2.4189,-2.4189,-2.4189,-2.4189,-2.4189,-2.4189,-2.4189,-2.4189,-2.4189,-2.4189,-2.4189,-2.4189,-2.4189,-2.4189,-2.4223,-2.4395,-2.4728,-2.5337,-2.6048,-2.6663,-2.7018,-2.7179,-2.719,-2.719,-2.719,-2.719,-2.719,-2.719,-2.719,-2.719,-2.719,-2.719,-2.719,-2.719,-2.719,-2.719,-2.719,-2.719,-2.719,-2.719,-2.719,-2.719,-2.719,-2.719,-2.719,-2.719,-2.719,-2.719,-2.719,-2.719,-2.719,-2.719,-2.719,-2.719,-2.719,-2.719,-2.7179,-2.7052,-2.7075,-2.7075,-2.6869,-2.6686,-2.6657,-2.6542,-2.851,-2.851,-2.851,-2.8431,-2.8351,-2.8259,-2.8139,-2.803,-2.7788,-2.7708,-2.7708,-2.7638,-2.7557,-2.7557,-2.7412,-2.7383,-2.7342,-2.726,-2.719,-2.719,-2.719,-2.719,-2.719,-2.719,-2.7059,-2.6714,-2.6037,-2.5555,-2.5176,-2.459,-2.4189,-2.4189,-2.4189,-2.4189,-2.4189,-2.4189,-2.4189,-2.4189,-2.4189,-2.4189,-2.4189,-2.4189,-2.4189,-2.4189,-2.4189,-2.4189,-2.4189,-2.4189,-2.4189,-2.4189,-2.4189,-2.4189,-2.4189,-2.4189,-2.4189,-2.4189,-2.4189,-2.4189,-2.4189,-2.4189,-2.4189,-2.4189,-2.4189,-2.4189,-2.4281,-2.4384,-2.4636,-2.5004,-2.5601,-2.6393,-2.7075,-2.719,-2.719,-2.719,-2.719,-2.719,-2.719,-2.719,-2.719,-2.719,-2.719,-2.719,-2.719,-2.719,-2.719,-2.719,-2.719,-2.719,-2.719,-2.719,-2.719,-2.719,-2.719,-2.719,-2.719,-2.719,-2.719,-2.719,-2.719,-2.719,-2.719,-2.719,-2.719,-2.719,-2.719,-2.719,-2.719,-2.719,-2.719,-2.7156,-2.7144,-2.7179,-2.7133,-2.6978,-2.6909,-2.851,-2.851,-2.851,-2.8391,-2.8219,-2.8179,-2.8018,-2.7829,-2.7574,-2.7441,-2.7441,-2.726,-2.7272,-2.719,-2.7231,-2.719,-2.719,-2.7231,-2.719,-2.719,-2.719,-2.719,-2.719,-2.719,-2.7167,-2.7075,-2.6198,-2.5716,-2.5417,-2.4763,-2.4223,-2.4189,-2.4189,-2.4189,-2.4189,-2.4189,-2.4189,-2.4189,-2.4189,-2.4189,-2.4189,-2.4189,-2.4189,-2.4189,-2.4189,-2.4189,-2.4189,-2.4189,-2.4189,-2.4189,-2.4189,-2.4189,-2.4189,-2.4189,-2.4189,-2.4189,-2.4189,-2.4189,-2.4189,-2.4189,-2.4189,-2.4189,-2.4189,-2.4189,-2.4281,-2.4499,-2.4797,-2.5337,-2.5945,-2.6737,-2.7133,-2.719,-2.719,-2.719,-2.719,-2.719,-2.719,-2.719,-2.719,-2.719,-2.719,-2.719,-2.719,-2.719,-2.719,-2.719,-2.719,-2.719,-2.719,-2.719,-2.719,-2.719,-2.719,-2.719,-2.719,-2.719,-2.719,-2.719,-2.719,-2.719,-2.719,-2.719,-2.719,-2.719,-2.719,-2.719,-2.719,-2.719,-2.719,-2.719,-2.719,-2.719,-2.719,-2.719,-2.711,-2.851,-2.851,-2.851,-2.8391,-2.8179,-2.803,-2.7829,-2.7563,-2.7371,-2.726,-2.726,-2.7231,-2.719,-2.719,-2.719,-2.719,-2.719,-2.719,-2.719,-2.719,-2.719,-2.719,-2.719,-2.719,-2.7179,-2.6915,-2.6193,-2.5727,-2.5474,-2.4751,-2.4235,-2.4189,-2.4189,-2.4189,-2.4189,-2.4189,-2.4189,-2.4189,-2.4189,-2.4189,-2.4189,-2.4189,-2.4189,-2.4189,-2.4189,-2.4189,-2.4189,-2.4189,-2.4189,-2.4189,-2.4189,-2.4189,-2.4189,-2.4189,-2.4189,-2.4189,-2.4189,-2.4189,-2.4189,-2.4189,-2.4189,-2.4189,-2.4189,-2.4189,-2.4223,-2.4349,-2.4832,-2.5635,-2.6404,-2.7087,-2.7167,-2.719,-2.719,-2.719,-2.719,-2.719,-2.719,-2.719,-2.719,-2.719,-2.719,-2.719,-2.719,-2.719,-2.719,-2.719,-2.719,-2.719,-2.719,-2.719,-2.719,-2.719,-2.719,-2.719,-2.719,-2.719,-2.719,-2.719,-2.719,-2.719,-2.719,-2.719,-2.719,-2.719,-2.719,-2.719,-2.719,-2.719,-2.719,-2.719,-2.719,-2.719,-2.7064,-2.7013,-2.7024,-2.851,-2.851,-2.851,-2.8379,-2.8179,-2.799,-2.7748,-2.7482,-2.7301,-2.719,-2.719,-2.719,-2.719,-2.719,-2.719,-2.719,-2.719,-2.719,-2.719,-2.719,-2.719,-2.719,-2.719,-2.719,-2.7047,-2.6714,-2.6083,-2.5693,-2.5601,-2.4682,-2.4246,-2.4189,-2.4189,-2.4189,-2.4189,-2.4189,-2.4189,-2.4189,-2.4189,-2.4189,-2.4189,-2.4189,-2.4189,-2.4189,-2.4189,-2.4189,-2.4189,-2.4189,-2.4189,-2.4189,-2.4189,-2.4189,-2.4189,-2.4189,-2.4189,-2.4189,-2.4189,-2.4189,-2.4189,-2.4189,-2.4189,-2.4189,-2.4189,-2.4189,-2.4269,-2.4499,-2.5015,-2.5945,-2.6628,-2.719,-2.719,-2.719,-2.719,-2.719,-2.719,-2.719,-2.719,-2.719,-2.719,-2.719,-2.719,-2.719,-2.719,-2.719,-2.719,-2.719,-2.719,-2.719,-2.719,-2.719,-2.719,-2.719,-2.719,-2.719,-2.719,-2.719,-2.719,-2.719,-2.719,-2.719,-2.719,-2.719,-2.719,-2.719,-2.719,-2.719,-2.719,-2.719,-2.719,-2.7179,-2.7144,-2.7116,-2.6909,-2.6806,-2.6749,-2.851,-2.851,-2.8471,-2.8311,-2.8099,-2.7909,-2.7667,-2.7452,-2.7301,-2.719,-2.719,-2.719,-2.719,-2.719,-2.719,-2.719,-2.719,-2.719,-2.719,-2.719,-2.719,-2.719,-2.7179,-2.707,-2.6852,-2.6536,-2.5784,-2.5566,-2.5325,-2.4613,-2.4269,-2.4189,-2.4189,-2.4189,-2.4189,-2.4189,-2.4189,-2.4189,-2.4189,-2.4189,-2.4189,-2.4189,-2.4189,-2.4189,-2.4189,-2.4189,-2.4189,-2.4189,-2.4189,-2.4189,-2.4189,-2.4189,-2.4189,-2.4189,-2.4189,-2.4189,-2.4189,-2.4189,-2.4189,-2.4189,-2.4189,-2.4189,-2.4189,-2.4189,-2.4372,-2.4763,-2.5463,-2.6335,-2.6921,-2.7179,-2.719,-2.719,-2.719,-2.719,-2.719,-2.719,-2.719,-2.719,-2.719,-2.719,-2.719,-2.719,-2.719,-2.719,-2.719,-2.719,-2.719,-2.719,-2.719,-2.719,-2.719,-2.719,-2.719,-2.719,-2.719,-2.719,-2.719,-2.719,-2.719,-2.719,-2.719,-2.719,-2.719,-2.719,-2.719,-2.719,-2.719,-2.719,-2.719,-2.7167,-2.7139,-2.6978,-2.6737,-2.6427,-2.6244,-2.851,-2.8459,-2.8299,-2.8111,-2.7921,-2.7655,-2.7452,-2.726,-2.7231,-2.719,-2.719,-2.719,-2.719,-2.719,-2.719,-2.719,-2.719,-2.719,-2.719,-2.719,-2.719,-2.719,-2.711,-2.6737,-2.6634,-2.6363,-2.5543,-2.5035,-2.4946,-2.4487,-2.4212,-2.4189,-2.4189,-2.4189,-2.4189,-2.4189,-2.4189,-2.4189,-2.4189,-2.4189,-2.4189,-2.4189,-2.4189,-2.4189,-2.4189,-2.4189,-2.4189,-2.4189,-2.4189,-2.4189,-2.4189,-2.4189,-2.4189,-2.4189,-2.4189,-2.4189,-2.4189,-2.4189,-2.4189,-2.4189,-2.4189,-2.4189,-2.4189,-2.4189,-2.4487,-2.5119,-2.5865,-2.6421,-2.6932,-2.7167,-2.719,-2.719,-2.719,-2.719,-2.719,-2.719,-2.719,-2.719,-2.719,-2.719,-2.719,-2.719,-2.719,-2.719,-2.719,-2.719,-2.719,-2.719,-2.719,-2.719,-2.719,-2.719,-2.719,-2.719,-2.719,-2.719,-2.719,-2.719,-2.719,-2.719,-2.719,-2.719,-2.719,-2.719,-2.719,-2.719,-2.719,-2.719,-2.719,-2.7098,-2.7001,-2.6772,-2.657,-2.6186,-2.575,-2.8163,-2.8163,-2.807,-2.8002,-2.7881,-2.7603,-2.7441,-2.7371,-2.7219,-2.719,-2.719,-2.719,-2.719,-2.719,-2.719,-2.719,-2.719,-2.719,-2.719,-2.719,-2.719,-2.719,-2.7075,-2.6737,-2.6513,-2.6318,-2.5761,-2.5245,-2.49,-2.4487,-2.4189,-2.4189,-2.4189,-2.4189,-2.4189,-2.4189,-2.4189,-2.4189,-2.4189,-2.4189,-2.4189,-2.4189,-2.4189,-2.4189,-2.4189,-2.4189,-2.4189,-2.4189,-2.4189,-2.4189,-2.4189,-2.4189,-2.4189,-2.4189,-2.4189,-2.4189,-2.4189,-2.4189,-2.4189,-2.4189,-2.4189,-2.42,-2.4223,-2.4315,-2.4705,-2.5497,-2.6175,-2.6478,-2.6932,-2.7156,-2.719,-2.719,-2.719,-2.719,-2.719,-2.719,-2.719,-2.719,-2.719,-2.719,-2.719,-2.719,-2.719,-2.719,-2.719,-2.719,-2.719,-2.719,-2.719,-2.719,-2.719,-2.719,-2.719,-2.719,-2.719,-2.719,-2.719,-2.719,-2.719,-2.719,-2.719,-2.719,-2.719,-2.719,-2.719,-2.719,-2.719,-2.7179,-2.7179,-2.7036,-2.6818,-2.6473,-2.6106,-2.5601,-2.5187,-2.7719,-2.7719,-2.7748,-2.7788,-2.78,-2.7534,-2.7412,-2.7412,-2.726,-2.719,-2.719,-2.719,-2.719,-2.719,-2.719,-2.719,-2.719,-2.719,-2.719,-2.719,-2.719,-2.719,-2.703,-2.6737,-2.6501,-2.6501,-2.5911,-2.5509,-2.5119,-2.4682,-2.4361,-2.42,-2.4189,-2.4189,-2.4189,-2.4189,-2.4189,-2.4189,-2.4189,-2.4189,-2.4189,-2.4189,-2.4189,-2.4189,-2.4189,-2.4189,-2.4189,-2.4189,-2.4189,-2.4189,-2.4189,-2.4189,-2.4189,-2.4189,-2.4189,-2.4189,-2.4189,-2.4189,-2.4189,-2.4189,-2.4189,-2.4235,-2.443,-2.4705,-2.536,-2.6094,-2.6588,-2.6691,-2.6978,-2.7156,-2.719,-2.719,-2.719,-2.719,-2.719,-2.719,-2.719,-2.719,-2.719,-2.719,-2.719,-2.719,-2.719,-2.719,-2.719,-2.719,-2.719,-2.719,-2.719,-2.719,-2.719,-2.719,-2.719,-2.719,-2.719,-2.719,-2.719,-2.719,-2.719,-2.719,-2.719,-2.719,-2.719,-2.719,-2.719,-2.719,-2.719,-2.7179,-2.7133,-2.6841,-2.6485,-2.6037,-2.5601,-2.5096,-2.4751,-2.7231,-2.7272,-2.7452,-2.7522,-2.7522,-2.7301,-2.7231,-2.7231,-2.7231,-2.719,-2.719,-2.719,-2.719,-2.719,-2.719,-2.719,-2.719,-2.719,-2.719,-2.719,-2.719,-2.719,-2.7018,-2.6772,-2.6524,-2.649,-2.6071,-2.5796,-2.5543,-2.513,-2.4659,-2.4258,-2.4235,-2.42,-2.4152,-2.408,-2.4018,-2.4007,-2.4007,-2.4116,-2.4152,-2.4189,-2.4189,-2.4189,-2.4189,-2.4189,-2.4189,-2.4189,-2.4189,-2.4189,-2.4189,-2.4189,-2.4189,-2.4189,-2.4189,-2.4189,-2.4189,-2.4223,-2.4292,-2.4235,-2.4212,-2.4326,-2.4659,-2.5245,-2.5991,-2.6329,-2.668,-2.7024,-2.7133,-2.7167,-2.719,-2.719,-2.719,-2.719,-2.719,-2.719,-2.719,-2.719,-2.719,-2.719,-2.719,-2.719,-2.719,-2.719,-2.719,-2.719,-2.719,-2.719,-2.719,-2.719,-2.719,-2.719,-2.719,-2.719,-2.719,-2.719,-2.719,-2.719,-2.719,-2.719,-2.719,-2.719,-2.719,-2.719,-2.719,-2.719,-2.719,-2.7179,-2.7018,-2.6577,-2.614,-2.5716,-2.5222,-2.4705,-2.4464,-2.719,-2.719,-2.7301,-2.7301,-2.7301,-2.7219,-2.719,-2.719,-2.719,-2.719,-2.719,-2.719,-2.719,-2.719,-2.719,-2.719,-2.719,-2.719,-2.719,-2.719,-2.719,-2.719,-2.7007,-2.6841,-2.6639,-2.6737,-2.6427,-2.6214,-2.6157,-2.5524,-2.513,-2.4728,-2.4214,-2.4212,-2.4116,-2.3714,-2.3482,-2.3482,-2.3519,-2.3629,-2.4152,-2.4189,-2.4189,-2.4189,-2.4189,-2.4189,-2.4189,-2.4189,-2.4189,-2.4189,-2.4189,-2.4189,-2.4189,-2.4189,-2.4189,-2.4189,-2.4189,-2.4315,-2.4487,-2.4395,-2.4315,-2.4717,-2.513,-2.5716,-2.6513,-2.6714,-2.6955,-2.7133,-2.719,-2.719,-2.719,-2.719,-2.719,-2.719,-2.719,-2.719,-2.719,-2.719,-2.719,-2.719,-2.719,-2.719,-2.719,-2.719,-2.719,-2.719,-2.719,-2.719,-2.719,-2.719,-2.719,-2.719,-2.719,-2.719,-2.719,-2.719,-2.719,-2.719,-2.719,-2.719,-2.719,-2.719,-2.719,-2.719,-2.719,-2.719,-2.719,-2.719,-2.6995,-2.6703,-2.6106,-2.544,-2.4912,-2.4361,-2.4258,-2.719,-2.719,-2.719,-2.719,-2.719,-2.719,-2.719,-2.719,-2.719,-2.719,-2.719,-2.719,-2.719,-2.719,-2.719,-2.719,-2.719,-2.719,-2.719,-2.719,-2.719,-2.719,-2.7064,-2.6978,-2.6898,-2.7093,-2.6903,-2.6651,-2.6141,-2.5622,-2.4853,-2.4231,-2.3843,-2.3538,-2.3593,-2.3102,-2.2654,-2.2654,-2.2729,-2.2841,-2.3398,-2.3398,-2.3398,-2.3361,-2.3313,-2.3324,-2.3398,-2.3519,-2.3751,-2.3861,-2.397,-2.4189,-2.4189,-2.4189,-2.4189,-2.4189,-2.4235,-2.4384,-2.4545,-2.4809,-2.4843,-2.5417,-2.5693,-2.6186,-2.6645,-2.7024,-2.7133,-2.7167,-2.719,-2.719,-2.719,-2.719,-2.719,-2.719,-2.719,-2.719,-2.719,-2.719,-2.719,-2.719,-2.719,-2.719,-2.7149,-2.7149,-2.7056,-2.7108,-2.719,-2.719,-2.719,-2.719,-2.719,-2.719,-2.719,-2.719,-2.719,-2.7149,-2.7097,-2.719,-2.719,-2.719,-2.719,-2.719,-2.719,-2.719,-2.719,-2.719,-2.719,-2.719,-2.7075,-2.6944,-2.614,-2.5233,-2.4717,-2.4246,-2.4235,-2.7144,-2.719,-2.7156,-2.7156,-2.7144,-2.719,-2.719,-2.719,-2.719,-2.719,-2.719,-2.719,-2.719,-2.719,-2.719,-2.719,-2.719,-2.719,-2.719,-2.719,-2.719,-2.719,-2.7179,-2.7121,-2.6971,-2.7156,-2.6901,-2.6412,-2.5708,-2.4894,-2.4032,-2.3224,-2.2583,-2.2268,-2.2852,-2.222,-2.1832,-2.1832,-2.1842,-2.1918,-2.2145,-2.2209,-2.2258,-2.2258,-2.2247,-2.2333,-2.2446,-2.2804,-2.299,-2.3065,-2.3703,-2.3934,-2.4007,-2.4152,-2.4189,-2.4189,-2.4189,-2.4246,-2.4326,-2.5164,-2.5773,-2.606,-2.6129,-2.6542,-2.7013,-2.719,-2.719,-2.719,-2.719,-2.719,-2.719,-2.719,-2.719,-2.719,-2.719,-2.719,-2.719,-2.719,-2.719,-2.719,-2.719,-2.719,-2.7149,-2.7067,-2.6933,-2.6974,-2.7149,-2.7149,-2.7015,-2.688,-2.6798,-2.6456,-2.6415,-2.6663,-2.6622,-2.6962,-2.7056,-2.7138,-2.719,-2.719,-2.719,-2.719,-2.719,-2.719,-2.719,-2.719,-2.719,-2.719,-2.7047,-2.676,-2.5842,-2.5027,-2.451,-2.4189,-2.4189,-2.6232,-2.6244,-2.6577,-2.6726,-2.6772,-2.7093,-2.719,-2.719,-2.719,-2.719,-2.719,-2.719,-2.719,-2.719,-2.7156,-2.7144,-2.7144,-2.719,-2.719,-2.7167,-2.7138,-2.719,-2.7149,-2.6962,-2.6787,-2.6393,-2.6205,-2.5653,-2.4512,-2.3856,-2.3335,-2.2563,-2.1536,-2.1118,-2.1231,-2.1001,-2.0962,-2.0924,-2.1001,-2.1193,-2.168,-2.1718,-2.169,-2.169,-2.1652,-2.1672,-2.1642,-2.2031,-2.2193,-2.2295,-2.2979,-2.3372,-2.3519,-2.3703,-2.4152,-2.4164,-2.4212,-2.4556,-2.5187,-2.5998,-2.637,-2.6301,-2.637,-2.6726,-2.7139,-2.7179,-2.719,-2.719,-2.719,-2.719,-2.719,-2.719,-2.719,-2.719,-2.719,-2.719,-2.719,-2.719,-2.719,-2.719,-2.719,-2.6622,-2.6404,-2.6155,-2.603,-2.6207,-2.6332,-2.6362,-2.6268,-2.6102,-2.5977,-2.5379,-2.521,-2.5673,-2.6008,-2.6351,-2.6745,-2.6921,-2.7056,-2.719,-2.719,-2.719,-2.719,-2.719,-2.719,-2.719,-2.719,-2.7133,-2.6921,-2.6462,-2.5773,-2.5245,-2.4866,-2.4487,-2.4189,-2.5716,-2.575,-2.6071,-2.6249,-2.6324,-2.6932,-2.719,-2.719,-2.719,-2.719,-2.719,-2.719,-2.7105,-2.7013,-2.6967,-2.6754,-2.6709,-2.6898,-2.6955,-2.6909,-2.6741,-2.6682,-2.661,-2.6404,-2.5799,-2.541,-2.506,-2.4503,-2.3472,-2.2808,-2.201,-2.1204,-2.0566,-2.0216,-2.0118,-2.0118,-2.0079,-2.0079,-2.0148,-2.0304,-2.0693,-2.0907,-2.0966,-2.0907,-2.0917,-2.1025,-2.1012,-2.1155,-2.1346,-2.1586,-2.2031,-2.2569,-2.2793,-2.325,-2.374,-2.3787,-2.4331,-2.462,-2.5187,-2.5952,-2.6044,-2.5814,-2.6335,-2.6841,-2.7162,-2.7179,-2.719,-2.719,-2.719,-2.719,-2.719,-2.719,-2.719,-2.7179,-2.7097,-2.7097,-2.6663,-2.6622,-2.6415,-2.6498,-2.629,-2.5799,-2.5495,-2.5168,-2.4882,-2.5179,-2.5485,-2.5421,-2.5411,-2.5326,-2.5115,-2.4606,-2.4402,-2.4861,-2.5326,-2.5746,-2.6185,-2.661,-2.6798,-2.6891,-2.719,-2.719,-2.719,-2.719,-2.719,-2.719,-2.719,-2.7087,-2.6949,-2.6657,-2.6106,-2.5635,-2.5256,-2.4832,-2.4407,-2.5658,-2.567,-2.5681,-2.5681,-2.5853,-2.6548,-2.6982,-2.7133,-2.711,-2.7098,-2.7185,-2.7064,-2.6818,-2.6536,-2.6478,-2.6193,-2.5823,-2.616,-2.6211,-2.6158,-2.5793,-2.5729,-2.5515,-2.5126,-2.4756,-2.4408,-2.399,-2.3388,-2.2399,-2.1593,-2.058,-1.9827,-1.9645,-1.949,-1.949,-1.949,-1.949,-1.9529,-1.9569,-1.9704,-2.0014,-1.999,-2.0073,-2.0085,-2.0139,-2.012,-2.0148,-2.0233,-2.0488,-2.081,-2.13,-2.1614,-2.1993,-2.2531,-2.2804,-2.326,-2.4056,-2.4281,-2.4435,-2.5182,-2.5677,-2.5706,-2.6497,-2.6995,-2.7179,-2.719,-2.719,-2.719,-2.719,-2.719,-2.719,-2.7138,-2.7138,-2.7056,-2.6962,-2.6569,-2.5924,-2.5621,-2.5379,-2.5168,-2.4829,-2.4488,-2.4445,-2.4188,-2.3757,-2.3844,-2.4026,-2.4069,-2.4102,-2.4435,-2.4221,-2.3973,-2.3844,-2.4145,-2.4563,-2.4851,-2.5284,-2.5673,-2.6113,-2.6332,-2.6715,-2.6839,-2.6622,-2.658,-2.7015,-2.7149,-2.719,-2.7149,-2.7074,-2.6714,-2.637,-2.6083,-2.5716,-2.513,-2.474,-2.4625,-2.4671,-2.4992,-2.5142,-2.512,-2.5245,-2.5796,-2.6571,-2.6335,-2.6324,-2.6708,-2.6301,-2.6,-2.5934,-2.5922,-2.5446,-2.5128,-2.4941,-2.4807,-2.4678,-2.4541,-2.4682,-2.4598,-2.4385,-2.3898,-2.3283,-2.2737,-2.2141,-2.0936,-2.0129,-1.9914,-1.9408,-1.9292,-1.9292,-1.9292,-1.9292,-1.9292,-1.9292,-1.9292,-1.9457,-1.9619,-1.9847,-1.9793,-1.9857,-2.0136,-2.0072,-1.9918,-1.9907,-2.0099,-2.024,-2.0605,-2.0867,-2.0924,-2.1652,-2.2166,-2.225,-2.297,-2.3548,-2.3645,-2.4552,-2.5167,-2.53,-2.6045,-2.6812,-2.7082,-2.7085,-2.7085,-2.7056,-2.6974,-2.6921,-2.6757,-2.6663,-2.6528,-2.6321,-2.6196,-2.5757,-2.5147,-2.4776,-2.452,-2.4145,-2.38,-2.3497,-2.3454,-2.3028,-2.2687,-2.2599,-2.2599,-2.2731,-2.2906,-2.3246,-2.3367,-2.3115,-2.2984,-2.3202,-2.34,-2.3694,-2.4221,-2.4701,-2.5126,-2.5379,-2.5284,-2.5411,-2.5621,-2.5883,-2.6102,-2.6663,-2.719,-2.7056,-2.6704,-2.6937,-2.6691,-2.645,-2.6117,-2.552,-2.5199,-2.3714,-2.3748,-2.4044,-2.3981,-2.3676,-2.3519,-2.4037,-2.4842,-2.5094,-2.529,-2.5232,-2.5217,-2.4948,-2.4393,-2.4321,-2.4017,-2.3412,-2.3588,-2.3586,-2.3444,-2.3176,-2.3235,-2.3385,-2.3128,-2.2379,-2.1867,-2.1478,-2.0938,-1.997,-1.954,-1.9301,-1.9301,-1.9292,-1.9292,-1.9292,-1.9292,-1.9292,-1.9292,-1.9356,-1.9567,-1.9774,-2.0031,-2.0113,-2.0195,-2.0549,-2.0387,-1.9994,-1.993,-1.9838,-1.9787,-2.0053,-2.0163,-2.0244,-2.0808,-2.1614,-2.1814,-2.2462,-2.2749,-2.2796,-2.3401,-2.3908,-2.428,-2.481,-2.5231,-2.6095,-2.6453,-2.6543,-2.6663,-2.658,-2.6498,-2.6279,-2.6071,-2.5684,-2.5337,-2.5115,-2.4861,-2.4435,-2.4016,-2.3671,-2.3333,-2.2984,-2.2677,-2.2325,-2.19,-2.1731,-2.1954,-2.1998,-2.1998,-2.2132,-2.229,-2.2378,-2.2255,-2.2122,-2.2078,-2.2369,-2.2702,-2.3173,-2.3694,-2.4114,-2.4243,-2.3986,-2.4157,-2.4628,-2.4882,-2.5105,-2.5621,-2.6102,-2.6268,-2.6152,-2.636,-2.6626,-2.6571,-2.6291,-2.5911,-2.5739,-2.2927,-2.2927,-2.2927,-2.2499,-2.1766,-2.1741,-2.1979,-2.2379,-2.3481,-2.3867,-2.349,-2.3964,-2.3612,-2.2946,-2.2815,-2.2433,-2.2139,-2.2195,-2.2254,-2.2273,-2.1896,-2.1843,-2.1672,-2.1034,-2.1076,-2.0578,-2.0232,-2.0199,-1.9846,-1.9503,-1.9292,-1.9292,-1.9292,-1.9292,-1.9292,-1.9292,-1.9301,-1.9311,-1.9439,-1.9659,-1.9966,-2.0259,-2.0549,-2.0631,-2.0814,-2.0817,-2.0273,-1.9962,-1.9797,-1.9687,-1.9613,-1.9767,-1.989,-2.0125,-2.0888,-2.1267,-2.1697,-2.1747,-2.1767,-2.2235,-2.2445,-2.2618,-2.2832,-2.3591,-2.4573,-2.5653,-2.5902,-2.5852,-2.5726,-2.5558,-2.5337,-2.5221,-2.4956,-2.4563,-2.4253,-2.3833,-2.328,-2.2984,-2.2809,-2.2511,-2.2344,-2.2069,-2.2033,-2.1687,-2.1687,-2.1687,-2.1607,-2.1571,-2.1562,-2.1642,-2.1597,-2.1553,-2.1553,-2.1499,-2.1633,-2.1961,-2.2217,-2.2648,-2.3076,-2.3076,-2.277,-2.311,-2.3621,-2.3932,-2.4243,-2.4361,-2.4702,-2.4925,-2.5221,-2.5628,-2.5945,-2.6429,-2.6296,-2.5831,-2.6204,-2.2069,-2.2069,-2.2107,-2.1614,-2.0847,-2.0808,-2.0518,-2.0153,-2.1055,-2.1953,-2.254,-2.2506,-2.2307,-2.1889,-2.1791,-2.1438,-2.0985,-2.0966,-2.078,-2.0715,-2.0527,-2.0709,-2.0787,-2.0523,-2.0259,-2.0085,-1.9884,-1.9751,-1.9531,-1.9356,-1.9292,-1.9292,-1.9253,-1.9262,-1.9262,-1.9262,-1.924,-1.9344,-1.9533,-1.9884,-2.0356,-2.0424,-2.0622,-2.0952,-2.1245,-2.1227,-2.0778,-2.0457,-2.0323,-2.0232,-1.9957,-1.9897,-1.9837,-1.9972,-1.9956,-1.9995,-2.0442,-2.0579,-2.0727,-2.1045,-2.1303,-2.166,-2.2039,-2.2713,-2.3553,-2.4576,-2.502,-2.4851,-2.4744,-2.4616,-2.4402,-2.4284,-2.4155,-2.3757,-2.34,-2.2809,-2.2167,-2.2078,-2.1989,-2.1856,-2.1731,-2.1687,-2.1687,-2.1687,-2.1687,-2.1651,-2.1517,-2.1437,-2.1338,-2.1329,-2.1186,-2.1186,-2.1177,-2.1177,-2.1221,-2.1266,-2.1561,-2.1481,-2.1695,-2.165,-2.1606,-2.2031,-2.2507,-2.3042,-2.3391,-2.3381,-2.3414,-2.3641,-2.4018,-2.4628,-2.5072,-2.5447,-2.5565,-2.5218,-2.6046,-2.1221,-2.1221,-2.1221,-2.0721,-2.0079,-1.9952,-1.9687,-1.946,-1.9756,-2.039,-2.1085,-2.1121,-2.1029,-2.0798,-2.0682,-2.0605,-2.0031,-2.0001,-1.9937,-1.9715,-1.9664,-1.9791,-1.9916,-2.0035,-1.9842,-1.9677,-1.961,-1.9454,-1.932,-1.9292,-1.9292,-1.9253,-1.9222,-1.9192,-1.9152,-1.9121,-1.9221,-1.9465,-1.963,-2.002,-2.0601,-2.0763,-2.0946,-2.1374,-2.1511,-2.1429,-2.097,-2.0576,-2.0319,-2.0072,-1.9705,-1.9824,-1.976,-1.9736,-1.9571,-1.95,-1.9565,-1.9641,-1.9771,-2.0061,-2.0402,-2.066,-2.0902,-2.1375,-2.151,-2.2488,-2.345,-2.3424,-2.3813,-2.3747,-2.3105,-2.2853,-2.2818,-2.2555,-2.2467,-2.2167,-2.1909,-2.1865,-2.182,-2.1776,-2.1687,-2.1687,-2.1687,-2.1687,-2.1696,-2.1526,-2.1437,-2.1203,-2.1105,-2.1015,-2.0871,-2.0817,-2.0862,-2.0862,-2.0916,-2.0871,-2.0907,-2.0781,-2.0609,-2.0736,-2.0943,-2.1078,-2.1382,-2.1872,-2.2129,-2.2085,-2.2173,-2.2482,-2.2999,-2.3674,-2.4051,-2.4416,-2.4461,-2.4504,-2.5006,-2.0343,-2.0352,-2.0352,-1.9952,-1.9371,-1.9292,-1.9292,-1.9292,-1.9292,-1.9332,-1.9527,-2.0137,-1.9844,-1.9529,-1.9301,-1.9292,-1.9332,-1.949,-1.9378,-1.9378,-1.9347,-1.9448,-1.9439,-1.9375,-1.9393,-1.9402,-1.9375,-1.9366,-1.9301,-1.9292,-1.9262,-1.9222,-1.9112,-1.9002,-1.8971,-1.899,-1.9133,-1.9466,-1.9754,-2.0114,-2.0619,-2.1083,-2.1293,-2.1513,-2.1632,-2.1302,-2.0897,-2.0448,-2.0108,-1.9943,-1.9732,-1.9769,-1.9787,-1.9705,-1.9485,-1.9384,-1.9329,-1.9384,-1.9396,-1.9454,-1.9466,-1.9491,-1.9664,-1.9925,-2.0163,-2.0773,-2.1783,-2.2331,-2.2717,-2.2755,-2.2113,-2.1856,-2.182,-2.1776,-2.1785,-2.1741,-2.1741,-2.1642,-2.1651,-2.1651,-2.1597,-2.1597,-2.1597,-2.1597,-2.1517,-2.1392,-2.1257,-2.1024,-2.0835,-2.0744,-2.0609,-2.06,-2.0645,-2.0645,-2.0654,-2.0645,-2.06,-2.051,-2.0428,-2.0337,-2.0374,-2.0591,-2.0682,-2.0555,-2.0772,-2.1087,-2.1257,-2.1516,-2.2085,-2.2614,-2.2867,-2.3153,-2.3321,-2.3385,-2.3559,-1.9529,-1.9539,-1.9529,-1.9411,-1.9292,-1.9292,-1.9292,-1.9292,-1.9292,-1.9292,-1.9332,-1.9371,-1.9371,-1.9292,-1.9292,-1.9292,-1.9292,-1.9292,-1.9292,-1.9301,-1.9292,-1.9292,-1.9292,-1.9292,-1.9292,-1.9292,-1.9292,-1.9292,-1.9253,-1.9262,-1.9231,-1.9082,-1.9042,-1.8989,-1.9034,-1.9165,-1.9361,-1.968,-2.0032,-2.0469,-2.0479,-2.0878,-2.1198,-2.1478,-2.1678,-2.1586,-2.1339,-2.0842,-2.0723,-2.0622,-2.0296,-2.0012,-1.9788,-1.9642,-1.9469,-1.9237,-1.9222,-1.9222,-1.9183,-1.9183,-1.9183,-1.9192,-1.9438,-1.9556,-1.9852,-2.0305,-2.104,-2.1429,-2.178,-2.2031,-2.1687,-2.1731,-2.1731,-2.1687,-2.1687,-2.1642,-2.1597,-2.1562,-2.1482,-2.1383,-2.1275,-2.1275,-2.1221,-2.123,-2.1186,-2.106,-2.0979,-2.0789,-2.0699,-2.0518,-2.0382,-2.0428,-2.0473,-2.0382,-2.0382,-2.0428,-2.0382,-2.0337,-2.0292,-2.0292,-2.0292,-2.0292,-2.0292,-2.0292,-2.0292,-2.0555,-2.069,-2.0862,-2.0862,-2.1302,-2.157,-2.1828,-2.2057,-2.2284,-2.2446]}]]